<?xml version="1.0" encoding="UTF-8" standalone="no" ?>
<gpx xmlns="http://www.topografix.com/GPX/1/1" xmlns:xsi="http://www.w3.org/2001/XMLSchema-instance" xsi:schemaLocation="http://www.topografix.com/GPX/1/1 http://www.topografix.com/GPX/1/1/gpx.xsd" version="1.1" creator="VisuGPX - https://www.visugpx.com">
  <metadata>
    <name>VTT : Un très joili circuit VTC</name>
    <desc><![CDATA[Un très joli circuit au dessus de Gap  beaucoup plus VTC que VTT par petites routes , belles pistes pastorales et sentiers amateurs de monotraces et Trial s\'abstenir , amateurs de ballades tranquilles sans adrénaline , c\'est pour vous 
NOTE : les temps donnés sont délirants compter 4 heures ]]></desc>
  </metadata>
  <trk>
    <name><![CDATA[Gap/Charance/Gleize/Bayard]]></name>
    <trkseg>
      <trkpt lat="44.5778" lon="6.0574">
        <ele>1004.570313</ele>
      </trkpt>
      <trkpt lat="44.57672" lon="6.05707">
        <ele>991.253906</ele>
      </trkpt>
      <trkpt lat="44.57573" lon="6.05696">
        <ele>979.027344</ele>
      </trkpt>
      <trkpt lat="44.57528" lon="6.05685">
        <ele>973.6875</ele>
      </trkpt>
      <trkpt lat="44.57483" lon="6.05652">
        <ele>971.046875</ele>
      </trkpt>
      <trkpt lat="44.57429" lon="6.05652">
        <ele>964.460938</ele>
      </trkpt>
      <trkpt lat="44.57384" lon="6.05652">
        <ele>958.371094</ele>
      </trkpt>
      <trkpt lat="44.57313" lon="6.0563">
        <ele>951.648438</ele>
      </trkpt>
      <trkpt lat="44.57295" lon="6.05652">
        <ele>946.550781</ele>
      </trkpt>
      <trkpt lat="44.57232" lon="6.05674">
        <ele>938.554688</ele>
      </trkpt>
      <trkpt lat="44.5716" lon="6.05685">
        <ele>931.15625</ele>
      </trkpt>
      <trkpt lat="44.57115" lon="6.05718">
        <ele>926.097656</ele>
      </trkpt>
      <trkpt lat="44.57088" lon="6.0574">
        <ele>922.972656</ele>
      </trkpt>
      <trkpt lat="44.57107" lon="6.0572">
        <ele>923.964111</ele>
        <time>2011-11-15T09:34:52Z</time>
      </trkpt>
      <trkpt lat="44.57083" lon="6.05741">
        <ele>921.080322</ele>
        <time>2011-11-15T09:34:32Z</time>
      </trkpt>
      <trkpt lat="44.57057" lon="6.05753">
        <ele>918.196289</ele>
        <time>2011-11-15T09:34:12Z</time>
      </trkpt>
      <trkpt lat="44.57028" lon="6.05737">
        <ele>916.754395</ele>
        <time>2011-11-15T09:33:55Z</time>
      </trkpt>
      <trkpt lat="44.57001" lon="6.05704">
        <ele>915.793213</ele>
        <time>2011-11-15T09:33:38Z</time>
      </trkpt>
      <trkpt lat="44.56979" lon="6.05676">
        <ele>914.351074</ele>
        <time>2011-11-15T09:33:22Z</time>
      </trkpt>
      <trkpt lat="44.56949" lon="6.05646">
        <ele>912.90918</ele>
        <time>2011-11-15T09:33:01Z</time>
      </trkpt>
      <trkpt lat="44.56927" lon="6.05641">
        <ele>911.467285</ele>
        <time>2011-11-15T09:32:45Z</time>
      </trkpt>
      <trkpt lat="44.56906" lon="6.05658">
        <ele>908.583252</ele>
        <time>2011-11-15T09:32:27Z</time>
      </trkpt>
      <trkpt lat="44.56885" lon="6.05673">
        <ele>906.6604</ele>
        <time>2011-11-15T09:32:11Z</time>
      </trkpt>
      <trkpt lat="44.56861" lon="6.05684">
        <ele>904.257324</ele>
        <time>2011-11-15T09:31:54Z</time>
      </trkpt>
      <trkpt lat="44.56839" lon="6.05706">
        <ele>901.854004</ele>
        <time>2011-11-15T09:31:36Z</time>
      </trkpt>
      <trkpt lat="44.56831" lon="6.05725">
        <ele>900.892578</ele>
        <time>2011-11-15T09:31:26Z</time>
      </trkpt>
      <trkpt lat="44.56811" lon="6.05763">
        <ele>897.528076</ele>
        <time>2011-11-15T09:31:04Z</time>
      </trkpt>
      <trkpt lat="44.56785" lon="6.05797">
        <ele>894.644043</ele>
        <time>2011-11-15T09:30:44Z</time>
      </trkpt>
      <trkpt lat="44.56745" lon="6.05816">
        <ele>891.76001</ele>
        <time>2011-11-15T09:30:21Z</time>
      </trkpt>
      <trkpt lat="44.56712" lon="6.05819">
        <ele>889.837402</ele>
        <time>2011-11-15T09:30:03Z</time>
      </trkpt>
      <trkpt lat="44.56669" lon="6.05819">
        <ele>886.953369</ele>
        <time>2011-11-15T09:29:41Z</time>
      </trkpt>
      <trkpt lat="44.56648" lon="6.05818">
        <ele>886.4729</ele>
        <time>2011-11-15T09:28:03Z</time>
      </trkpt>
      <trkpt lat="44.56648" lon="6.05817">
        <ele>883.108154</ele>
        <time>2011-11-15T09:25:36Z</time>
      </trkpt>
      <trkpt lat="44.56647" lon="6.05817">
        <ele>882.146973</ele>
        <time>2011-11-15T09:25:19Z</time>
      </trkpt>
      <trkpt lat="44.56624" lon="6.05841">
        <ele>879.743652</ele>
        <time>2011-11-15T09:25:00Z</time>
      </trkpt>
      <trkpt lat="44.56608" lon="6.0587">
        <ele>876.37915</ele>
        <time>2011-11-15T09:24:39Z</time>
      </trkpt>
      <trkpt lat="44.56607" lon="6.05871">
        <ele>876.859863</ele>
        <time>2011-11-15T09:24:38Z</time>
      </trkpt>
      <trkpt lat="44.56588" lon="6.05896">
        <ele>873.975586</ele>
        <time>2011-11-15T09:24:20Z</time>
      </trkpt>
      <trkpt lat="44.56582" lon="6.05904">
        <ele>872.533691</ele>
        <time>2011-11-15T09:24:13Z</time>
      </trkpt>
      <trkpt lat="44.56581" lon="6.05905">
        <ele>872.533691</ele>
        <time>2011-11-15T09:24:12Z</time>
      </trkpt>
      <trkpt lat="44.56564" lon="6.05932">
        <ele>869.649902</ele>
        <time>2011-11-15T09:23:54Z</time>
      </trkpt>
      <trkpt lat="44.56548" lon="6.05949">
        <ele>867.727051</ele>
        <time>2011-11-15T09:23:40Z</time>
      </trkpt>
      <trkpt lat="44.56541" lon="6.05963">
        <ele>866.285156</ele>
        <time>2011-11-15T09:23:31Z</time>
      </trkpt>
      <trkpt lat="44.56525" lon="6.05985">
        <ele>864.362549</ele>
        <time>2011-11-15T09:23:16Z</time>
      </trkpt>
      <trkpt lat="44.56518" lon="6.05997">
        <ele>863.401367</ele>
        <time>2011-11-15T09:23:09Z</time>
      </trkpt>
      <trkpt lat="44.56517" lon="6.05998">
        <ele>863.401367</ele>
        <time>2011-11-15T09:23:08Z</time>
      </trkpt>
      <trkpt lat="44.56501" lon="6.06019">
        <ele>861.959473</ele>
        <time>2011-11-15T09:22:53Z</time>
      </trkpt>
      <trkpt lat="44.5648" lon="6.06052">
        <ele>858.594482</ele>
        <time>2011-11-15T09:22:33Z</time>
      </trkpt>
      <trkpt lat="44.5646" lon="6.06081">
        <ele>856.191162</ele>
        <time>2011-11-15T09:22:13Z</time>
      </trkpt>
      <trkpt lat="44.56445" lon="6.06105">
        <ele>854.749268</ele>
        <time>2011-11-15T09:21:57Z</time>
      </trkpt>
      <trkpt lat="44.5642" lon="6.06154">
        <ele>851.384766</ele>
        <time>2011-11-15T09:21:35Z</time>
      </trkpt>
      <trkpt lat="44.56401" lon="6.06196">
        <ele>849.462158</ele>
        <time>2011-11-15T09:21:19Z</time>
      </trkpt>
      <trkpt lat="44.56379" lon="6.06232">
        <ele>847.058838</ele>
        <time>2011-11-15T09:21:00Z</time>
      </trkpt>
      <trkpt lat="44.56376" lon="6.06238">
        <ele>847.058838</ele>
        <time>2011-11-15T09:20:57Z</time>
      </trkpt>
      <trkpt lat="44.56375" lon="6.06239">
        <ele>847.058838</ele>
        <time>2011-11-15T09:20:56Z</time>
      </trkpt>
      <trkpt lat="44.56352" lon="6.06278">
        <ele>845.13623</ele>
        <time>2011-11-15T09:20:36Z</time>
      </trkpt>
      <trkpt lat="44.56332" lon="6.06318">
        <ele>841.771484</ele>
        <time>2011-11-15T09:20:16Z</time>
      </trkpt>
      <trkpt lat="44.56307" lon="6.06347">
        <ele>839.848877</ele>
        <time>2011-11-15T09:19:56Z</time>
      </trkpt>
      <trkpt lat="44.56284" lon="6.06376">
        <ele>838.406982</ele>
        <time>2011-11-15T09:19:39Z</time>
      </trkpt>
      <trkpt lat="44.56254" lon="6.06399">
        <ele>836.964844</ele>
        <time>2011-11-15T09:19:21Z</time>
      </trkpt>
      <trkpt lat="44.56225" lon="6.06425">
        <ele>834.561768</ele>
        <time>2011-11-15T09:19:04Z</time>
      </trkpt>
      <trkpt lat="44.56194" lon="6.06456">
        <ele>833.119629</ele>
        <time>2011-11-15T09:18:45Z</time>
      </trkpt>
      <trkpt lat="44.56162" lon="6.0649">
        <ele>831.197266</ele>
        <time>2011-11-15T09:18:24Z</time>
      </trkpt>
      <trkpt lat="44.56132" lon="6.0652">
        <ele>829.755127</ele>
        <time>2011-11-15T09:18:06Z</time>
      </trkpt>
      <trkpt lat="44.56108" lon="6.06543">
        <ele>827.832275</ele>
        <time>2011-11-15T09:17:51Z</time>
      </trkpt>
      <trkpt lat="44.56077" lon="6.06581">
        <ele>826.871094</ele>
        <time>2011-11-15T09:17:36Z</time>
      </trkpt>
      <trkpt lat="44.56046" lon="6.06622">
        <ele>827.351807</ele>
        <time>2011-11-15T09:17:18Z</time>
      </trkpt>
      <trkpt lat="44.5604" lon="6.06635">
        <ele>826.390381</ele>
        <time>2011-11-15T09:17:10Z</time>
      </trkpt>
      <trkpt lat="44.5604" lon="6.06638">
        <ele>826.390381</ele>
        <time>2011-11-15T09:17:08Z</time>
      </trkpt>
      <trkpt lat="44.56028" lon="6.06664">
        <ele>823.987061</ele>
        <time>2011-11-15T09:16:50Z</time>
      </trkpt>
      <trkpt lat="44.56022" lon="6.06681">
        <ele>821.58374</ele>
        <time>2011-11-15T09:16:36Z</time>
      </trkpt>
      <trkpt lat="44.56014" lon="6.067">
        <ele>818.699951</ele>
        <time>2011-11-15T09:16:21Z</time>
      </trkpt>
      <trkpt lat="44.56004" lon="6.06719">
        <ele>815.816162</ele>
        <time>2011-11-15T09:16:04Z</time>
      </trkpt>
      <trkpt lat="44.56003" lon="6.06723">
        <ele>815.335449</ele>
        <time>2011-11-15T09:16:01Z</time>
      </trkpt>
      <trkpt lat="44.55989" lon="6.06741">
        <ele>811.970703</ele>
        <time>2011-11-15T09:15:41Z</time>
      </trkpt>
      <trkpt lat="44.55981" lon="6.0675">
        <ele>810.528564</ele>
        <time>2011-11-15T09:15:30Z</time>
      </trkpt>
      <trkpt lat="44.55968" lon="6.06764">
        <ele>807.164063</ele>
        <time>2011-11-15T09:15:12Z</time>
      </trkpt>
      <trkpt lat="44.55955" lon="6.06776">
        <ele>803.799561</ele>
        <time>2011-11-15T09:14:53Z</time>
      </trkpt>
      <trkpt lat="44.5594" lon="6.0679">
        <ele>801.39624</ele>
        <time>2011-11-15T09:14:35Z</time>
      </trkpt>
      <trkpt lat="44.55936" lon="6.06796">
        <ele>800.435059</ele>
        <time>2011-11-15T09:14:30Z</time>
      </trkpt>
      <trkpt lat="44.55929" lon="6.06801">
        <ele>799.954346</ele>
        <time>2011-11-15T09:14:23Z</time>
      </trkpt>
      <trkpt lat="44.55911" lon="6.06811">
        <ele>797.070313</ele>
        <time>2011-11-15T09:14:04Z</time>
      </trkpt>
      <trkpt lat="44.5589" lon="6.06821">
        <ele>794.666748</ele>
        <time>2011-11-15T09:13:45Z</time>
      </trkpt>
      <trkpt lat="44.55875" lon="6.06834">
        <ele>792.263672</ele>
        <time>2011-11-15T09:13:30Z</time>
      </trkpt>
      <trkpt lat="44.55873" lon="6.06834">
        <ele>791.782959</ele>
        <time>2011-11-15T09:13:28Z</time>
      </trkpt>
      <trkpt lat="44.55856" lon="6.06843">
        <ele>789.860352</ele>
        <time>2011-11-15T09:13:12Z</time>
      </trkpt>
      <trkpt lat="44.5585" lon="6.06845">
        <ele>788.89917</ele>
        <time>2011-11-15T09:13:08Z</time>
      </trkpt>
      <trkpt lat="44.55834" lon="6.06854">
        <ele>786.49585</ele>
        <time>2011-11-15T09:12:55Z</time>
      </trkpt>
      <trkpt lat="44.55807" lon="6.06868">
        <ele>782.650635</ele>
        <time>2011-11-15T09:12:36Z</time>
      </trkpt>
      <trkpt lat="44.55799" lon="6.0688">
        <ele>782.169922</ele>
        <time>2011-11-15T09:12:29Z</time>
      </trkpt>
      <trkpt lat="44.55799" lon="6.0688">
        <ele>781.20874</ele>
        <time>2011-11-15T09:12:26Z</time>
      </trkpt>
      <trkpt lat="44.55799" lon="6.0688">
        <ele>784.092529</ele>
        <time>2011-11-15T09:12:24Z</time>
      </trkpt>
      <trkpt lat="44.55799" lon="6.0688">
        <ele>784.092529</ele>
        <time>2011-11-15T09:12:23Z</time>
      </trkpt>
      <trkpt lat="44.55799" lon="6.0688">
        <ele>779.766357</ele>
        <time>2011-11-15T09:12:22Z</time>
      </trkpt>
      <trkpt lat="44.55799" lon="6.06881">
        <ele>781.689209</ele>
        <time>2011-11-15T09:11:39Z</time>
      </trkpt>
      <trkpt lat="44.55798" lon="6.06883">
        <ele>781.20874</ele>
        <time>2011-11-15T09:11:20Z</time>
      </trkpt>
      <trkpt lat="44.55793" lon="6.06881">
        <ele>780.728027</ele>
        <time>2011-11-15T09:11:16Z</time>
      </trkpt>
      <trkpt lat="44.55783" lon="6.06893">
        <ele>780.247314</ele>
        <time>2011-11-15T09:11:08Z</time>
      </trkpt>
      <trkpt lat="44.55768" lon="6.06932">
        <ele>779.285645</ele>
        <time>2011-11-15T09:10:53Z</time>
      </trkpt>
      <trkpt lat="44.55746" lon="6.06959">
        <ele>777.363281</ele>
        <time>2011-11-15T09:10:36Z</time>
      </trkpt>
      <trkpt lat="44.55725" lon="6.06985">
        <ele>776.401855</ele>
        <time>2011-11-15T09:10:20Z</time>
      </trkpt>
      <trkpt lat="44.5571" lon="6.07014">
        <ele>773.998535</ele>
        <time>2011-11-15T09:10:05Z</time>
      </trkpt>
      <trkpt lat="44.55707" lon="6.07055">
        <ele>772.075928</ele>
        <time>2011-11-15T09:09:48Z</time>
      </trkpt>
      <trkpt lat="44.55708" lon="6.07069">
        <ele>771.114746</ele>
        <time>2011-11-15T09:09:42Z</time>
      </trkpt>
      <trkpt lat="44.55719" lon="6.07102">
        <ele>769.192139</ele>
        <time>2011-11-15T09:09:28Z</time>
      </trkpt>
      <trkpt lat="44.55736" lon="6.07137">
        <ele>767.75</ele>
        <time>2011-11-15T09:09:13Z</time>
      </trkpt>
      <trkpt lat="44.55763" lon="6.07154">
        <ele>765.346924</ele>
        <time>2011-11-15T09:08:58Z</time>
      </trkpt>
      <trkpt lat="44.55788" lon="6.07126">
        <ele>763.424072</ele>
        <time>2011-11-15T09:08:42Z</time>
      </trkpt>
      <trkpt lat="44.5579" lon="6.071">
        <ele>762.462646</ele>
        <time>2011-11-15T09:08:34Z</time>
      </trkpt>
      <trkpt lat="44.55801" lon="6.07085">
        <ele>761.982178</ele>
        <time>2011-11-15T09:08:29Z</time>
      </trkpt>
      <trkpt lat="44.55832" lon="6.07075">
        <ele>761.501465</ele>
        <time>2011-11-15T09:08:14Z</time>
      </trkpt>
      <trkpt lat="44.5584" lon="6.07073">
        <ele>761.501465</ele>
        <time>2011-11-15T09:08:10Z</time>
      </trkpt>
      <trkpt lat="44.55851" lon="6.07073">
        <ele>760.540039</ele>
        <time>2011-11-15T09:08:05Z</time>
      </trkpt>
      <trkpt lat="44.55859" lon="6.07075">
        <ele>760.059326</ele>
        <time>2011-11-15T09:08:01Z</time>
      </trkpt>
      <trkpt lat="44.55869" lon="6.07079">
        <ele>759.578857</ele>
        <time>2011-11-15T09:07:57Z</time>
      </trkpt>
      <trkpt lat="44.55869" lon="6.07085">
        <ele>759.578857</ele>
        <time>2011-11-15T09:07:54Z</time>
      </trkpt>
      <trkpt lat="44.55871" lon="6.07093">
        <ele>758.617432</ele>
        <time>2011-11-15T09:07:51Z</time>
      </trkpt>
      <trkpt lat="44.55875" lon="6.07102">
        <ele>758.617432</ele>
        <time>2011-11-15T09:07:48Z</time>
      </trkpt>
      <trkpt lat="44.55873" lon="6.0712">
        <ele>757.65625</ele>
        <time>2011-11-15T09:07:42Z</time>
      </trkpt>
      <trkpt lat="44.55876" lon="6.07143">
        <ele>756.214111</ele>
        <time>2011-11-15T09:07:33Z</time>
      </trkpt>
      <trkpt lat="44.55879" lon="6.07162">
        <ele>755.733643</ele>
        <time>2011-11-15T09:07:25Z</time>
      </trkpt>
      <trkpt lat="44.55883" lon="6.07195">
        <ele>754.291748</ele>
        <time>2011-11-15T09:07:12Z</time>
      </trkpt>
      <trkpt lat="44.55897" lon="6.07226">
        <ele>752.368896</ele>
        <time>2011-11-15T09:06:59Z</time>
      </trkpt>
      <trkpt lat="44.559" lon="6.07253">
        <ele>751.407715</ele>
        <time>2011-11-15T09:06:49Z</time>
      </trkpt>
      <trkpt lat="44.55904" lon="6.07258">
        <ele>751.407715</ele>
        <time>2011-11-15T09:06:47Z</time>
      </trkpt>
      <trkpt lat="44.55911" lon="6.0728">
        <ele>750.446533</ele>
        <time>2011-11-15T09:06:39Z</time>
      </trkpt>
      <trkpt lat="44.55931" lon="6.07315">
        <ele>748.523682</ele>
        <time>2011-11-15T09:06:27Z</time>
      </trkpt>
      <trkpt lat="44.5594" lon="6.07342">
        <ele>748.523682</ele>
        <time>2011-11-15T09:06:17Z</time>
      </trkpt>
      <trkpt lat="44.55944" lon="6.07363">
        <ele>747.562256</ele>
        <time>2011-11-15T09:06:10Z</time>
      </trkpt>
      <trkpt lat="44.55945" lon="6.07397">
        <ele>746.120361</ele>
        <time>2011-11-15T09:05:59Z</time>
      </trkpt>
      <trkpt lat="44.55946" lon="6.07401">
        <ele>745.639648</ele>
        <time>2011-11-15T09:05:57Z</time>
      </trkpt>
      <trkpt lat="44.55953" lon="6.07419">
        <ele>744.678223</ele>
        <time>2011-11-15T09:05:46Z</time>
      </trkpt>
      <trkpt lat="44.55959" lon="6.07441">
        <ele>744.197754</ele>
        <time>2011-11-15T09:05:38Z</time>
      </trkpt>
      <trkpt lat="44.55963" lon="6.07465">
        <ele>742.755859</ele>
        <time>2011-11-15T09:05:27Z</time>
      </trkpt>
      <trkpt lat="44.55964" lon="6.07465">
        <ele>742.755859</ele>
        <time>2011-11-15T09:05:20Z</time>
      </trkpt>
      <trkpt lat="44.55968" lon="6.07472">
        <ele>742.755859</ele>
        <time>2011-11-15T09:05:06Z</time>
      </trkpt>
      <trkpt lat="44.55966" lon="6.07475">
        <ele>742.755859</ele>
        <time>2011-11-15T09:05:03Z</time>
      </trkpt>
      <trkpt lat="44.55959" lon="6.0748">
        <ele>742.755859</ele>
        <time>2011-11-15T09:04:41Z</time>
      </trkpt>
      <trkpt lat="44.55952" lon="6.07491">
        <ele>741.313721</ele>
        <time>2011-11-15T09:04:38Z</time>
      </trkpt>
      <trkpt lat="44.55944" lon="6.07504">
        <ele>740.833008</ele>
        <time>2011-11-15T09:04:31Z</time>
      </trkpt>
      <trkpt lat="44.55938" lon="6.07519">
        <ele>737.949219</ele>
        <time>2011-11-15T09:04:16Z</time>
      </trkpt>
      <trkpt lat="44.55932" lon="6.07524">
        <ele>736.987793</ele>
        <time>2011-11-15T09:04:03Z</time>
      </trkpt>
      <trkpt lat="44.55925" lon="6.07517">
        <ele>736.987793</ele>
        <time>2011-11-15T09:03:58Z</time>
      </trkpt>
      <trkpt lat="44.55899" lon="6.07498">
        <ele>734.584717</ele>
        <time>2011-11-15T09:03:44Z</time>
      </trkpt>
      <trkpt lat="44.55893" lon="6.07495">
        <ele>734.104004</ele>
        <time>2011-11-15T09:03:42Z</time>
      </trkpt>
      <trkpt lat="44.55873" lon="6.07488">
        <ele>730.739258</ele>
        <time>2011-11-15T09:03:35Z</time>
      </trkpt>
      <trkpt lat="44.55871" lon="6.07485">
        <ele>728.335938</ele>
        <time>2011-11-15T09:03:32Z</time>
      </trkpt>
      <trkpt lat="44.55871" lon="6.07481">
        <ele>725.451904</ele>
        <time>2011-11-15T09:02:29Z</time>
      </trkpt>
      <trkpt lat="44.55965" lon="6.07462">
        <ele>750.808594</ele>
      </trkpt>
      <trkpt lat="44.55852" lon="6.07469">
        <ele>748.523682</ele>
        <time>2011-11-15T13:30:59Z</time>
      </trkpt>
      <trkpt lat="44.55875" lon="6.07491">
        <ele>749.485107</ele>
        <time>2011-11-15T13:30:45Z</time>
      </trkpt>
      <trkpt lat="44.5588" lon="6.07496">
        <ele>748.523682</ele>
        <time>2011-11-15T13:30:42Z</time>
      </trkpt>
      <trkpt lat="44.55892" lon="6.07508">
        <ele>748.043213</ele>
        <time>2011-11-15T13:30:33Z</time>
      </trkpt>
      <trkpt lat="44.55898" lon="6.07514">
        <ele>748.523682</ele>
        <time>2011-11-15T13:30:29Z</time>
      </trkpt>
      <trkpt lat="44.55942" lon="6.07558">
        <ele>749.485107</ele>
        <time>2011-11-15T13:30:17Z</time>
      </trkpt>
      <trkpt lat="44.55977" lon="6.07589">
        <ele>749.96582</ele>
        <time>2011-11-15T13:30:05Z</time>
      </trkpt>
      <trkpt lat="44.56033" lon="6.0763">
        <ele>749.004395</ele>
        <time>2011-11-15T13:29:51Z</time>
      </trkpt>
      <trkpt lat="44.56042" lon="6.07663">
        <ele>748.523682</ele>
        <time>2011-11-15T13:29:44Z</time>
      </trkpt>
      <trkpt lat="44.56056" lon="6.07699">
        <ele>749.485107</ele>
        <time>2011-11-15T13:29:34Z</time>
      </trkpt>
      <trkpt lat="44.56069" lon="6.0773">
        <ele>748.043213</ele>
        <time>2011-11-15T13:29:21Z</time>
      </trkpt>
      <trkpt lat="44.56081" lon="6.07736">
        <ele>748.523682</ele>
        <time>2011-11-15T13:29:13Z</time>
      </trkpt>
      <trkpt lat="44.56118" lon="6.07719">
        <ele>749.96582</ele>
        <time>2011-11-15T13:29:05Z</time>
      </trkpt>
      <trkpt lat="44.56147" lon="6.07736">
        <ele>749.485107</ele>
        <time>2011-11-15T13:28:51Z</time>
      </trkpt>
      <trkpt lat="44.56168" lon="6.07749">
        <ele>749.96582</ele>
        <time>2011-11-15T13:28:46Z</time>
      </trkpt>
      <trkpt lat="44.56171" lon="6.07751">
        <ele>749.96582</ele>
        <time>2011-11-15T13:28:45Z</time>
      </trkpt>
      <trkpt lat="44.5619" lon="6.07764">
        <ele>750.927002</ele>
        <time>2011-11-15T13:28:38Z</time>
      </trkpt>
      <trkpt lat="44.56208" lon="6.07762">
        <ele>751.888428</ele>
        <time>2011-11-15T13:28:34Z</time>
      </trkpt>
      <trkpt lat="44.56234" lon="6.07737">
        <ele>753.330322</ele>
        <time>2011-11-15T13:28:29Z</time>
      </trkpt>
      <trkpt lat="44.56306" lon="6.07752">
        <ele>754.291748</ele>
        <time>2011-11-15T13:28:25Z</time>
      </trkpt>
      <trkpt lat="44.56306" lon="6.07752">
        <ele>754.291748</ele>
        <time>2011-11-15T13:28:20Z</time>
      </trkpt>
      <trkpt lat="44.56304" lon="6.07742">
        <ele>755.733643</ele>
        <time>2011-11-15T13:28:16Z</time>
      </trkpt>
      <trkpt lat="44.56308" lon="6.07771">
        <ele>754.772217</ele>
        <time>2011-11-15T13:28:06Z</time>
      </trkpt>
      <trkpt lat="44.56327" lon="6.07834">
        <ele>753.330322</ele>
        <time>2011-11-15T13:27:54Z</time>
      </trkpt>
      <trkpt lat="44.56352" lon="6.07845">
        <ele>753.330322</ele>
        <time>2011-11-15T13:27:48Z</time>
      </trkpt>
      <trkpt lat="44.56372" lon="6.07854">
        <ele>753.811035</ele>
        <time>2011-11-15T13:27:44Z</time>
      </trkpt>
      <trkpt lat="44.56374" lon="6.0788">
        <ele>753.330322</ele>
        <time>2011-11-15T13:27:39Z</time>
      </trkpt>
      <trkpt lat="44.56374" lon="6.07915">
        <ele>754.291748</ele>
        <time>2011-11-15T13:27:33Z</time>
      </trkpt>
      <trkpt lat="44.56373" lon="6.07962">
        <ele>754.291748</ele>
        <time>2011-11-15T13:27:26Z</time>
      </trkpt>
      <trkpt lat="44.56372" lon="6.07982">
        <ele>752.849609</ele>
        <time>2011-11-15T13:27:24Z</time>
      </trkpt>
      <trkpt lat="44.56371" lon="6.08037">
        <ele>754.772217</ele>
        <time>2011-11-15T13:27:15Z</time>
      </trkpt>
      <trkpt lat="44.56376" lon="6.08117">
        <ele>753.330322</ele>
        <time>2011-11-15T13:27:03Z</time>
      </trkpt>
      <trkpt lat="44.56385" lon="6.08138">
        <ele>753.811035</ele>
        <time>2011-11-15T13:26:57Z</time>
      </trkpt>
      <trkpt lat="44.56405" lon="6.08152">
        <ele>754.291748</ele>
        <time>2011-11-15T13:26:53Z</time>
      </trkpt>
      <trkpt lat="44.56435" lon="6.08197">
        <ele>755.25293</ele>
        <time>2011-11-15T13:26:44Z</time>
      </trkpt>
      <trkpt lat="44.56446" lon="6.08214">
        <ele>756.214111</ele>
        <time>2011-11-15T13:26:42Z</time>
      </trkpt>
      <trkpt lat="44.56462" lon="6.0822">
        <ele>757.65625</ele>
        <time>2011-11-15T13:26:40Z</time>
      </trkpt>
      <trkpt lat="44.56481" lon="6.0822">
        <ele>759.098145</ele>
        <time>2011-11-15T13:26:37Z</time>
      </trkpt>
      <trkpt lat="44.56525" lon="6.0821">
        <ele>761.982178</ele>
        <time>2011-11-15T13:26:30Z</time>
      </trkpt>
      <trkpt lat="44.56547" lon="6.08205">
        <ele>762.943359</ele>
        <time>2011-11-15T13:26:26Z</time>
      </trkpt>
      <trkpt lat="44.56602" lon="6.08188">
        <ele>763.424072</ele>
        <time>2011-11-15T13:26:17Z</time>
      </trkpt>
      <trkpt lat="44.56625" lon="6.08182">
        <ele>765.346924</ele>
        <time>2011-11-15T13:26:13Z</time>
      </trkpt>
      <trkpt lat="44.56644" lon="6.08177">
        <ele>766.308105</ele>
        <time>2011-11-15T13:26:09Z</time>
      </trkpt>
      <trkpt lat="44.56663" lon="6.08182">
        <ele>766.788818</ele>
        <time>2011-11-15T13:26:04Z</time>
      </trkpt>
      <trkpt lat="44.56692" lon="6.08259">
        <ele>766.788818</ele>
        <time>2011-11-15T13:25:54Z</time>
      </trkpt>
      <trkpt lat="44.5672" lon="6.083">
        <ele>769.672852</ele>
        <time>2011-11-15T13:25:47Z</time>
      </trkpt>
      <trkpt lat="44.5673" lon="6.08331">
        <ele>769.192139</ele>
        <time>2011-11-15T13:25:43Z</time>
      </trkpt>
      <trkpt lat="44.56742" lon="6.08342">
        <ele>770.15332</ele>
        <time>2011-11-15T13:25:40Z</time>
      </trkpt>
      <trkpt lat="44.56758" lon="6.0834">
        <ele>772.075928</ele>
        <time>2011-11-15T13:25:37Z</time>
      </trkpt>
      <trkpt lat="44.56771" lon="6.08339">
        <ele>773.037354</ele>
        <time>2011-11-15T13:25:35Z</time>
      </trkpt>
      <trkpt lat="44.56799" lon="6.08336">
        <ele>775.921143</ele>
        <time>2011-11-15T13:25:31Z</time>
      </trkpt>
      <trkpt lat="44.56807" lon="6.08335">
        <ele>775.921143</ele>
        <time>2011-11-15T13:25:30Z</time>
      </trkpt>
      <trkpt lat="44.56841" lon="6.08331">
        <ele>779.285645</ele>
        <time>2011-11-15T13:25:26Z</time>
      </trkpt>
      <trkpt lat="44.56866" lon="6.08329">
        <ele>780.247314</ele>
        <time>2011-11-15T13:25:23Z</time>
      </trkpt>
      <trkpt lat="44.5689" lon="6.08328">
        <ele>781.689209</ele>
        <time>2011-11-15T13:25:20Z</time>
      </trkpt>
      <trkpt lat="44.56973" lon="6.0832">
        <ele>785.534424</ele>
        <time>2011-11-15T13:25:10Z</time>
      </trkpt>
      <trkpt lat="44.57019" lon="6.08315">
        <ele>787.937744</ele>
        <time>2011-11-15T13:25:05Z</time>
      </trkpt>
      <trkpt lat="44.5704" lon="6.08312">
        <ele>789.379639</ele>
        <time>2011-11-15T13:25:03Z</time>
      </trkpt>
      <trkpt lat="44.57063" lon="6.0831">
        <ele>790.821533</ele>
        <time>2011-11-15T13:25:01Z</time>
      </trkpt>
      <trkpt lat="44.57118" lon="6.08304">
        <ele>794.666748</ele>
        <time>2011-11-15T13:24:56Z</time>
      </trkpt>
      <trkpt lat="44.5713" lon="6.08303">
        <ele>794.666748</ele>
        <time>2011-11-15T13:24:55Z</time>
      </trkpt>
      <trkpt lat="44.57154" lon="6.083">
        <ele>798.031738</ele>
        <time>2011-11-15T13:24:53Z</time>
      </trkpt>
      <trkpt lat="44.57177" lon="6.08297">
        <ele>799.473633</ele>
        <time>2011-11-15T13:24:51Z</time>
      </trkpt>
      <trkpt lat="44.57198" lon="6.08295">
        <ele>801.39624</ele>
        <time>2011-11-15T13:24:49Z</time>
      </trkpt>
      <trkpt lat="44.57217" lon="6.08293">
        <ele>803.318848</ele>
        <time>2011-11-15T13:24:47Z</time>
      </trkpt>
      <trkpt lat="44.57261" lon="6.08275">
        <ele>805.722168</ele>
        <time>2011-11-15T13:24:41Z</time>
      </trkpt>
      <trkpt lat="44.57265" lon="6.08269">
        <ele>806.202637</ele>
        <time>2011-11-15T13:24:40Z</time>
      </trkpt>
      <trkpt lat="44.57283" lon="6.08238">
        <ele>809.08667</ele>
        <time>2011-11-15T13:24:35Z</time>
      </trkpt>
      <trkpt lat="44.57293" lon="6.08219">
        <ele>810.528564</ele>
        <time>2011-11-15T13:24:31Z</time>
      </trkpt>
      <trkpt lat="44.5731" lon="6.08236">
        <ele>811.009277</ele>
        <time>2011-11-15T13:24:21Z</time>
      </trkpt>
      <trkpt lat="44.57316" lon="6.08249">
        <ele>811.970703</ele>
        <time>2011-11-15T13:24:19Z</time>
      </trkpt>
      <trkpt lat="44.57321" lon="6.08262">
        <ele>812.932129</ele>
        <time>2011-11-15T13:24:17Z</time>
      </trkpt>
      <trkpt lat="44.57325" lon="6.08274">
        <ele>815.335449</ele>
        <time>2011-11-15T13:24:15Z</time>
      </trkpt>
      <trkpt lat="44.57332" lon="6.08304">
        <ele>816.296631</ele>
        <time>2011-11-15T13:24:11Z</time>
      </trkpt>
      <trkpt lat="44.57381" lon="6.08284">
        <ele>819.661377</ele>
        <time>2011-11-15T13:24:07Z</time>
      </trkpt>
      <trkpt lat="44.57366" lon="6.08318">
        <ele>821.103271</ele>
        <time>2011-11-15T13:24:05Z</time>
      </trkpt>
      <trkpt lat="44.57376" lon="6.08298">
        <ele>822.545166</ele>
        <time>2011-11-15T13:24:02Z</time>
      </trkpt>
      <trkpt lat="44.57389" lon="6.08262">
        <ele>827.351807</ele>
        <time>2011-11-15T13:23:58Z</time>
      </trkpt>
      <trkpt lat="44.57395" lon="6.08244">
        <ele>828.793945</ele>
        <time>2011-11-15T13:23:56Z</time>
      </trkpt>
      <trkpt lat="44.57413" lon="6.08226">
        <ele>831.677734</ele>
        <time>2011-11-15T13:23:51Z</time>
      </trkpt>
      <trkpt lat="44.57425" lon="6.08234">
        <ele>833.119629</ele>
        <time>2011-11-15T13:23:48Z</time>
      </trkpt>
      <trkpt lat="44.57448" lon="6.0826">
        <ele>837.445557</ele>
        <time>2011-11-15T13:23:44Z</time>
      </trkpt>
      <trkpt lat="44.57462" lon="6.08278">
        <ele>838.887695</ele>
        <time>2011-11-15T13:23:42Z</time>
      </trkpt>
      <trkpt lat="44.5748" lon="6.08301">
        <ele>840.32959</ele>
        <time>2011-11-15T13:23:39Z</time>
      </trkpt>
      <trkpt lat="44.57502" lon="6.08321">
        <ele>841.771484</ele>
        <time>2011-11-15T13:23:35Z</time>
      </trkpt>
      <trkpt lat="44.57516" lon="6.08306">
        <ele>844.175049</ele>
        <time>2011-11-15T13:23:32Z</time>
      </trkpt>
      <trkpt lat="44.57521" lon="6.08291">
        <ele>845.616943</ele>
        <time>2011-11-15T13:23:30Z</time>
      </trkpt>
      <trkpt lat="44.57531" lon="6.08267">
        <ele>846.578369</ele>
        <time>2011-11-15T13:23:26Z</time>
      </trkpt>
      <trkpt lat="44.57539" lon="6.08261">
        <ele>848.500732</ele>
        <time>2011-11-15T13:23:21Z</time>
      </trkpt>
      <trkpt lat="44.57539" lon="6.08261">
        <ele>848.020264</ele>
        <time>2011-11-15T13:23:16Z</time>
      </trkpt>
      <trkpt lat="44.57539" lon="6.08261">
        <ele>847.058838</ele>
        <time>2011-11-15T13:23:12Z</time>
      </trkpt>
      <trkpt lat="44.57542" lon="6.0826">
        <ele>847.058838</ele>
        <time>2011-11-15T13:23:11Z</time>
      </trkpt>
      <trkpt lat="44.57559" lon="6.08256">
        <ele>850.423584</ele>
        <time>2011-11-15T13:23:08Z</time>
      </trkpt>
      <trkpt lat="44.57576" lon="6.08255">
        <ele>850.423584</ele>
        <time>2011-11-15T13:23:06Z</time>
      </trkpt>
      <trkpt lat="44.57587" lon="6.08254">
        <ele>852.345947</ele>
        <time>2011-11-15T13:23:05Z</time>
      </trkpt>
      <trkpt lat="44.57596" lon="6.08254">
        <ele>852.345947</ele>
        <time>2011-11-15T13:23:04Z</time>
      </trkpt>
      <trkpt lat="44.57619" lon="6.08262">
        <ele>856.671875</ele>
        <time>2011-11-15T13:23:01Z</time>
      </trkpt>
      <trkpt lat="44.57637" lon="6.08284">
        <ele>860.036621</ele>
        <time>2011-11-15T13:22:58Z</time>
      </trkpt>
      <trkpt lat="44.57644" lon="6.08292">
        <ele>860.036621</ele>
        <time>2011-11-15T13:22:57Z</time>
      </trkpt>
      <trkpt lat="44.57658" lon="6.0831">
        <ele>863.401367</ele>
        <time>2011-11-15T13:22:55Z</time>
      </trkpt>
      <trkpt lat="44.57665" lon="6.0832">
        <ele>863.401367</ele>
        <time>2011-11-15T13:22:54Z</time>
      </trkpt>
      <trkpt lat="44.57688" lon="6.08348">
        <ele>866.765869</ele>
        <time>2011-11-15T13:22:51Z</time>
      </trkpt>
      <trkpt lat="44.57709" lon="6.08374">
        <ele>869.169189</ele>
        <time>2011-11-15T13:22:48Z</time>
      </trkpt>
      <trkpt lat="44.57721" lon="6.08389">
        <ele>870.130371</ele>
        <time>2011-11-15T13:22:46Z</time>
      </trkpt>
      <trkpt lat="44.57737" lon="6.08392">
        <ele>872.052979</ele>
        <time>2011-11-15T13:22:44Z</time>
      </trkpt>
      <trkpt lat="44.57753" lon="6.08374">
        <ele>875.898193</ele>
        <time>2011-11-15T13:22:41Z</time>
      </trkpt>
      <trkpt lat="44.57762" lon="6.08359">
        <ele>875.898193</ele>
        <time>2011-11-15T13:22:39Z</time>
      </trkpt>
      <trkpt lat="44.57771" lon="6.08343">
        <ele>878.301758</ele>
        <time>2011-11-15T13:22:37Z</time>
      </trkpt>
      <trkpt lat="44.5778" lon="6.08326">
        <ele>879.743652</ele>
        <time>2011-11-15T13:22:35Z</time>
      </trkpt>
      <trkpt lat="44.57786" lon="6.08317">
        <ele>879.743652</ele>
        <time>2011-11-15T13:22:34Z</time>
      </trkpt>
      <trkpt lat="44.57797" lon="6.08298">
        <ele>883.108154</ele>
        <time>2011-11-15T13:22:32Z</time>
      </trkpt>
      <trkpt lat="44.57806" lon="6.08281">
        <ele>885.031006</ele>
        <time>2011-11-15T13:22:30Z</time>
      </trkpt>
      <trkpt lat="44.57816" lon="6.08266">
        <ele>886.953369</ele>
        <time>2011-11-15T13:22:28Z</time>
      </trkpt>
      <trkpt lat="44.57831" lon="6.08243">
        <ele>889.356689</ele>
        <time>2011-11-15T13:22:25Z</time>
      </trkpt>
      <trkpt lat="44.57837" lon="6.08235">
        <ele>889.356689</ele>
        <time>2011-11-15T13:22:24Z</time>
      </trkpt>
      <trkpt lat="44.57851" lon="6.08226">
        <ele>893.202148</ele>
        <time>2011-11-15T13:22:22Z</time>
      </trkpt>
      <trkpt lat="44.57859" lon="6.08224">
        <ele>894.644043</ele>
        <time>2011-11-15T13:22:21Z</time>
      </trkpt>
      <trkpt lat="44.57867" lon="6.08223">
        <ele>894.644043</ele>
        <time>2011-11-15T13:22:20Z</time>
      </trkpt>
      <trkpt lat="44.57885" lon="6.08222">
        <ele>897.528076</ele>
        <time>2011-11-15T13:22:18Z</time>
      </trkpt>
      <trkpt lat="44.57918" lon="6.0822">
        <ele>899.450684</ele>
        <time>2011-11-15T13:22:14Z</time>
      </trkpt>
      <trkpt lat="44.57926" lon="6.08219">
        <ele>899.450684</ele>
        <time>2011-11-15T13:22:13Z</time>
      </trkpt>
      <trkpt lat="44.57941" lon="6.08218">
        <ele>902.815186</ele>
        <time>2011-11-15T13:22:11Z</time>
      </trkpt>
      <trkpt lat="44.57971" lon="6.08206">
        <ele>905.218506</ele>
        <time>2011-11-15T13:22:07Z</time>
      </trkpt>
      <trkpt lat="44.5799" lon="6.08209">
        <ele>907.141113</ele>
        <time>2011-11-15T13:22:00Z</time>
      </trkpt>
      <trkpt lat="44.5799" lon="6.08209">
        <ele>909.063965</ele>
        <time>2011-11-15T13:21:56Z</time>
      </trkpt>
      <trkpt lat="44.58005" lon="6.08209">
        <ele>907.621826</ele>
        <time>2011-11-15T13:21:46Z</time>
      </trkpt>
      <trkpt lat="44.58016" lon="6.08208">
        <ele>907.141113</ele>
        <time>2011-11-15T13:21:44Z</time>
      </trkpt>
      <trkpt lat="44.58031" lon="6.08207">
        <ele>908.583252</ele>
        <time>2011-11-15T13:21:42Z</time>
      </trkpt>
      <trkpt lat="44.58056" lon="6.08204">
        <ele>910.505859</ele>
        <time>2011-11-15T13:21:38Z</time>
      </trkpt>
      <trkpt lat="44.58061" lon="6.08204">
        <ele>911.947998</ele>
        <time>2011-11-15T13:21:37Z</time>
      </trkpt>
      <trkpt lat="44.58073" lon="6.08202">
        <ele>912.90918</ele>
        <time>2011-11-15T13:21:35Z</time>
      </trkpt>
      <trkpt lat="44.58087" lon="6.08201">
        <ele>913.870361</ele>
        <time>2011-11-15T13:21:33Z</time>
      </trkpt>
      <trkpt lat="44.58095" lon="6.08201">
        <ele>914.831787</ele>
        <time>2011-11-15T13:21:32Z</time>
      </trkpt>
      <trkpt lat="44.58104" lon="6.082">
        <ele>914.831787</ele>
        <time>2011-11-15T13:21:31Z</time>
      </trkpt>
      <trkpt lat="44.58111" lon="6.08196">
        <ele>918.196289</ele>
        <time>2011-11-15T13:21:30Z</time>
      </trkpt>
      <trkpt lat="44.58118" lon="6.08192">
        <ele>918.196289</ele>
        <time>2011-11-15T13:21:29Z</time>
      </trkpt>
      <trkpt lat="44.58131" lon="6.0816">
        <ele>922.041504</ele>
        <time>2011-11-15T13:21:24Z</time>
      </trkpt>
      <trkpt lat="44.58132" lon="6.08153">
        <ele>923.00293</ele>
        <time>2011-11-15T13:21:23Z</time>
      </trkpt>
      <trkpt lat="44.58126" lon="6.08104">
        <ele>926.367676</ele>
        <time>2011-11-15T13:21:16Z</time>
      </trkpt>
      <trkpt lat="44.58124" lon="6.08088">
        <ele>926.848389</ele>
        <time>2011-11-15T13:21:11Z</time>
      </trkpt>
      <trkpt lat="44.58125" lon="6.08071">
        <ele>927.80957</ele>
        <time>2011-11-15T13:21:07Z</time>
      </trkpt>
      <trkpt lat="44.58125" lon="6.08071">
        <ele>928.290283</ele>
        <time>2011-11-15T13:20:43Z</time>
      </trkpt>
      <trkpt lat="44.58129" lon="6.08062">
        <ele>926.367676</ele>
        <time>2011-11-15T13:20:32Z</time>
      </trkpt>
      <trkpt lat="44.58148" lon="6.08058">
        <ele>927.80957</ele>
        <time>2011-11-15T13:20:29Z</time>
      </trkpt>
      <trkpt lat="44.58154" lon="6.08079">
        <ele>925.886963</ele>
        <time>2011-11-15T13:20:26Z</time>
      </trkpt>
      <trkpt lat="44.58155" lon="6.08091">
        <ele>924.445068</ele>
        <time>2011-11-15T13:20:25Z</time>
      </trkpt>
      <trkpt lat="44.5816" lon="6.0812">
        <ele>926.848389</ele>
        <time>2011-11-15T13:20:23Z</time>
      </trkpt>
      <trkpt lat="44.58171" lon="6.08142">
        <ele>928.290283</ele>
        <time>2011-11-15T13:20:21Z</time>
      </trkpt>
      <trkpt lat="44.58177" lon="6.08152">
        <ele>929.251465</ele>
        <time>2011-11-15T13:20:20Z</time>
      </trkpt>
      <trkpt lat="44.58193" lon="6.08171">
        <ele>931.174316</ele>
        <time>2011-11-15T13:20:18Z</time>
      </trkpt>
      <trkpt lat="44.58208" lon="6.08189">
        <ele>932.616211</ele>
        <time>2011-11-15T13:20:16Z</time>
      </trkpt>
      <trkpt lat="44.58215" lon="6.08198">
        <ele>932.616211</ele>
        <time>2011-11-15T13:20:15Z</time>
      </trkpt>
      <trkpt lat="44.58228" lon="6.08215">
        <ele>938.864746</ele>
        <time>2011-11-15T13:20:13Z</time>
      </trkpt>
      <trkpt lat="44.5824" lon="6.08231">
        <ele>940.787354</ele>
        <time>2011-11-15T13:20:11Z</time>
      </trkpt>
      <trkpt lat="44.58253" lon="6.08241">
        <ele>942.710205</ele>
        <time>2011-11-15T13:20:09Z</time>
      </trkpt>
      <trkpt lat="44.5826" lon="6.0824">
        <ele>942.710205</ele>
        <time>2011-11-15T13:20:08Z</time>
      </trkpt>
      <trkpt lat="44.58263" lon="6.0819">
        <ele>946.074707</ele>
        <time>2011-11-15T13:20:01Z</time>
      </trkpt>
      <trkpt lat="44.58257" lon="6.08171">
        <ele>947.035889</ele>
        <time>2011-11-15T13:19:59Z</time>
      </trkpt>
      <trkpt lat="44.58245" lon="6.08129">
        <ele>949.919922</ele>
        <time>2011-11-15T13:19:55Z</time>
      </trkpt>
      <trkpt lat="44.58235" lon="6.08104">
        <ele>951.361816</ele>
        <time>2011-11-15T13:19:52Z</time>
      </trkpt>
      <trkpt lat="44.5823" lon="6.08069">
        <ele>952.322998</ele>
        <time>2011-11-15T13:19:48Z</time>
      </trkpt>
      <trkpt lat="44.58239" lon="6.08058">
        <ele>953.765137</ele>
        <time>2011-11-15T13:19:46Z</time>
      </trkpt>
      <trkpt lat="44.58263" lon="6.08078">
        <ele>952.803711</ele>
        <time>2011-11-15T13:19:42Z</time>
      </trkpt>
      <trkpt lat="44.58289" lon="6.08144">
        <ele>954.24585</ele>
        <time>2011-11-15T13:19:36Z</time>
      </trkpt>
      <trkpt lat="44.58304" lon="6.08166">
        <ele>955.687744</ele>
        <time>2011-11-15T13:19:34Z</time>
      </trkpt>
      <trkpt lat="44.58313" lon="6.08177">
        <ele>955.687744</ele>
        <time>2011-11-15T13:19:33Z</time>
      </trkpt>
      <trkpt lat="44.58322" lon="6.08188">
        <ele>959.533203</ele>
        <time>2011-11-15T13:19:32Z</time>
      </trkpt>
      <trkpt lat="44.5833" lon="6.08199">
        <ele>959.533203</ele>
        <time>2011-11-15T13:19:31Z</time>
      </trkpt>
      <trkpt lat="44.58348" lon="6.08219">
        <ele>964.820313</ele>
        <time>2011-11-15T13:19:29Z</time>
      </trkpt>
      <trkpt lat="44.58364" lon="6.08237">
        <ele>966.74292</ele>
        <time>2011-11-15T13:19:27Z</time>
      </trkpt>
      <trkpt lat="44.58378" lon="6.08257">
        <ele>968.184814</ele>
        <time>2011-11-15T13:19:25Z</time>
      </trkpt>
      <trkpt lat="44.58383" lon="6.08266">
        <ele>968.184814</ele>
        <time>2011-11-15T13:19:24Z</time>
      </trkpt>
      <trkpt lat="44.5841" lon="6.08311">
        <ele>972.991699</ele>
        <time>2011-11-15T13:19:18Z</time>
      </trkpt>
      <trkpt lat="44.58425" lon="6.08321">
        <ele>973.472412</ele>
        <time>2011-11-15T13:19:16Z</time>
      </trkpt>
      <trkpt lat="44.58432" lon="6.08298">
        <ele>975.875488</ele>
        <time>2011-11-15T13:19:11Z</time>
      </trkpt>
      <trkpt lat="44.58419" lon="6.08276">
        <ele>976.356201</ele>
        <time>2011-11-15T13:19:08Z</time>
      </trkpt>
      <trkpt lat="44.58408" lon="6.08259">
        <ele>978.759521</ele>
        <time>2011-11-15T13:19:06Z</time>
      </trkpt>
      <trkpt lat="44.58393" lon="6.08232">
        <ele>980.682129</ele>
        <time>2011-11-15T13:19:03Z</time>
      </trkpt>
      <trkpt lat="44.5839" lon="6.08222">
        <ele>981.162842</ele>
        <time>2011-11-15T13:19:02Z</time>
      </trkpt>
      <trkpt lat="44.58387" lon="6.08214">
        <ele>981.162842</ele>
        <time>2011-11-15T13:19:01Z</time>
      </trkpt>
      <trkpt lat="44.58386" lon="6.08178">
        <ele>984.527344</ele>
        <time>2011-11-15T13:18:55Z</time>
      </trkpt>
      <trkpt lat="44.58412" lon="6.0816">
        <ele>982.124023</ele>
        <time>2011-11-15T13:18:50Z</time>
      </trkpt>
      <trkpt lat="44.58428" lon="6.0816">
        <ele>981.643311</ele>
        <time>2011-11-15T13:18:48Z</time>
      </trkpt>
      <trkpt lat="44.58455" lon="6.0816">
        <ele>984.046631</ele>
        <time>2011-11-15T13:18:45Z</time>
      </trkpt>
      <trkpt lat="44.58463" lon="6.0816">
        <ele>984.046631</ele>
        <time>2011-11-15T13:18:44Z</time>
      </trkpt>
      <trkpt lat="44.58489" lon="6.0816">
        <ele>987.411133</ele>
        <time>2011-11-15T13:18:41Z</time>
      </trkpt>
      <trkpt lat="44.58497" lon="6.08159">
        <ele>987.411133</ele>
        <time>2011-11-15T13:18:40Z</time>
      </trkpt>
      <trkpt lat="44.58528" lon="6.08157">
        <ele>991.256592</ele>
        <time>2011-11-15T13:18:36Z</time>
      </trkpt>
      <trkpt lat="44.58543" lon="6.08156">
        <ele>993.179199</ele>
        <time>2011-11-15T13:18:34Z</time>
      </trkpt>
      <trkpt lat="44.58577" lon="6.08153">
        <ele>994.621094</ele>
        <time>2011-11-15T13:18:29Z</time>
      </trkpt>
      <trkpt lat="44.58583" lon="6.08152">
        <ele>994.621094</ele>
        <time>2011-11-15T13:18:28Z</time>
      </trkpt>
      <trkpt lat="44.58628" lon="6.08146">
        <ele>997.98584</ele>
        <time>2011-11-15T13:18:18Z</time>
      </trkpt>
      <trkpt lat="44.58694" lon="6.08138">
        <ele>998.947021</ele>
        <time>2011-11-15T13:18:08Z</time>
      </trkpt>
      <trkpt lat="44.58729" lon="6.08135">
        <ele>1001.831055</ele>
        <time>2011-11-15T13:18:04Z</time>
      </trkpt>
      <trkpt lat="44.58738" lon="6.08134">
        <ele>1001.831055</ele>
        <time>2011-11-15T13:18:03Z</time>
      </trkpt>
      <trkpt lat="44.58788" lon="6.08129">
        <ele>1004.715088</ele>
        <time>2011-11-15T13:17:57Z</time>
      </trkpt>
      <trkpt lat="44.58796" lon="6.08128">
        <ele>1004.715088</ele>
        <time>2011-11-15T13:17:56Z</time>
      </trkpt>
      <trkpt lat="44.58828" lon="6.08125">
        <ele>1008.560303</ele>
        <time>2011-11-15T13:17:52Z</time>
      </trkpt>
      <trkpt lat="44.58842" lon="6.08123">
        <ele>1010.48291</ele>
        <time>2011-11-15T13:17:50Z</time>
      </trkpt>
      <trkpt lat="44.5885" lon="6.08122">
        <ele>1010.48291</ele>
        <time>2011-11-15T13:17:49Z</time>
      </trkpt>
      <trkpt lat="44.58877" lon="6.08119">
        <ele>1014.328125</ele>
        <time>2011-11-15T13:17:45Z</time>
      </trkpt>
      <trkpt lat="44.58896" lon="6.08117">
        <ele>1016.731445</ele>
        <time>2011-11-15T13:17:41Z</time>
      </trkpt>
      <trkpt lat="44.58905" lon="6.08128">
        <ele>1018.17334</ele>
        <time>2011-11-15T13:17:37Z</time>
      </trkpt>
      <trkpt lat="44.58905" lon="6.08128">
        <ele>1017.212158</ele>
        <time>2011-11-15T13:17:32Z</time>
      </trkpt>
      <trkpt lat="44.58905" lon="6.08128">
        <ele>1018.17334</ele>
        <time>2011-11-15T13:17:12Z</time>
      </trkpt>
      <trkpt lat="44.58917" lon="6.08153">
        <ele>1015.770264</ele>
        <time>2011-11-15T13:17:03Z</time>
      </trkpt>
      <trkpt lat="44.5892" lon="6.08161">
        <ele>1015.770264</ele>
        <time>2011-11-15T13:17:02Z</time>
      </trkpt>
      <trkpt lat="44.58967" lon="6.08259">
        <ele>1019.134766</ele>
        <time>2011-11-15T13:16:50Z</time>
      </trkpt>
      <trkpt lat="44.58994" lon="6.08315">
        <ele>1022.018799</ele>
        <time>2011-11-15T13:16:43Z</time>
      </trkpt>
      <trkpt lat="44.59028" lon="6.08387">
        <ele>1025.383301</ele>
        <time>2011-11-15T13:16:33Z</time>
      </trkpt>
      <trkpt lat="44.59027" lon="6.08417">
        <ele>1026.344727</ele>
        <time>2011-11-15T13:16:29Z</time>
      </trkpt>
      <trkpt lat="44.5903" lon="6.0841">
        <ele>1025.864014</ele>
        <time>2011-11-15T13:16:25Z</time>
      </trkpt>
      <trkpt lat="44.5903" lon="6.0841">
        <ele>1026.825439</ele>
        <time>2011-11-15T13:16:22Z</time>
      </trkpt>
      <trkpt lat="44.5903" lon="6.0841">
        <ele>1026.825439</ele>
        <time>2011-11-15T13:16:07Z</time>
      </trkpt>
      <trkpt lat="44.5903" lon="6.0841">
        <ele>1026.344727</ele>
        <time>2011-11-15T13:15:50Z</time>
      </trkpt>
      <trkpt lat="44.59037" lon="6.08412">
        <ele>1026.344727</ele>
        <time>2011-11-15T13:15:39Z</time>
      </trkpt>
      <trkpt lat="44.59037" lon="6.08412">
        <ele>1027.306152</ele>
        <time>2011-11-15T13:15:23Z</time>
      </trkpt>
      <trkpt lat="44.59049" lon="6.08449">
        <ele>1026.344727</ele>
        <time>2011-11-15T13:15:15Z</time>
      </trkpt>
      <trkpt lat="44.59057" lon="6.08478">
        <ele>1028.267334</ele>
        <time>2011-11-15T13:15:12Z</time>
      </trkpt>
      <trkpt lat="44.59073" lon="6.08528">
        <ele>1030.670654</ele>
        <time>2011-11-15T13:15:07Z</time>
      </trkpt>
      <trkpt lat="44.5908" lon="6.08548">
        <ele>1031.631836</ele>
        <time>2011-11-15T13:15:05Z</time>
      </trkpt>
      <trkpt lat="44.59093" lon="6.0859">
        <ele>1034.515869</ele>
        <time>2011-11-15T13:15:01Z</time>
      </trkpt>
      <trkpt lat="44.59103" lon="6.08621">
        <ele>1036.919189</ele>
        <time>2011-11-15T13:14:58Z</time>
      </trkpt>
      <trkpt lat="44.59107" lon="6.08633">
        <ele>1036.919189</ele>
        <time>2011-11-15T13:14:57Z</time>
      </trkpt>
      <trkpt lat="44.59145" lon="6.08737">
        <ele>1040.283936</ele>
        <time>2011-11-15T13:14:49Z</time>
      </trkpt>
      <trkpt lat="44.59161" lon="6.08774">
        <ele>1041.72583</ele>
        <time>2011-11-15T13:14:45Z</time>
      </trkpt>
      <trkpt lat="44.59167" lon="6.08785">
        <ele>1041.72583</ele>
        <time>2011-11-15T13:14:44Z</time>
      </trkpt>
      <trkpt lat="44.59199" lon="6.08848">
        <ele>1045.571045</ele>
        <time>2011-11-15T13:14:38Z</time>
      </trkpt>
      <trkpt lat="44.59229" lon="6.08901">
        <ele>1047.012939</ele>
        <time>2011-11-15T13:14:33Z</time>
      </trkpt>
      <trkpt lat="44.59247" lon="6.08935">
        <ele>1048.935547</ele>
        <time>2011-11-15T13:14:30Z</time>
      </trkpt>
      <trkpt lat="44.59253" lon="6.08946">
        <ele>1047.974365</ele>
        <time>2011-11-15T13:14:29Z</time>
      </trkpt>
      <trkpt lat="44.59284" lon="6.09002">
        <ele>1052.300293</ele>
        <time>2011-11-15T13:14:24Z</time>
      </trkpt>
      <trkpt lat="44.59303" lon="6.09035">
        <ele>1053.261719</ele>
        <time>2011-11-15T13:14:21Z</time>
      </trkpt>
      <trkpt lat="44.59318" lon="6.09096">
        <ele>1054.703613</ele>
        <time>2011-11-15T13:14:16Z</time>
      </trkpt>
      <trkpt lat="44.59317" lon="6.09123">
        <ele>1056.145508</ele>
        <time>2011-11-15T13:14:14Z</time>
      </trkpt>
      <trkpt lat="44.59314" lon="6.09178">
        <ele>1058.548828</ele>
        <time>2011-11-15T13:14:10Z</time>
      </trkpt>
      <trkpt lat="44.59314" lon="6.09192">
        <ele>1058.548828</ele>
        <time>2011-11-15T13:14:09Z</time>
      </trkpt>
      <trkpt lat="44.59317" lon="6.09251">
        <ele>1061.432861</ele>
        <time>2011-11-15T13:14:05Z</time>
      </trkpt>
      <trkpt lat="44.59323" lon="6.09309">
        <ele>1063.355469</ele>
        <time>2011-11-15T13:14:01Z</time>
      </trkpt>
      <trkpt lat="44.59347" lon="6.09373">
        <ele>1066.719971</ele>
        <time>2011-11-15T13:13:56Z</time>
      </trkpt>
      <trkpt lat="44.5936" lon="6.09395">
        <ele>1067.200684</ele>
        <time>2011-11-15T13:13:54Z</time>
      </trkpt>
      <trkpt lat="44.59373" lon="6.09415">
        <ele>1068.642822</ele>
        <time>2011-11-15T13:13:52Z</time>
      </trkpt>
      <trkpt lat="44.59404" lon="6.09465">
        <ele>1071.526611</ele>
        <time>2011-11-15T13:13:47Z</time>
      </trkpt>
      <trkpt lat="44.59437" lon="6.09514">
        <ele>1073.449463</ele>
        <time>2011-11-15T13:13:41Z</time>
      </trkpt>
      <trkpt lat="44.5949" lon="6.09596">
        <ele>1076.333252</ele>
        <time>2011-11-15T13:13:29Z</time>
      </trkpt>
      <trkpt lat="44.59532" lon="6.09617">
        <ele>1077.294678</ele>
        <time>2011-11-15T13:13:21Z</time>
      </trkpt>
      <trkpt lat="44.59566" lon="6.09602">
        <ele>1078.255859</ele>
        <time>2011-11-15T13:13:14Z</time>
      </trkpt>
      <trkpt lat="44.59585" lon="6.09604">
        <ele>1078.736572</ele>
        <time>2011-11-15T13:13:10Z</time>
      </trkpt>
      <trkpt lat="44.59607" lon="6.09608">
        <ele>1077.775146</ele>
        <time>2011-11-15T13:13:05Z</time>
      </trkpt>
      <trkpt lat="44.59655" lon="6.0961">
        <ele>1077.294678</ele>
        <time>2011-11-15T13:12:55Z</time>
      </trkpt>
      <trkpt lat="44.59695" lon="6.09618">
        <ele>1076.813965</ele>
        <time>2011-11-15T13:12:48Z</time>
      </trkpt>
      <trkpt lat="44.59727" lon="6.09608">
        <ele>1076.813965</ele>
        <time>2011-11-15T13:12:43Z</time>
      </trkpt>
      <trkpt lat="44.59734" lon="6.09612">
        <ele>1077.294678</ele>
        <time>2011-11-15T13:12:42Z</time>
      </trkpt>
      <trkpt lat="44.59734" lon="6.09659">
        <ele>1077.775146</ele>
        <time>2011-11-15T13:12:35Z</time>
      </trkpt>
      <trkpt lat="44.59706" lon="6.09711">
        <ele>1079.217041</ele>
        <time>2011-11-15T13:12:29Z</time>
      </trkpt>
      <trkpt lat="44.59675" lon="6.09735">
        <ele>1080.178467</ele>
        <time>2011-11-15T13:12:25Z</time>
      </trkpt>
      <trkpt lat="44.59661" lon="6.09751">
        <ele>1082.101074</ele>
        <time>2011-11-15T13:12:23Z</time>
      </trkpt>
      <trkpt lat="44.59646" lon="6.09783">
        <ele>1083.542969</ele>
        <time>2011-11-15T13:12:20Z</time>
      </trkpt>
      <trkpt lat="44.59645" lon="6.09797">
        <ele>1084.504639</ele>
        <time>2011-11-15T13:12:19Z</time>
      </trkpt>
      <trkpt lat="44.5964" lon="6.09818">
        <ele>1085.46582</ele>
        <time>2011-11-15T13:12:17Z</time>
      </trkpt>
      <trkpt lat="44.59629" lon="6.09852">
        <ele>1086.427246</ele>
        <time>2011-11-15T13:12:14Z</time>
      </trkpt>
      <trkpt lat="44.59616" lon="6.09882">
        <ele>1086.907715</ele>
        <time>2011-11-15T13:12:11Z</time>
      </trkpt>
      <trkpt lat="44.59608" lon="6.09966">
        <ele>1089.791748</ele>
        <time>2011-11-15T13:12:04Z</time>
      </trkpt>
      <trkpt lat="44.59618" lon="6.10008">
        <ele>1090.75293</ele>
        <time>2011-11-15T13:12:00Z</time>
      </trkpt>
      <trkpt lat="44.59628" lon="6.1005">
        <ele>1092.195068</ele>
        <time>2011-11-15T13:11:56Z</time>
      </trkpt>
      <trkpt lat="44.59632" lon="6.1006">
        <ele>1091.714355</ele>
        <time>2011-11-15T13:11:55Z</time>
      </trkpt>
      <trkpt lat="44.5964" lon="6.10078">
        <ele>1093.15625</ele>
        <time>2011-11-15T13:11:53Z</time>
      </trkpt>
      <trkpt lat="44.5965" lon="6.10096">
        <ele>1094.598145</ele>
        <time>2011-11-15T13:11:51Z</time>
      </trkpt>
      <trkpt lat="44.59667" lon="6.10111">
        <ele>1094.598145</ele>
        <time>2011-11-15T13:11:49Z</time>
      </trkpt>
      <trkpt lat="44.59675" lon="6.10119">
        <ele>1094.598145</ele>
        <time>2011-11-15T13:11:48Z</time>
      </trkpt>
      <trkpt lat="44.59693" lon="6.10154">
        <ele>1097.482178</ele>
        <time>2011-11-15T13:11:45Z</time>
      </trkpt>
      <trkpt lat="44.59726" lon="6.10204">
        <ele>1099.404785</ele>
        <time>2011-11-15T13:11:42Z</time>
      </trkpt>
      <trkpt lat="44.59722" lon="6.10247">
        <ele>1101.327637</ele>
        <time>2011-11-15T13:11:37Z</time>
      </trkpt>
      <trkpt lat="44.59741" lon="6.10311">
        <ele>1102.288818</ele>
        <time>2011-11-15T13:11:32Z</time>
      </trkpt>
      <trkpt lat="44.59757" lon="6.10362">
        <ele>1104.692139</ele>
        <time>2011-11-15T13:11:28Z</time>
      </trkpt>
      <trkpt lat="44.59761" lon="6.10375">
        <ele>1104.692139</ele>
        <time>2011-11-15T13:11:27Z</time>
      </trkpt>
      <trkpt lat="44.59769" lon="6.10401">
        <ele>1108.056885</ele>
        <time>2011-11-15T13:11:25Z</time>
      </trkpt>
      <trkpt lat="44.59775" lon="6.10427">
        <ele>1109.498779</ele>
        <time>2011-11-15T13:11:23Z</time>
      </trkpt>
      <trkpt lat="44.59779" lon="6.10454">
        <ele>1109.979248</ele>
        <time>2011-11-15T13:11:21Z</time>
      </trkpt>
      <trkpt lat="44.5978" lon="6.10469">
        <ele>1109.979248</ele>
        <time>2011-11-15T13:11:20Z</time>
      </trkpt>
      <trkpt lat="44.59787" lon="6.10524">
        <ele>1113.824463</ele>
        <time>2011-11-15T13:11:16Z</time>
      </trkpt>
      <trkpt lat="44.59794" lon="6.10552">
        <ele>1115.266602</ele>
        <time>2011-11-15T13:11:14Z</time>
      </trkpt>
      <trkpt lat="44.59803" lon="6.10593">
        <ele>1117.189453</ele>
        <time>2011-11-15T13:11:11Z</time>
      </trkpt>
      <trkpt lat="44.59806" lon="6.10607">
        <ele>1117.189453</ele>
        <time>2011-11-15T13:11:10Z</time>
      </trkpt>
      <trkpt lat="44.59819" lon="6.10678">
        <ele>1120.553955</ele>
        <time>2011-11-15T13:11:05Z</time>
      </trkpt>
      <trkpt lat="44.59826" lon="6.10719">
        <ele>1121.99585</ele>
        <time>2011-11-15T13:11:02Z</time>
      </trkpt>
      <trkpt lat="44.59835" lon="6.10771">
        <ele>1124.39917</ele>
        <time>2011-11-15T13:10:58Z</time>
      </trkpt>
      <trkpt lat="44.59854" lon="6.10813">
        <ele>1126.321777</ele>
        <time>2011-11-15T13:10:54Z</time>
      </trkpt>
      <trkpt lat="44.5986" lon="6.10819">
        <ele>1126.80249</ele>
        <time>2011-11-15T13:10:53Z</time>
      </trkpt>
      <trkpt lat="44.59885" lon="6.10839">
        <ele>1129.205566</ele>
        <time>2011-11-15T13:10:49Z</time>
      </trkpt>
      <trkpt lat="44.59905" lon="6.10855">
        <ele>1130.166992</ele>
        <time>2011-11-15T13:10:45Z</time>
      </trkpt>
      <trkpt lat="44.5992" lon="6.10867">
        <ele>1133.051025</ele>
        <time>2011-11-15T13:10:41Z</time>
      </trkpt>
      <trkpt lat="44.59936" lon="6.10851">
        <ele>1134.012451</ele>
        <time>2011-11-15T13:10:36Z</time>
      </trkpt>
      <trkpt lat="44.5995" lon="6.10896">
        <ele>1136.89624</ele>
        <time>2011-11-15T13:10:34Z</time>
      </trkpt>
      <trkpt lat="44.59951" lon="6.10896">
        <ele>1139.299561</ele>
        <time>2011-11-15T13:10:32Z</time>
      </trkpt>
      <trkpt lat="44.59951" lon="6.10896">
        <ele>1139.299561</ele>
        <time>2011-11-15T13:10:31Z</time>
      </trkpt>
      <trkpt lat="44.59979" lon="6.10803">
        <ele>1142.664307</ele>
        <time>2011-11-15T13:10:30Z</time>
      </trkpt>
      <trkpt lat="44.59979" lon="6.10822">
        <ele>1144.106201</ele>
        <time>2011-11-15T13:10:28Z</time>
      </trkpt>
      <trkpt lat="44.59989" lon="6.10817">
        <ele>1146.509521</ele>
        <time>2011-11-15T13:10:26Z</time>
      </trkpt>
      <trkpt lat="44.5999" lon="6.10819">
        <ele>1146.98999</ele>
        <time>2011-11-15T13:10:25Z</time>
      </trkpt>
      <trkpt lat="44.60002" lon="6.10801">
        <ele>1148.432129</ele>
        <time>2011-11-15T13:10:22Z</time>
      </trkpt>
      <trkpt lat="44.60013" lon="6.10775">
        <ele>1153.23877</ele>
        <time>2011-11-15T13:10:18Z</time>
      </trkpt>
      <trkpt lat="44.60017" lon="6.10759">
        <ele>1153.719482</ele>
        <time>2011-11-15T13:10:16Z</time>
      </trkpt>
      <trkpt lat="44.60019" lon="6.10743">
        <ele>1154.680664</ele>
        <time>2011-11-15T13:10:14Z</time>
      </trkpt>
      <trkpt lat="44.60024" lon="6.10711">
        <ele>1157.083984</ele>
        <time>2011-11-15T13:10:09Z</time>
      </trkpt>
      <trkpt lat="44.60024" lon="6.10711">
        <ele>1157.083984</ele>
        <time>2011-11-15T13:10:08Z</time>
      </trkpt>
      <trkpt lat="44.59995" lon="6.10668">
        <ele>1159.967773</ele>
        <time>2011-11-15T13:09:56Z</time>
      </trkpt>
      <trkpt lat="44.59966" lon="6.10627">
        <ele>1159.967773</ele>
        <time>2011-11-15T13:09:41Z</time>
      </trkpt>
      <trkpt lat="44.59966" lon="6.10627">
        <ele>1157.564697</ele>
        <time>2011-11-15T13:09:18Z</time>
      </trkpt>
      <trkpt lat="44.59966" lon="6.10627">
        <ele>1156.603271</ele>
        <time>2011-11-15T13:08:44Z</time>
      </trkpt>
      <trkpt lat="44.59969" lon="6.10631">
        <ele>1157.083984</ele>
        <time>2011-11-15T13:08:33Z</time>
      </trkpt>
      <trkpt lat="44.59996" lon="6.10671">
        <ele>1160.448486</ele>
        <time>2011-11-15T13:08:17Z</time>
      </trkpt>
      <trkpt lat="44.60017" lon="6.10701">
        <ele>1156.603271</ele>
        <time>2011-11-15T13:08:03Z</time>
      </trkpt>
      <trkpt lat="44.60024" lon="6.10706">
        <ele>1156.122559</ele>
        <time>2011-11-15T13:07:59Z</time>
      </trkpt>
      <trkpt lat="44.60029" lon="6.10691">
        <ele>1156.122559</ele>
        <time>2011-11-15T13:07:55Z</time>
      </trkpt>
      <trkpt lat="44.60035" lon="6.10671">
        <ele>1158.04541</ele>
        <time>2011-11-15T13:07:52Z</time>
      </trkpt>
      <trkpt lat="44.60043" lon="6.10648">
        <ele>1159.967773</ele>
        <time>2011-11-15T13:07:48Z</time>
      </trkpt>
      <trkpt lat="44.60052" lon="6.10629">
        <ele>1161.890625</ele>
        <time>2011-11-15T13:07:45Z</time>
      </trkpt>
      <trkpt lat="44.60054" lon="6.10623">
        <ele>1161.890625</ele>
        <time>2011-11-15T13:07:44Z</time>
      </trkpt>
      <trkpt lat="44.60075" lon="6.1059">
        <ele>1164.774658</ele>
        <time>2011-11-15T13:07:34Z</time>
      </trkpt>
      <trkpt lat="44.60095" lon="6.10563">
        <ele>1166.216553</ele>
        <time>2011-11-15T13:07:26Z</time>
      </trkpt>
      <trkpt lat="44.60098" lon="6.10559">
        <ele>1167.658447</ele>
        <time>2011-11-15T13:07:25Z</time>
      </trkpt>
      <trkpt lat="44.60101" lon="6.10555">
        <ele>1167.658447</ele>
        <time>2011-11-15T13:07:24Z</time>
      </trkpt>
      <trkpt lat="44.60112" lon="6.10541">
        <ele>1171.023193</ele>
        <time>2011-11-15T13:07:20Z</time>
      </trkpt>
      <trkpt lat="44.60114" lon="6.10537">
        <ele>1171.023193</ele>
        <time>2011-11-15T13:07:19Z</time>
      </trkpt>
      <trkpt lat="44.60131" lon="6.10518">
        <ele>1174.387695</ele>
        <time>2011-11-15T13:07:15Z</time>
      </trkpt>
      <trkpt lat="44.60135" lon="6.10514">
        <ele>1174.387695</ele>
        <time>2011-11-15T13:07:14Z</time>
      </trkpt>
      <trkpt lat="44.60147" lon="6.10497">
        <ele>1178.23291</ele>
        <time>2011-11-15T13:07:11Z</time>
      </trkpt>
      <trkpt lat="44.60158" lon="6.10482">
        <ele>1181.597656</ele>
        <time>2011-11-15T13:07:08Z</time>
      </trkpt>
      <trkpt lat="44.60161" lon="6.10472">
        <ele>1182.078369</ele>
        <time>2011-11-15T13:07:06Z</time>
      </trkpt>
      <trkpt lat="44.60161" lon="6.10458">
        <ele>1184.962402</ele>
        <time>2011-11-15T13:07:04Z</time>
      </trkpt>
      <trkpt lat="44.60159" lon="6.10436">
        <ele>1189.288086</ele>
        <time>2011-11-15T13:07:01Z</time>
      </trkpt>
      <trkpt lat="44.60157" lon="6.10422">
        <ele>1190.249512</ele>
        <time>2011-11-15T13:06:59Z</time>
      </trkpt>
      <trkpt lat="44.60155" lon="6.10405">
        <ele>1191.691406</ele>
        <time>2011-11-15T13:06:55Z</time>
      </trkpt>
      <trkpt lat="44.60155" lon="6.10405">
        <ele>1190.249512</ele>
        <time>2011-11-15T13:06:35Z</time>
      </trkpt>
      <trkpt lat="44.60154" lon="6.104">
        <ele>1191.210693</ele>
        <time>2011-11-15T13:06:24Z</time>
      </trkpt>
      <trkpt lat="44.60151" lon="6.10359">
        <ele>1194.094727</ele>
        <time>2011-11-15T13:06:15Z</time>
      </trkpt>
      <trkpt lat="44.60129" lon="6.10325">
        <ele>1196.498291</ele>
        <time>2011-11-15T13:06:01Z</time>
      </trkpt>
      <trkpt lat="44.60128" lon="6.10323">
        <ele>1196.97876</ele>
        <time>2011-11-15T13:05:56Z</time>
      </trkpt>
      <trkpt lat="44.60128" lon="6.1032">
        <ele>1197.940186</ele>
        <time>2011-11-15T13:05:54Z</time>
      </trkpt>
      <trkpt lat="44.60125" lon="6.1031">
        <ele>1198.901367</ele>
        <time>2011-11-15T13:05:50Z</time>
      </trkpt>
      <trkpt lat="44.60124" lon="6.10308">
        <ele>1199.862793</ele>
        <time>2011-11-15T13:05:47Z</time>
      </trkpt>
      <trkpt lat="44.60121" lon="6.10289">
        <ele>1201.7854</ele>
        <time>2011-11-15T13:05:40Z</time>
      </trkpt>
      <trkpt lat="44.60121" lon="6.10276">
        <ele>1202.265869</ele>
        <time>2011-11-15T13:05:37Z</time>
      </trkpt>
      <trkpt lat="44.60121" lon="6.10266">
        <ele>1204.669189</ele>
        <time>2011-11-15T13:05:32Z</time>
      </trkpt>
      <trkpt lat="44.60121" lon="6.10266">
        <ele>1205.149902</ele>
        <time>2011-11-15T13:05:29Z</time>
      </trkpt>
      <trkpt lat="44.60119" lon="6.10231">
        <ele>1207.553223</ele>
        <time>2011-11-15T13:05:19Z</time>
      </trkpt>
      <trkpt lat="44.60119" lon="6.10231">
        <ele>1211.398438</ele>
        <time>2011-11-15T13:05:10Z</time>
      </trkpt>
      <trkpt lat="44.60119" lon="6.10231">
        <ele>1213.801758</ele>
        <time>2011-11-15T13:05:07Z</time>
      </trkpt>
      <trkpt lat="44.60145" lon="6.10203">
        <ele>1212.840576</ele>
        <time>2011-11-15T13:05:01Z</time>
      </trkpt>
      <trkpt lat="44.60145" lon="6.10203">
        <ele>1214.282471</ele>
        <time>2011-11-15T13:04:59Z</time>
      </trkpt>
      <trkpt lat="44.60142" lon="6.10196">
        <ele>1216.685791</ele>
        <time>2011-11-15T13:04:55Z</time>
      </trkpt>
      <trkpt lat="44.60142" lon="6.10196">
        <ele>1218.127686</ele>
        <time>2011-11-15T13:04:47Z</time>
      </trkpt>
      <trkpt lat="44.60132" lon="6.10184">
        <ele>1219.569824</ele>
        <time>2011-11-15T13:04:43Z</time>
      </trkpt>
      <trkpt lat="44.60132" lon="6.10184">
        <ele>1218.608398</ele>
        <time>2011-11-15T13:04:36Z</time>
      </trkpt>
      <trkpt lat="44.60132" lon="6.10184">
        <ele>1218.608398</ele>
        <time>2011-11-15T13:04:35Z</time>
      </trkpt>
      <trkpt lat="44.60132" lon="6.10184">
        <ele>1221.9729</ele>
        <time>2011-11-15T13:04:15Z</time>
      </trkpt>
      <trkpt lat="44.60132" lon="6.10184">
        <ele>1221.9729</ele>
        <time>2011-11-15T13:04:14Z</time>
      </trkpt>
      <trkpt lat="44.60137" lon="6.10165">
        <ele>1225.337402</ele>
        <time>2011-11-15T13:04:02Z</time>
      </trkpt>
      <trkpt lat="44.60148" lon="6.10151">
        <ele>1226.298828</ele>
        <time>2011-11-15T13:03:56Z</time>
      </trkpt>
      <trkpt lat="44.60148" lon="6.10151">
        <ele>1225.818115</ele>
        <time>2011-11-15T13:03:49Z</time>
      </trkpt>
      <trkpt lat="44.60148" lon="6.10151">
        <ele>1224.376221</ele>
        <time>2011-11-15T13:03:38Z</time>
      </trkpt>
      <trkpt lat="44.60151" lon="6.10142">
        <ele>1225.818115</ele>
        <time>2011-11-15T13:03:34Z</time>
      </trkpt>
      <trkpt lat="44.60154" lon="6.10135">
        <ele>1227.740723</ele>
        <time>2011-11-15T13:03:31Z</time>
      </trkpt>
      <trkpt lat="44.60161" lon="6.10116">
        <ele>1229.663574</ele>
        <time>2011-11-15T13:03:25Z</time>
      </trkpt>
      <trkpt lat="44.60177" lon="6.10079">
        <ele>1231.586182</ele>
        <time>2011-11-15T13:03:14Z</time>
      </trkpt>
      <trkpt lat="44.60199" lon="6.10051">
        <ele>1232.066895</ele>
        <time>2011-11-15T13:03:00Z</time>
      </trkpt>
      <trkpt lat="44.60207" lon="6.10035">
        <ele>1232.547607</ele>
        <time>2011-11-15T13:02:40Z</time>
      </trkpt>
      <trkpt lat="44.60233" lon="6.10005">
        <ele>1232.066895</ele>
        <time>2011-11-15T13:02:26Z</time>
      </trkpt>
      <trkpt lat="44.60274" lon="6.09959">
        <ele>1232.066895</ele>
        <time>2011-11-15T13:02:12Z</time>
      </trkpt>
      <trkpt lat="44.60276" lon="6.09953">
        <ele>1232.066895</ele>
        <time>2011-11-15T13:02:11Z</time>
      </trkpt>
      <trkpt lat="44.60302" lon="6.09897">
        <ele>1235.431396</ele>
        <time>2011-11-15T13:01:58Z</time>
      </trkpt>
      <trkpt lat="44.60311" lon="6.09881">
        <ele>1237.354004</ele>
        <time>2011-11-15T13:01:53Z</time>
      </trkpt>
      <trkpt lat="44.60348" lon="6.09836">
        <ele>1239.276611</ele>
        <time>2011-11-15T13:01:37Z</time>
      </trkpt>
      <trkpt lat="44.6036" lon="6.09822">
        <ele>1238.31543</ele>
        <time>2011-11-15T13:01:31Z</time>
      </trkpt>
      <trkpt lat="44.60389" lon="6.09797">
        <ele>1237.834717</ele>
        <time>2011-11-15T13:01:18Z</time>
      </trkpt>
      <trkpt lat="44.60414" lon="6.0978">
        <ele>1237.834717</ele>
        <time>2011-11-15T13:01:08Z</time>
      </trkpt>
      <trkpt lat="44.60427" lon="6.09778">
        <ele>1237.354004</ele>
        <time>2011-11-15T13:01:03Z</time>
      </trkpt>
      <trkpt lat="44.6044" lon="6.09773">
        <ele>1236.392822</ele>
        <time>2011-11-15T13:00:58Z</time>
      </trkpt>
      <trkpt lat="44.60449" lon="6.09775">
        <ele>1235.912109</ele>
        <time>2011-11-15T13:00:54Z</time>
      </trkpt>
      <trkpt lat="44.60452" lon="6.09777">
        <ele>1235.431396</ele>
        <time>2011-11-15T13:00:53Z</time>
      </trkpt>
      <trkpt lat="44.60478" lon="6.09794">
        <ele>1234.950928</ele>
        <time>2011-11-15T13:00:43Z</time>
      </trkpt>
      <trkpt lat="44.6049" lon="6.09809">
        <ele>1236.392822</ele>
        <time>2011-11-15T13:00:35Z</time>
      </trkpt>
      <trkpt lat="44.60501" lon="6.09815">
        <ele>1235.912109</ele>
        <time>2011-11-15T13:00:31Z</time>
      </trkpt>
      <trkpt lat="44.60522" lon="6.09826">
        <ele>1236.873291</ele>
        <time>2011-11-15T13:00:16Z</time>
      </trkpt>
      <trkpt lat="44.60545" lon="6.09831">
        <ele>1237.834717</ele>
        <time>2011-11-15T13:00:04Z</time>
      </trkpt>
      <trkpt lat="44.60572" lon="6.09834">
        <ele>1238.31543</ele>
        <time>2011-11-15T12:59:51Z</time>
      </trkpt>
      <trkpt lat="44.60593" lon="6.09833">
        <ele>1238.796143</ele>
        <time>2011-11-15T12:59:40Z</time>
      </trkpt>
      <trkpt lat="44.60608" lon="6.09833">
        <ele>1237.834717</ele>
        <time>2011-11-15T12:59:32Z</time>
      </trkpt>
      <trkpt lat="44.60647" lon="6.09858">
        <ele>1237.834717</ele>
        <time>2011-11-15T12:59:18Z</time>
      </trkpt>
      <trkpt lat="44.60676" lon="6.09874">
        <ele>1237.834717</ele>
        <time>2011-11-15T12:59:06Z</time>
      </trkpt>
      <trkpt lat="44.60678" lon="6.09874">
        <ele>1237.834717</ele>
        <time>2011-11-15T12:58:58Z</time>
      </trkpt>
      <trkpt lat="44.60677" lon="6.09873">
        <ele>1238.31543</ele>
        <time>2011-11-15T12:58:49Z</time>
      </trkpt>
      <trkpt lat="44.60661" lon="6.09864">
        <ele>1237.834717</ele>
        <time>2011-11-15T12:58:37Z</time>
      </trkpt>
      <trkpt lat="44.60652" lon="6.09858">
        <ele>1239.757324</ele>
        <time>2011-11-15T12:58:33Z</time>
      </trkpt>
      <trkpt lat="44.60623" lon="6.09835">
        <ele>1240.238037</ele>
        <time>2011-11-15T12:58:20Z</time>
      </trkpt>
      <trkpt lat="44.60616" lon="6.0982">
        <ele>1240.718506</ele>
        <time>2011-11-15T12:58:12Z</time>
      </trkpt>
      <trkpt lat="44.60618" lon="6.09805">
        <ele>1239.757324</ele>
        <time>2011-11-15T12:58:09Z</time>
      </trkpt>
      <trkpt lat="44.60622" lon="6.09788">
        <ele>1240.718506</ele>
        <time>2011-11-15T12:58:07Z</time>
      </trkpt>
      <trkpt lat="44.60619" lon="6.09768">
        <ele>1243.602539</ele>
        <time>2011-11-15T12:58:02Z</time>
      </trkpt>
      <trkpt lat="44.60617" lon="6.09763">
        <ele>1245.044678</ele>
        <time>2011-11-15T12:58:00Z</time>
      </trkpt>
      <trkpt lat="44.60615" lon="6.09734">
        <ele>1247.928711</ele>
        <time>2011-11-15T12:57:52Z</time>
      </trkpt>
      <trkpt lat="44.60621" lon="6.09721">
        <ele>1249.370605</ele>
        <time>2011-11-15T12:57:48Z</time>
      </trkpt>
      <trkpt lat="44.6062" lon="6.09688">
        <ele>1249.851318</ele>
        <time>2011-11-15T12:57:38Z</time>
      </trkpt>
      <trkpt lat="44.60616" lon="6.09682">
        <ele>1249.370605</ele>
        <time>2011-11-15T12:57:33Z</time>
      </trkpt>
      <trkpt lat="44.60613" lon="6.09676">
        <ele>1249.370605</ele>
        <time>2011-11-15T12:57:20Z</time>
      </trkpt>
      <trkpt lat="44.60625" lon="6.0963">
        <ele>1251.293213</ele>
        <time>2011-11-15T12:57:11Z</time>
      </trkpt>
      <trkpt lat="44.60631" lon="6.09621">
        <ele>1252.735107</ele>
        <time>2011-11-15T12:57:09Z</time>
      </trkpt>
      <trkpt lat="44.60644" lon="6.09609">
        <ele>1254.177246</ele>
        <time>2011-11-15T12:57:05Z</time>
      </trkpt>
      <trkpt lat="44.60659" lon="6.09592">
        <ele>1257.061035</ele>
        <time>2011-11-15T12:56:59Z</time>
      </trkpt>
      <trkpt lat="44.60662" lon="6.09589">
        <ele>1257.061035</ele>
        <time>2011-11-15T12:56:58Z</time>
      </trkpt>
      <trkpt lat="44.60684" lon="6.09567">
        <ele>1260.906494</ele>
        <time>2011-11-15T12:56:52Z</time>
      </trkpt>
      <trkpt lat="44.60684" lon="6.09567">
        <ele>1260.425781</ele>
        <time>2011-11-15T12:56:50Z</time>
      </trkpt>
      <trkpt lat="44.60684" lon="6.09567">
        <ele>1261.86792</ele>
        <time>2011-11-15T12:56:44Z</time>
      </trkpt>
      <trkpt lat="44.60693" lon="6.09557">
        <ele>1261.387207</ele>
        <time>2011-11-15T12:56:41Z</time>
      </trkpt>
      <trkpt lat="44.607" lon="6.09548">
        <ele>1262.829102</ele>
        <time>2011-11-15T12:56:39Z</time>
      </trkpt>
      <trkpt lat="44.60703" lon="6.09543">
        <ele>1262.829102</ele>
        <time>2011-11-15T12:56:38Z</time>
      </trkpt>
      <trkpt lat="44.6072" lon="6.09527">
        <ele>1266.674316</ele>
        <time>2011-11-15T12:56:17Z</time>
      </trkpt>
      <trkpt lat="44.60725" lon="6.09521">
        <ele>1266.674316</ele>
        <time>2011-11-15T12:56:08Z</time>
      </trkpt>
      <trkpt lat="44.60731" lon="6.09512">
        <ele>1267.155029</ele>
        <time>2011-11-15T12:56:04Z</time>
      </trkpt>
      <trkpt lat="44.60729" lon="6.09507">
        <ele>1267.155029</ele>
        <time>2011-11-15T12:56:02Z</time>
      </trkpt>
      <trkpt lat="44.60716" lon="6.09479">
        <ele>1269.077637</ele>
        <time>2011-11-15T12:55:55Z</time>
      </trkpt>
      <trkpt lat="44.60703" lon="6.09442">
        <ele>1269.077637</ele>
        <time>2011-11-15T12:55:43Z</time>
      </trkpt>
      <trkpt lat="44.60688" lon="6.09394">
        <ele>1269.55835</ele>
        <time>2011-11-15T12:55:32Z</time>
      </trkpt>
      <trkpt lat="44.60672" lon="6.09335">
        <ele>1269.077637</ele>
        <time>2011-11-15T12:55:17Z</time>
      </trkpt>
      <trkpt lat="44.60664" lon="6.09298">
        <ele>1269.077637</ele>
        <time>2011-11-15T12:55:09Z</time>
      </trkpt>
      <trkpt lat="44.6066" lon="6.09253">
        <ele>1269.55835</ele>
        <time>2011-11-15T12:54:49Z</time>
      </trkpt>
      <trkpt lat="44.60659" lon="6.09191">
        <ele>1269.55835</ele>
        <time>2011-11-15T12:54:40Z</time>
      </trkpt>
      <trkpt lat="44.60654" lon="6.09116">
        <ele>1270.519531</ele>
        <time>2011-11-15T12:54:33Z</time>
      </trkpt>
      <trkpt lat="44.60649" lon="6.0906">
        <ele>1271.961426</ele>
        <time>2011-11-15T12:54:27Z</time>
      </trkpt>
      <trkpt lat="44.60648" lon="6.09041">
        <ele>1274.364746</ele>
        <time>2011-11-15T12:54:23Z</time>
      </trkpt>
      <trkpt lat="44.60647" lon="6.09039">
        <ele>1275.325928</ele>
        <time>2011-11-15T12:54:22Z</time>
      </trkpt>
      <trkpt lat="44.60647" lon="6.09027">
        <ele>1277.249023</ele>
        <time>2011-11-15T12:54:20Z</time>
      </trkpt>
      <trkpt lat="44.60643" lon="6.0898">
        <ele>1279.171387</ele>
        <time>2011-11-15T12:54:15Z</time>
      </trkpt>
      <trkpt lat="44.60643" lon="6.0898">
        <ele>1280.613525</ele>
        <time>2011-11-15T12:54:13Z</time>
      </trkpt>
      <trkpt lat="44.60643" lon="6.0898">
        <ele>1283.497314</ele>
        <time>2011-11-15T12:53:58Z</time>
      </trkpt>
      <trkpt lat="44.60633" lon="6.08957">
        <ele>1282.536133</ele>
        <time>2011-11-15T12:53:45Z</time>
      </trkpt>
      <trkpt lat="44.60633" lon="6.08957">
        <ele>1282.536133</ele>
        <time>2011-11-15T12:53:42Z</time>
      </trkpt>
      <trkpt lat="44.60628" lon="6.08946">
        <ele>1280.613525</ele>
        <time>2011-11-15T12:53:34Z</time>
      </trkpt>
      <trkpt lat="44.60618" lon="6.08927">
        <ele>1279.6521</ele>
        <time>2011-11-15T12:53:25Z</time>
      </trkpt>
      <trkpt lat="44.60602" lon="6.08887">
        <ele>1278.690918</ele>
        <time>2011-11-15T12:53:10Z</time>
      </trkpt>
      <trkpt lat="44.60602" lon="6.08887">
        <ele>1278.690918</ele>
        <time>2011-11-15T12:53:01Z</time>
      </trkpt>
      <trkpt lat="44.60598" lon="6.08877">
        <ele>1278.210205</ele>
        <time>2011-11-15T12:52:49Z</time>
      </trkpt>
      <trkpt lat="44.60574" lon="6.08822">
        <ele>1279.171387</ele>
        <time>2011-11-15T12:52:29Z</time>
      </trkpt>
      <trkpt lat="44.6056" lon="6.0878">
        <ele>1279.6521</ele>
        <time>2011-11-15T12:52:12Z</time>
      </trkpt>
      <trkpt lat="44.60561" lon="6.08721">
        <ele>1279.171387</ele>
        <time>2011-11-15T12:51:53Z</time>
      </trkpt>
      <trkpt lat="44.60573" lon="6.08661">
        <ele>1277.729492</ele>
        <time>2011-11-15T12:51:33Z</time>
      </trkpt>
      <trkpt lat="44.60576" lon="6.08649">
        <ele>1276.287598</ele>
        <time>2011-11-15T12:51:29Z</time>
      </trkpt>
      <trkpt lat="44.60584" lon="6.08626">
        <ele>1276.768311</ele>
        <time>2011-11-15T12:51:23Z</time>
      </trkpt>
      <trkpt lat="44.60569" lon="6.08593">
        <ele>1276.287598</ele>
        <time>2011-11-15T12:51:19Z</time>
      </trkpt>
      <trkpt lat="44.60575" lon="6.08593">
        <ele>1278.210205</ele>
        <time>2011-11-15T12:51:17Z</time>
      </trkpt>
      <trkpt lat="44.60616" lon="6.08572">
        <ele>1279.171387</ele>
        <time>2011-11-15T12:51:00Z</time>
      </trkpt>
      <trkpt lat="44.60624" lon="6.08566">
        <ele>1279.6521</ele>
        <time>2011-11-15T12:50:55Z</time>
      </trkpt>
      <trkpt lat="44.60624" lon="6.08566">
        <ele>1280.132813</ele>
        <time>2011-11-15T12:50:37Z</time>
      </trkpt>
      <trkpt lat="44.60622" lon="6.08567">
        <ele>1279.6521</ele>
        <time>2011-11-15T12:50:29Z</time>
      </trkpt>
      <trkpt lat="44.60596" lon="6.08586">
        <ele>1280.132813</ele>
        <time>2011-11-15T12:50:12Z</time>
      </trkpt>
      <trkpt lat="44.6058" lon="6.08593">
        <ele>1278.690918</ele>
        <time>2011-11-15T12:50:02Z</time>
      </trkpt>
      <trkpt lat="44.60576" lon="6.08593">
        <ele>1278.210205</ele>
        <time>2011-11-15T12:50:00Z</time>
      </trkpt>
      <trkpt lat="44.60572" lon="6.08593">
        <ele>1277.729492</ele>
        <time>2011-11-15T12:49:58Z</time>
      </trkpt>
      <trkpt lat="44.60549" lon="6.08566">
        <ele>1277.729492</ele>
        <time>2011-11-15T12:49:43Z</time>
      </trkpt>
      <trkpt lat="44.6054" lon="6.08559">
        <ele>1277.249023</ele>
        <time>2011-11-15T12:49:37Z</time>
      </trkpt>
      <trkpt lat="44.60531" lon="6.08562">
        <ele>1276.287598</ele>
        <time>2011-11-15T12:49:33Z</time>
      </trkpt>
      <trkpt lat="44.60521" lon="6.0857">
        <ele>1274.364746</ele>
        <time>2011-11-15T12:49:28Z</time>
      </trkpt>
      <trkpt lat="44.60501" lon="6.08584">
        <ele>1274.364746</ele>
        <time>2011-11-15T12:49:19Z</time>
      </trkpt>
      <trkpt lat="44.60457" lon="6.08611">
        <ele>1275.806641</ele>
        <time>2011-11-15T12:49:05Z</time>
      </trkpt>
      <trkpt lat="44.60448" lon="6.08614">
        <ele>1273.884033</ele>
        <time>2011-11-15T12:49:02Z</time>
      </trkpt>
      <trkpt lat="44.60422" lon="6.08628">
        <ele>1274.364746</ele>
        <time>2011-11-15T12:48:54Z</time>
      </trkpt>
      <trkpt lat="44.60415" lon="6.08652">
        <ele>1274.364746</ele>
        <time>2011-11-15T12:48:48Z</time>
      </trkpt>
      <trkpt lat="44.60404" lon="6.0869">
        <ele>1274.845459</ele>
        <time>2011-11-15T12:48:37Z</time>
      </trkpt>
      <trkpt lat="44.60402" lon="6.08698">
        <ele>1274.845459</ele>
        <time>2011-11-15T12:48:35Z</time>
      </trkpt>
      <trkpt lat="44.60377" lon="6.08723">
        <ele>1274.364746</ele>
        <time>2011-11-15T12:48:24Z</time>
      </trkpt>
      <trkpt lat="44.60377" lon="6.08723">
        <ele>1274.364746</ele>
        <time>2011-11-15T12:48:17Z</time>
      </trkpt>
      <trkpt lat="44.60374" lon="6.08726">
        <ele>1273.884033</ele>
        <time>2011-11-15T12:48:08Z</time>
      </trkpt>
      <trkpt lat="44.60374" lon="6.08726">
        <ele>1274.364746</ele>
        <time>2011-11-15T12:47:53Z</time>
      </trkpt>
      <trkpt lat="44.60355" lon="6.08747">
        <ele>1274.845459</ele>
        <time>2011-11-15T12:47:46Z</time>
      </trkpt>
      <trkpt lat="44.60349" lon="6.08752">
        <ele>1274.845459</ele>
        <time>2011-11-15T12:47:44Z</time>
      </trkpt>
      <trkpt lat="44.60321" lon="6.0878">
        <ele>1276.287598</ele>
        <time>2011-11-15T12:47:34Z</time>
      </trkpt>
      <trkpt lat="44.60321" lon="6.0878">
        <ele>1275.806641</ele>
        <time>2011-11-15T12:47:19Z</time>
      </trkpt>
      <trkpt lat="44.60321" lon="6.0878">
        <ele>1275.325928</ele>
        <time>2011-11-15T12:46:57Z</time>
      </trkpt>
      <trkpt lat="44.60326" lon="6.08774">
        <ele>1276.287598</ele>
        <time>2011-11-15T12:46:53Z</time>
      </trkpt>
      <trkpt lat="44.60334" lon="6.08762">
        <ele>1276.768311</ele>
        <time>2011-11-15T12:46:48Z</time>
      </trkpt>
      <trkpt lat="44.60352" lon="6.0875">
        <ele>1275.806641</ele>
        <time>2011-11-15T12:46:41Z</time>
      </trkpt>
      <trkpt lat="44.6036" lon="6.0874">
        <ele>1273.403564</ele>
        <time>2011-11-15T12:46:38Z</time>
      </trkpt>
      <trkpt lat="44.60383" lon="6.08718">
        <ele>1273.884033</ele>
        <time>2011-11-15T12:46:23Z</time>
      </trkpt>
      <trkpt lat="44.60383" lon="6.08718">
        <ele>1273.884033</ele>
        <time>2011-11-15T12:46:10Z</time>
      </trkpt>
      <trkpt lat="44.60403" lon="6.08694">
        <ele>1274.845459</ele>
        <time>2011-11-15T12:45:59Z</time>
      </trkpt>
      <trkpt lat="44.60414" lon="6.08656">
        <ele>1275.325928</ele>
        <time>2011-11-15T12:45:49Z</time>
      </trkpt>
      <trkpt lat="44.60422" lon="6.08631">
        <ele>1274.364746</ele>
        <time>2011-11-15T12:45:38Z</time>
      </trkpt>
      <trkpt lat="44.60424" lon="6.08625">
        <ele>1273.403564</ele>
        <time>2011-11-15T12:45:36Z</time>
      </trkpt>
      <trkpt lat="44.60451" lon="6.08613">
        <ele>1275.325928</ele>
        <time>2011-11-15T12:45:29Z</time>
      </trkpt>
      <trkpt lat="44.60456" lon="6.08611">
        <ele>1273.884033</ele>
        <time>2011-11-15T12:45:27Z</time>
      </trkpt>
      <trkpt lat="44.60474" lon="6.08602">
        <ele>1275.806641</ele>
        <time>2011-11-15T12:45:21Z</time>
      </trkpt>
      <trkpt lat="44.60509" lon="6.08579">
        <ele>1273.403564</ele>
        <time>2011-11-15T12:45:09Z</time>
      </trkpt>
      <trkpt lat="44.60522" lon="6.08569">
        <ele>1274.845459</ele>
        <time>2011-11-15T12:45:04Z</time>
      </trkpt>
      <trkpt lat="44.60526" lon="6.08566">
        <ele>1274.845459</ele>
        <time>2011-11-15T12:45:03Z</time>
      </trkpt>
      <trkpt lat="44.60561" lon="6.08582">
        <ele>1277.249023</ele>
        <time>2011-11-15T12:44:52Z</time>
      </trkpt>
      <trkpt lat="44.60592" lon="6.08598">
        <ele>1278.210205</ele>
        <time>2011-11-15T12:44:43Z</time>
      </trkpt>
      <trkpt lat="44.60596" lon="6.08586">
        <ele>1278.690918</ele>
        <time>2011-11-15T12:44:39Z</time>
      </trkpt>
      <trkpt lat="44.60609" lon="6.08576">
        <ele>1281.574707</ele>
        <time>2011-11-15T12:44:34Z</time>
      </trkpt>
      <trkpt lat="44.60617" lon="6.08571">
        <ele>1282.536133</ele>
        <time>2011-11-15T12:44:29Z</time>
      </trkpt>
      <trkpt lat="44.60623" lon="6.08567">
        <ele>1280.132813</ele>
        <time>2011-11-15T12:44:25Z</time>
      </trkpt>
      <trkpt lat="44.60628" lon="6.08563">
        <ele>1281.094238</ele>
        <time>2011-11-15T12:44:22Z</time>
      </trkpt>
      <trkpt lat="44.60643" lon="6.08555">
        <ele>1280.132813</ele>
        <time>2011-11-15T12:44:15Z</time>
      </trkpt>
      <trkpt lat="44.60657" lon="6.08551">
        <ele>1280.132813</ele>
        <time>2011-11-15T12:44:08Z</time>
      </trkpt>
      <trkpt lat="44.60659" lon="6.08551">
        <ele>1280.132813</ele>
        <time>2011-11-15T12:44:07Z</time>
      </trkpt>
      <trkpt lat="44.60674" lon="6.08545">
        <ele>1276.768311</ele>
        <time>2011-11-15T12:44:00Z</time>
      </trkpt>
      <trkpt lat="44.60707" lon="6.08528">
        <ele>1274.845459</ele>
        <time>2011-11-15T12:43:49Z</time>
      </trkpt>
      <trkpt lat="44.60719" lon="6.08517">
        <ele>1274.845459</ele>
        <time>2011-11-15T12:43:46Z</time>
      </trkpt>
      <trkpt lat="44.60746" lon="6.08497">
        <ele>1275.806641</ele>
        <time>2011-11-15T12:43:40Z</time>
      </trkpt>
      <trkpt lat="44.60778" lon="6.0848">
        <ele>1276.768311</ele>
        <time>2011-11-15T12:43:33Z</time>
      </trkpt>
      <trkpt lat="44.60811" lon="6.08464">
        <ele>1278.210205</ele>
        <time>2011-11-15T12:43:26Z</time>
      </trkpt>
      <trkpt lat="44.60824" lon="6.08459">
        <ele>1279.171387</ele>
        <time>2011-11-15T12:43:23Z</time>
      </trkpt>
      <trkpt lat="44.60833" lon="6.08456">
        <ele>1279.171387</ele>
        <time>2011-11-15T12:43:21Z</time>
      </trkpt>
      <trkpt lat="44.60885" lon="6.08438">
        <ele>1282.536133</ele>
        <time>2011-11-15T12:43:08Z</time>
      </trkpt>
      <trkpt lat="44.60917" lon="6.08425">
        <ele>1283.016602</ele>
        <time>2011-11-15T12:42:52Z</time>
      </trkpt>
      <trkpt lat="44.60938" lon="6.08399">
        <ele>1283.016602</ele>
        <time>2011-11-15T12:42:36Z</time>
      </trkpt>
      <trkpt lat="44.60953" lon="6.08376">
        <ele>1282.05542</ele>
        <time>2011-11-15T12:42:21Z</time>
      </trkpt>
      <trkpt lat="44.60972" lon="6.08358">
        <ele>1280.132813</ele>
        <time>2011-11-15T12:42:06Z</time>
      </trkpt>
      <trkpt lat="44.60997" lon="6.0834">
        <ele>1278.210205</ele>
        <time>2011-11-15T12:41:46Z</time>
      </trkpt>
      <trkpt lat="44.60998" lon="6.08339">
        <ele>1277.249023</ele>
        <time>2011-11-15T12:41:45Z</time>
      </trkpt>
      <trkpt lat="44.61021" lon="6.08319">
        <ele>1275.806641</ele>
        <time>2011-11-15T12:41:25Z</time>
      </trkpt>
      <trkpt lat="44.61034" lon="6.08308">
        <ele>1273.884033</ele>
        <time>2011-11-15T12:41:14Z</time>
      </trkpt>
      <trkpt lat="44.61039" lon="6.08304">
        <ele>1273.403564</ele>
        <time>2011-11-15T12:41:11Z</time>
      </trkpt>
      <trkpt lat="44.61046" lon="6.08292">
        <ele>1271.000244</ele>
        <time>2011-11-15T12:40:59Z</time>
      </trkpt>
      <trkpt lat="44.61046" lon="6.0829">
        <ele>1270.519531</ele>
        <time>2011-11-15T12:40:57Z</time>
      </trkpt>
      <trkpt lat="44.61023" lon="6.08268">
        <ele>1269.077637</ele>
        <time>2011-11-15T12:40:40Z</time>
      </trkpt>
      <trkpt lat="44.61022" lon="6.08267">
        <ele>1268.116211</ele>
        <time>2011-11-15T12:40:32Z</time>
      </trkpt>
      <trkpt lat="44.61018" lon="6.08263">
        <ele>1267.635498</ele>
        <time>2011-11-15T12:40:28Z</time>
      </trkpt>
      <trkpt lat="44.61004" lon="6.08249">
        <ele>1266.193604</ele>
        <time>2011-11-15T12:40:13Z</time>
      </trkpt>
      <trkpt lat="44.60994" lon="6.08239">
        <ele>1264.751709</ele>
        <time>2011-11-15T12:40:06Z</time>
      </trkpt>
      <trkpt lat="44.60972" lon="6.08219">
        <ele>1264.270996</ele>
        <time>2011-11-15T12:39:59Z</time>
      </trkpt>
      <trkpt lat="44.60967" lon="6.08214">
        <ele>1262.348389</ele>
        <time>2011-11-15T12:39:44Z</time>
      </trkpt>
      <trkpt lat="44.60966" lon="6.08213">
        <ele>1262.348389</ele>
        <time>2011-11-15T12:39:41Z</time>
      </trkpt>
      <trkpt lat="44.60934" lon="6.0819">
        <ele>1258.983643</ele>
        <time>2011-11-15T12:39:26Z</time>
      </trkpt>
      <trkpt lat="44.60923" lon="6.08185">
        <ele>1256.099609</ele>
        <time>2011-11-15T12:39:09Z</time>
      </trkpt>
      <trkpt lat="44.60909" lon="6.08174">
        <ele>1256.580322</ele>
        <time>2011-11-15T12:39:03Z</time>
      </trkpt>
      <trkpt lat="44.60909" lon="6.08174">
        <ele>1254.657715</ele>
        <time>2011-11-15T12:39:00Z</time>
      </trkpt>
      <trkpt lat="44.60909" lon="6.08174">
        <ele>1253.696533</ele>
        <time>2011-11-15T12:38:57Z</time>
      </trkpt>
      <trkpt lat="44.60909" lon="6.08174">
        <ele>1252.735107</ele>
        <time>2011-11-15T12:38:54Z</time>
      </trkpt>
      <trkpt lat="44.60884" lon="6.08142">
        <ele>1251.293213</ele>
        <time>2011-11-15T12:38:39Z</time>
      </trkpt>
      <trkpt lat="44.60884" lon="6.08142">
        <ele>1250.8125</ele>
        <time>2011-11-15T12:38:32Z</time>
      </trkpt>
      <trkpt lat="44.60884" lon="6.08142">
        <ele>1250.8125</ele>
        <time>2011-11-15T12:38:21Z</time>
      </trkpt>
      <trkpt lat="44.60884" lon="6.08142">
        <ele>1250.8125</ele>
        <time>2011-11-15T12:38:08Z</time>
      </trkpt>
      <trkpt lat="44.60882" lon="6.08138">
        <ele>1250.332031</ele>
        <time>2011-11-15T12:38:05Z</time>
      </trkpt>
      <trkpt lat="44.60889" lon="6.08122">
        <ele>1248.40918</ele>
        <time>2011-11-15T12:38:00Z</time>
      </trkpt>
      <trkpt lat="44.60889" lon="6.08122">
        <ele>1247.928711</ele>
        <time>2011-11-15T12:37:55Z</time>
      </trkpt>
      <trkpt lat="44.60889" lon="6.08122">
        <ele>1247.928711</ele>
        <time>2011-11-15T12:37:21Z</time>
      </trkpt>
      <trkpt lat="44.60913" lon="6.08125">
        <ele>1246.006104</ele>
        <time>2011-11-15T12:37:10Z</time>
      </trkpt>
      <trkpt lat="44.60944" lon="6.08125">
        <ele>1248.889893</ele>
        <time>2011-11-15T12:36:57Z</time>
      </trkpt>
      <trkpt lat="44.60952" lon="6.08125">
        <ele>1247.447998</ele>
        <time>2011-11-15T12:36:53Z</time>
      </trkpt>
      <trkpt lat="44.60959" lon="6.08125">
        <ele>1248.40918</ele>
        <time>2011-11-15T12:36:51Z</time>
      </trkpt>
      <trkpt lat="44.60966" lon="6.08126">
        <ele>1246.967285</ele>
        <time>2011-11-15T12:36:49Z</time>
      </trkpt>
      <trkpt lat="44.60983" lon="6.08128">
        <ele>1248.889893</ele>
        <time>2011-11-15T12:36:44Z</time>
      </trkpt>
      <trkpt lat="44.6102" lon="6.08123">
        <ele>1246.486816</ele>
        <time>2011-11-15T12:36:36Z</time>
      </trkpt>
      <trkpt lat="44.61062" lon="6.0813">
        <ele>1247.928711</ele>
        <time>2011-11-15T12:36:25Z</time>
      </trkpt>
      <trkpt lat="44.61069" lon="6.0813">
        <ele>1249.851318</ele>
        <time>2011-11-15T12:36:23Z</time>
      </trkpt>
      <trkpt lat="44.61091" lon="6.0813">
        <ele>1247.928711</ele>
        <time>2011-11-15T12:36:16Z</time>
      </trkpt>
      <trkpt lat="44.61103" lon="6.0813">
        <ele>1246.486816</ele>
        <time>2011-11-15T12:36:14Z</time>
      </trkpt>
      <trkpt lat="44.61147" lon="6.08125">
        <ele>1248.889893</ele>
        <time>2011-11-15T12:36:05Z</time>
      </trkpt>
      <trkpt lat="44.61192" lon="6.08121">
        <ele>1247.447998</ele>
        <time>2011-11-15T12:35:55Z</time>
      </trkpt>
      <trkpt lat="44.61197" lon="6.08121">
        <ele>1248.889893</ele>
        <time>2011-11-15T12:35:53Z</time>
      </trkpt>
      <trkpt lat="44.61246" lon="6.08126">
        <ele>1249.851318</ele>
        <time>2011-11-15T12:35:41Z</time>
      </trkpt>
      <trkpt lat="44.61265" lon="6.08129">
        <ele>1251.293213</ele>
        <time>2011-11-15T12:35:37Z</time>
      </trkpt>
      <trkpt lat="44.61332" lon="6.08139">
        <ele>1253.696533</ele>
        <time>2011-11-15T12:35:24Z</time>
      </trkpt>
      <trkpt lat="44.61349" lon="6.08143">
        <ele>1253.21582</ele>
        <time>2011-11-15T12:35:21Z</time>
      </trkpt>
      <trkpt lat="44.6141" lon="6.08187">
        <ele>1255.138428</ele>
        <time>2011-11-15T12:35:11Z</time>
      </trkpt>
      <trkpt lat="44.61416" lon="6.08192">
        <ele>1257.541748</ele>
        <time>2011-11-15T12:35:09Z</time>
      </trkpt>
      <trkpt lat="44.61421" lon="6.08196">
        <ele>1258.50293</ele>
        <time>2011-11-15T12:35:07Z</time>
      </trkpt>
      <trkpt lat="44.61443" lon="6.08196">
        <ele>1258.983643</ele>
        <time>2011-11-15T12:34:59Z</time>
      </trkpt>
      <trkpt lat="44.6149" lon="6.08203">
        <ele>1259.464355</ele>
        <time>2011-11-15T12:34:44Z</time>
      </trkpt>
      <trkpt lat="44.61518" lon="6.08208">
        <ele>1259.944824</ele>
        <time>2011-11-15T12:34:31Z</time>
      </trkpt>
      <trkpt lat="44.61551" lon="6.08229">
        <ele>1259.944824</ele>
        <time>2011-11-15T12:34:18Z</time>
      </trkpt>
      <trkpt lat="44.6157" lon="6.08247">
        <ele>1259.944824</ele>
        <time>2011-11-15T12:34:06Z</time>
      </trkpt>
      <trkpt lat="44.61591" lon="6.08265">
        <ele>1259.944824</ele>
        <time>2011-11-15T12:33:52Z</time>
      </trkpt>
      <trkpt lat="44.61594" lon="6.08252">
        <ele>1258.50293</ele>
        <time>2011-11-15T12:33:50Z</time>
      </trkpt>
      <trkpt lat="44.61594" lon="6.08252">
        <ele>1258.50293</ele>
        <time>2011-11-15T12:33:44Z</time>
      </trkpt>
      <trkpt lat="44.61594" lon="6.08252">
        <ele>1258.50293</ele>
        <time>2011-11-15T12:33:43Z</time>
      </trkpt>
      <trkpt lat="44.61601" lon="6.08223">
        <ele>1257.061035</ele>
        <time>2011-11-15T12:33:30Z</time>
      </trkpt>
      <trkpt lat="44.61609" lon="6.0817">
        <ele>1256.099609</ele>
        <time>2011-11-15T12:33:16Z</time>
      </trkpt>
      <trkpt lat="44.61609" lon="6.0817">
        <ele>1257.541748</ele>
        <time>2011-11-15T12:33:02Z</time>
      </trkpt>
      <trkpt lat="44.61609" lon="6.0817">
        <ele>1256.099609</ele>
        <time>2011-11-15T12:32:59Z</time>
      </trkpt>
      <trkpt lat="44.61609" lon="6.0817">
        <ele>1257.061035</ele>
        <time>2011-11-15T12:32:45Z</time>
      </trkpt>
      <trkpt lat="44.6161" lon="6.0816">
        <ele>1254.657715</ele>
        <time>2011-11-15T12:32:36Z</time>
      </trkpt>
      <trkpt lat="44.61618" lon="6.08151">
        <ele>1253.696533</ele>
        <time>2011-11-15T12:32:32Z</time>
      </trkpt>
      <trkpt lat="44.61618" lon="6.08151">
        <ele>1253.696533</ele>
        <time>2011-11-15T12:32:06Z</time>
      </trkpt>
      <trkpt lat="44.61618" lon="6.08151">
        <ele>1255.138428</ele>
        <time>2011-11-15T12:32:02Z</time>
      </trkpt>
      <trkpt lat="44.61623" lon="6.08152">
        <ele>1254.177246</ele>
        <time>2011-11-15T12:31:52Z</time>
      </trkpt>
      <trkpt lat="44.61644" lon="6.08155">
        <ele>1254.657715</ele>
        <time>2011-11-15T12:31:44Z</time>
      </trkpt>
      <trkpt lat="44.61701" lon="6.08165">
        <ele>1254.657715</ele>
        <time>2011-11-15T12:31:24Z</time>
      </trkpt>
      <trkpt lat="44.61736" lon="6.08154">
        <ele>1253.21582</ele>
        <time>2011-11-15T12:31:10Z</time>
      </trkpt>
      <trkpt lat="44.61736" lon="6.08154">
        <ele>1254.177246</ele>
        <time>2011-11-15T12:30:56Z</time>
      </trkpt>
      <trkpt lat="44.61739" lon="6.08149">
        <ele>1253.21582</ele>
        <time>2011-11-15T12:30:47Z</time>
      </trkpt>
      <trkpt lat="44.61742" lon="6.08142">
        <ele>1253.21582</ele>
        <time>2011-11-15T12:30:46Z</time>
      </trkpt>
      <trkpt lat="44.61769" lon="6.08072">
        <ele>1250.8125</ele>
        <time>2011-11-15T12:30:36Z</time>
      </trkpt>
      <trkpt lat="44.61784" lon="6.08032">
        <ele>1251.773926</ele>
        <time>2011-11-15T12:30:31Z</time>
      </trkpt>
      <trkpt lat="44.61789" lon="6.08017">
        <ele>1253.21582</ele>
        <time>2011-11-15T12:30:29Z</time>
      </trkpt>
      <trkpt lat="44.61799" lon="6.07989">
        <ele>1255.619141</ele>
        <time>2011-11-15T12:30:25Z</time>
      </trkpt>
      <trkpt lat="44.61797" lon="6.07947">
        <ele>1256.580322</ele>
        <time>2011-11-15T12:30:20Z</time>
      </trkpt>
      <trkpt lat="44.61741" lon="6.07879">
        <ele>1257.541748</ele>
        <time>2011-11-15T12:30:10Z</time>
      </trkpt>
      <trkpt lat="44.61719" lon="6.07836">
        <ele>1257.541748</ele>
        <time>2011-11-15T12:30:05Z</time>
      </trkpt>
      <trkpt lat="44.61699" lon="6.07801">
        <ele>1258.983643</ele>
        <time>2011-11-15T12:30:01Z</time>
      </trkpt>
      <trkpt lat="44.61688" lon="6.07784">
        <ele>1259.464355</ele>
        <time>2011-11-15T12:29:59Z</time>
      </trkpt>
      <trkpt lat="44.61675" lon="6.0776">
        <ele>1261.387207</ele>
        <time>2011-11-15T12:29:56Z</time>
      </trkpt>
      <trkpt lat="44.61668" lon="6.0774">
        <ele>1262.829102</ele>
        <time>2011-11-15T12:29:54Z</time>
      </trkpt>
      <trkpt lat="44.61665" lon="6.07716">
        <ele>1264.270996</ele>
        <time>2011-11-15T12:29:52Z</time>
      </trkpt>
      <trkpt lat="44.61664" lon="6.07679">
        <ele>1267.155029</ele>
        <time>2011-11-15T12:29:49Z</time>
      </trkpt>
      <trkpt lat="44.61664" lon="6.07653">
        <ele>1269.55835</ele>
        <time>2011-11-15T12:29:47Z</time>
      </trkpt>
      <trkpt lat="44.61662" lon="6.07624">
        <ele>1271.480713</ele>
        <time>2011-11-15T12:29:45Z</time>
      </trkpt>
      <trkpt lat="44.6166" lon="6.07609">
        <ele>1271.480713</ele>
        <time>2011-11-15T12:29:44Z</time>
      </trkpt>
      <trkpt lat="44.61651" lon="6.07554">
        <ele>1276.768311</ele>
        <time>2011-11-15T12:29:40Z</time>
      </trkpt>
      <trkpt lat="44.61647" lon="6.07529">
        <ele>1278.210205</ele>
        <time>2011-11-15T12:29:38Z</time>
      </trkpt>
      <trkpt lat="44.61644" lon="6.07507">
        <ele>1279.6521</ele>
        <time>2011-11-15T12:29:36Z</time>
      </trkpt>
      <trkpt lat="44.61638" lon="6.07489">
        <ele>1281.094238</ele>
        <time>2011-11-15T12:29:34Z</time>
      </trkpt>
      <trkpt lat="44.61638" lon="6.07481">
        <ele>1282.05542</ele>
        <time>2011-11-15T12:29:33Z</time>
      </trkpt>
      <trkpt lat="44.61639" lon="6.07469">
        <ele>1283.497314</ele>
        <time>2011-11-15T12:29:30Z</time>
      </trkpt>
      <trkpt lat="44.61641" lon="6.07465">
        <ele>1284.45874</ele>
        <time>2011-11-15T12:29:29Z</time>
      </trkpt>
      <trkpt lat="44.61649" lon="6.07454">
        <ele>1285.900635</ele>
        <time>2011-11-15T12:29:27Z</time>
      </trkpt>
      <trkpt lat="44.61653" lon="6.07449">
        <ele>1286.381348</ele>
        <time>2011-11-15T12:29:26Z</time>
      </trkpt>
      <trkpt lat="44.61679" lon="6.07426">
        <ele>1287.823242</ele>
        <time>2011-11-15T12:29:21Z</time>
      </trkpt>
      <trkpt lat="44.61683" lon="6.07431">
        <ele>1289.74585</ele>
        <time>2011-11-15T12:29:19Z</time>
      </trkpt>
      <trkpt lat="44.61698" lon="6.07454">
        <ele>1292.149414</ele>
        <time>2011-11-15T12:29:15Z</time>
      </trkpt>
      <trkpt lat="44.61707" lon="6.07469">
        <ele>1293.110596</ele>
        <time>2011-11-15T12:29:13Z</time>
      </trkpt>
      <trkpt lat="44.6171" lon="6.07478">
        <ele>1295.033203</ele>
        <time>2011-11-15T12:29:12Z</time>
      </trkpt>
      <trkpt lat="44.61723" lon="6.07508">
        <ele>1298.878418</ele>
        <time>2011-11-15T12:29:08Z</time>
      </trkpt>
      <trkpt lat="44.61735" lon="6.07528">
        <ele>1300.320557</ele>
        <time>2011-11-15T12:29:05Z</time>
      </trkpt>
      <trkpt lat="44.61749" lon="6.07517">
        <ele>1302.723633</ele>
        <time>2011-11-15T12:29:01Z</time>
      </trkpt>
      <trkpt lat="44.61749" lon="6.075">
        <ele>1303.685059</ele>
        <time>2011-11-15T12:28:58Z</time>
      </trkpt>
      <trkpt lat="44.61747" lon="6.07478">
        <ele>1305.126953</ele>
        <time>2011-11-15T12:28:55Z</time>
      </trkpt>
      <trkpt lat="44.61749" lon="6.07447">
        <ele>1307.530273</ele>
        <time>2011-11-15T12:28:52Z</time>
      </trkpt>
      <trkpt lat="44.6175" lon="6.07432">
        <ele>1308.972412</ele>
        <time>2011-11-15T12:28:50Z</time>
      </trkpt>
      <trkpt lat="44.61749" lon="6.07423">
        <ele>1310.89502</ele>
        <time>2011-11-15T12:28:49Z</time>
      </trkpt>
      <trkpt lat="44.61748" lon="6.07412">
        <ele>1310.89502</ele>
        <time>2011-11-15T12:28:48Z</time>
      </trkpt>
      <trkpt lat="44.61747" lon="6.07375">
        <ele>1314.259521</ele>
        <time>2011-11-15T12:28:45Z</time>
      </trkpt>
      <trkpt lat="44.61746" lon="6.0734">
        <ele>1317.143555</ele>
        <time>2011-11-15T12:28:42Z</time>
      </trkpt>
      <trkpt lat="44.6174" lon="6.07314">
        <ele>1318.104736</ele>
        <time>2011-11-15T12:28:40Z</time>
      </trkpt>
      <trkpt lat="44.61731" lon="6.07299">
        <ele>1319.066162</ele>
        <time>2011-11-15T12:28:38Z</time>
      </trkpt>
      <trkpt lat="44.61728" lon="6.07293">
        <ele>1319.066162</ele>
        <time>2011-11-15T12:28:37Z</time>
      </trkpt>
      <trkpt lat="44.6172" lon="6.07277">
        <ele>1322.911377</ele>
        <time>2011-11-15T12:28:34Z</time>
      </trkpt>
      <trkpt lat="44.61722" lon="6.07248">
        <ele>1324.834229</ele>
        <time>2011-11-15T12:28:30Z</time>
      </trkpt>
      <trkpt lat="44.61749" lon="6.07237">
        <ele>1328.679443</ele>
        <time>2011-11-15T12:28:26Z</time>
      </trkpt>
      <trkpt lat="44.61773" lon="6.07229">
        <ele>1330.121338</ele>
        <time>2011-11-15T12:28:24Z</time>
      </trkpt>
      <trkpt lat="44.6179" lon="6.07235">
        <ele>1332.524658</ele>
        <time>2011-11-15T12:28:21Z</time>
      </trkpt>
      <trkpt lat="44.61796" lon="6.0724">
        <ele>1334.447266</ele>
        <time>2011-11-15T12:28:19Z</time>
      </trkpt>
      <trkpt lat="44.61812" lon="6.07255">
        <ele>1336.369873</ele>
        <time>2011-11-15T12:28:17Z</time>
      </trkpt>
      <trkpt lat="44.61846" lon="6.07264">
        <ele>1336.850342</ele>
        <time>2011-11-15T12:28:15Z</time>
      </trkpt>
      <trkpt lat="44.61875" lon="6.07248">
        <ele>1338.29248</ele>
        <time>2011-11-15T12:28:13Z</time>
      </trkpt>
      <trkpt lat="44.61898" lon="6.07222">
        <ele>1339.734375</ele>
        <time>2011-11-15T12:28:10Z</time>
      </trkpt>
      <trkpt lat="44.61904" lon="6.07212">
        <ele>1341.657227</ele>
        <time>2011-11-15T12:28:08Z</time>
      </trkpt>
      <trkpt lat="44.61912" lon="6.07195">
        <ele>1343.099121</ele>
        <time>2011-11-15T12:28:06Z</time>
      </trkpt>
      <trkpt lat="44.61922" lon="6.07169">
        <ele>1345.502441</ele>
        <time>2011-11-15T12:28:03Z</time>
      </trkpt>
      <trkpt lat="44.61926" lon="6.07158">
        <ele>1347.425049</ele>
        <time>2011-11-15T12:28:01Z</time>
      </trkpt>
      <trkpt lat="44.61932" lon="6.07142">
        <ele>1349.347656</ele>
        <time>2011-11-15T12:27:58Z</time>
      </trkpt>
      <trkpt lat="44.61938" lon="6.07127">
        <ele>1351.750977</ele>
        <time>2011-11-15T12:27:53Z</time>
      </trkpt>
      <trkpt lat="44.61939" lon="6.07123">
        <ele>1355.596191</ele>
        <time>2011-11-15T12:27:51Z</time>
      </trkpt>
      <trkpt lat="44.61946" lon="6.07105">
        <ele>1357.03833</ele>
        <time>2011-11-15T12:27:48Z</time>
      </trkpt>
      <trkpt lat="44.61949" lon="6.07097">
        <ele>1358.960938</ele>
        <time>2011-11-15T12:27:47Z</time>
      </trkpt>
      <trkpt lat="44.61964" lon="6.07068">
        <ele>1361.364258</ele>
        <time>2011-11-15T12:27:43Z</time>
      </trkpt>
      <trkpt lat="44.61967" lon="6.07059">
        <ele>1362.325439</ele>
        <time>2011-11-15T12:27:42Z</time>
      </trkpt>
      <trkpt lat="44.61966" lon="6.07037">
        <ele>1363.767334</ele>
        <time>2011-11-15T12:27:39Z</time>
      </trkpt>
      <trkpt lat="44.61961" lon="6.07025">
        <ele>1365.690186</ele>
        <time>2011-11-15T12:27:37Z</time>
      </trkpt>
      <trkpt lat="44.61954" lon="6.07018">
        <ele>1367.612549</ele>
        <time>2011-11-15T12:27:35Z</time>
      </trkpt>
      <trkpt lat="44.6192" lon="6.07008">
        <ele>1371.938477</ele>
        <time>2011-11-15T12:27:30Z</time>
      </trkpt>
      <trkpt lat="44.61903" lon="6.07005">
        <ele>1372.900146</ele>
        <time>2011-11-15T12:27:28Z</time>
      </trkpt>
      <trkpt lat="44.61884" lon="6.06985">
        <ele>1375.783936</ele>
        <time>2011-11-15T12:27:24Z</time>
      </trkpt>
      <trkpt lat="44.61888" lon="6.06967">
        <ele>1377.706543</ele>
        <time>2011-11-15T12:27:21Z</time>
      </trkpt>
      <trkpt lat="44.61896" lon="6.06969">
        <ele>1379.148438</ele>
        <time>2011-11-15T12:27:19Z</time>
      </trkpt>
      <trkpt lat="44.61904" lon="6.06973">
        <ele>1380.590576</ele>
        <time>2011-11-15T12:27:17Z</time>
      </trkpt>
      <trkpt lat="44.61921" lon="6.06969">
        <ele>1382.993652</ele>
        <time>2011-11-15T12:27:14Z</time>
      </trkpt>
      <trkpt lat="44.61946" lon="6.06949">
        <ele>1384.435791</ele>
        <time>2011-11-15T12:27:10Z</time>
      </trkpt>
      <trkpt lat="44.61958" lon="6.0694">
        <ele>1386.838867</ele>
        <time>2011-11-15T12:27:07Z</time>
      </trkpt>
      <trkpt lat="44.61969" lon="6.0693">
        <ele>1388.28125</ele>
        <time>2011-11-15T12:27:04Z</time>
      </trkpt>
      <trkpt lat="44.61981" lon="6.0692">
        <ele>1390.203857</ele>
        <time>2011-11-15T12:27:02Z</time>
      </trkpt>
      <trkpt lat="44.61996" lon="6.06907">
        <ele>1392.607178</ele>
        <time>2011-11-15T12:27:00Z</time>
      </trkpt>
      <trkpt lat="44.6201" lon="6.06909">
        <ele>1394.529541</ele>
        <time>2011-11-15T12:26:58Z</time>
      </trkpt>
      <trkpt lat="44.62024" lon="6.06913">
        <ele>1395.490967</ele>
        <time>2011-11-15T12:26:56Z</time>
      </trkpt>
      <trkpt lat="44.62043" lon="6.06911">
        <ele>1397.894287</ele>
        <time>2011-11-15T12:26:53Z</time>
      </trkpt>
      <trkpt lat="44.62063" lon="6.069">
        <ele>1399.816895</ele>
        <time>2011-11-15T12:26:49Z</time>
      </trkpt>
      <trkpt lat="44.62067" lon="6.06889">
        <ele>1401.739502</ele>
        <time>2011-11-15T12:26:46Z</time>
      </trkpt>
      <trkpt lat="44.62062" lon="6.06861">
        <ele>1404.623535</ele>
        <time>2011-11-15T12:26:42Z</time>
      </trkpt>
      <trkpt lat="44.62059" lon="6.06841">
        <ele>1406.546143</ele>
        <time>2011-11-15T12:26:40Z</time>
      </trkpt>
      <trkpt lat="44.62051" lon="6.0681">
        <ele>1408.949463</ele>
        <time>2011-11-15T12:26:37Z</time>
      </trkpt>
      <trkpt lat="44.62044" lon="6.06789">
        <ele>1410.87207</ele>
        <time>2011-11-15T12:26:35Z</time>
      </trkpt>
      <trkpt lat="44.62029" lon="6.06765">
        <ele>1412.313965</ele>
        <time>2011-11-15T12:26:32Z</time>
      </trkpt>
      <trkpt lat="44.62021" lon="6.06748">
        <ele>1415.197998</ele>
        <time>2011-11-15T12:26:30Z</time>
      </trkpt>
      <trkpt lat="44.62013" lon="6.06719">
        <ele>1416.639893</ele>
        <time>2011-11-15T12:26:27Z</time>
      </trkpt>
      <trkpt lat="44.62003" lon="6.06694">
        <ele>1418.5625</ele>
        <time>2011-11-15T12:26:23Z</time>
      </trkpt>
      <trkpt lat="44.61998" lon="6.06688">
        <ele>1419.523926</ele>
        <time>2011-11-15T12:26:21Z</time>
      </trkpt>
      <trkpt lat="44.61991" lon="6.0668">
        <ele>1421.446533</ele>
        <time>2011-11-15T12:26:19Z</time>
      </trkpt>
      <trkpt lat="44.61978" lon="6.06671">
        <ele>1423.369385</ele>
        <time>2011-11-15T12:26:17Z</time>
      </trkpt>
      <trkpt lat="44.6197" lon="6.06668">
        <ele>1424.811279</ele>
        <time>2011-11-15T12:26:16Z</time>
      </trkpt>
      <trkpt lat="44.61939" lon="6.06583">
        <ele>1427.2146</ele>
        <time>2011-11-15T12:26:11Z</time>
      </trkpt>
      <trkpt lat="44.61941" lon="6.06589">
        <ele>1430.579102</ele>
        <time>2011-11-15T12:26:07Z</time>
      </trkpt>
      <trkpt lat="44.61933" lon="6.06576">
        <ele>1432.020996</ele>
        <time>2011-11-15T12:26:03Z</time>
      </trkpt>
      <trkpt lat="44.6194" lon="6.06586">
        <ele>1434.424316</ele>
        <time>2011-11-15T12:26:00Z</time>
      </trkpt>
      <trkpt lat="44.61955" lon="6.066">
        <ele>1435.866211</ele>
        <time>2011-11-15T12:25:58Z</time>
      </trkpt>
      <trkpt lat="44.61965" lon="6.066">
        <ele>1437.30835</ele>
        <time>2011-11-15T12:25:56Z</time>
      </trkpt>
      <trkpt lat="44.61985" lon="6.06601">
        <ele>1440.192383</ele>
        <time>2011-11-15T12:25:53Z</time>
      </trkpt>
      <trkpt lat="44.61996" lon="6.0661">
        <ele>1441.634277</ele>
        <time>2011-11-15T12:25:51Z</time>
      </trkpt>
      <trkpt lat="44.62007" lon="6.0662">
        <ele>1443.076172</ele>
        <time>2011-11-15T12:25:49Z</time>
      </trkpt>
      <trkpt lat="44.62019" lon="6.06633">
        <ele>1444.518066</ele>
        <time>2011-11-15T12:25:47Z</time>
      </trkpt>
      <trkpt lat="44.62033" lon="6.06647">
        <ele>1446.921387</ele>
        <time>2011-11-15T12:25:44Z</time>
      </trkpt>
      <trkpt lat="44.6204" lon="6.06649">
        <ele>1448.363281</ele>
        <time>2011-11-15T12:25:42Z</time>
      </trkpt>
      <trkpt lat="44.62057" lon="6.06635">
        <ele>1451.247314</ele>
        <time>2011-11-15T12:25:38Z</time>
      </trkpt>
      <trkpt lat="44.6206" lon="6.06624">
        <ele>1452.20874</ele>
        <time>2011-11-15T12:25:37Z</time>
      </trkpt>
      <trkpt lat="44.62064" lon="6.06602">
        <ele>1454.612061</ele>
        <time>2011-11-15T12:25:35Z</time>
      </trkpt>
      <trkpt lat="44.62066" lon="6.06577">
        <ele>1456.053955</ele>
        <time>2011-11-15T12:25:33Z</time>
      </trkpt>
      <trkpt lat="44.62085" lon="6.06535">
        <ele>1458.937988</ele>
        <time>2011-11-15T12:25:29Z</time>
      </trkpt>
      <trkpt lat="44.62093" lon="6.06529">
        <ele>1460.379883</ele>
        <time>2011-11-15T12:25:28Z</time>
      </trkpt>
      <trkpt lat="44.62099" lon="6.06525">
        <ele>1460.379883</ele>
        <time>2011-11-15T12:25:27Z</time>
      </trkpt>
      <trkpt lat="44.62117" lon="6.06509">
        <ele>1464.225098</ele>
        <time>2011-11-15T12:25:24Z</time>
      </trkpt>
      <trkpt lat="44.62141" lon="6.06464">
        <ele>1467.5896</ele>
        <time>2011-11-15T12:25:19Z</time>
      </trkpt>
      <trkpt lat="44.62148" lon="6.06454">
        <ele>1467.5896</ele>
        <time>2011-11-15T12:25:18Z</time>
      </trkpt>
      <trkpt lat="44.62162" lon="6.06434">
        <ele>1471.435059</ele>
        <time>2011-11-15T12:25:16Z</time>
      </trkpt>
      <trkpt lat="44.62188" lon="6.06393">
        <ele>1474.319092</ele>
        <time>2011-11-15T12:25:12Z</time>
      </trkpt>
      <trkpt lat="44.62195" lon="6.06383">
        <ele>1474.319092</ele>
        <time>2011-11-15T12:25:11Z</time>
      </trkpt>
      <trkpt lat="44.62216" lon="6.0636">
        <ele>1477.683594</ele>
        <time>2011-11-15T12:25:08Z</time>
      </trkpt>
      <trkpt lat="44.62223" lon="6.06356">
        <ele>1478.164307</ele>
        <time>2011-11-15T12:25:07Z</time>
      </trkpt>
      <trkpt lat="44.62245" lon="6.06355">
        <ele>1480.567627</ele>
        <time>2011-11-15T12:25:04Z</time>
      </trkpt>
      <trkpt lat="44.62261" lon="6.06355">
        <ele>1483.932129</ele>
        <time>2011-11-15T12:25:02Z</time>
      </trkpt>
      <trkpt lat="44.62288" lon="6.06343">
        <ele>1486.816162</ele>
        <time>2011-11-15T12:24:58Z</time>
      </trkpt>
      <trkpt lat="44.62299" lon="6.06335">
        <ele>1487.777588</ele>
        <time>2011-11-15T12:24:56Z</time>
      </trkpt>
      <trkpt lat="44.62303" lon="6.06331">
        <ele>1487.777588</ele>
        <time>2011-11-15T12:24:55Z</time>
      </trkpt>
      <trkpt lat="44.62312" lon="6.06317">
        <ele>1489.700195</ele>
        <time>2011-11-15T12:24:51Z</time>
      </trkpt>
      <trkpt lat="44.62295" lon="6.06313">
        <ele>1493.064697</ele>
        <time>2011-11-15T12:24:48Z</time>
      </trkpt>
      <trkpt lat="44.62267" lon="6.06314">
        <ele>1495.94873</ele>
        <time>2011-11-15T12:24:44Z</time>
      </trkpt>
      <trkpt lat="44.62257" lon="6.06307">
        <ele>1497.871338</ele>
        <time>2011-11-15T12:24:42Z</time>
      </trkpt>
      <trkpt lat="44.62251" lon="6.06304">
        <ele>1498.83252</ele>
        <time>2011-11-15T12:24:41Z</time>
      </trkpt>
      <trkpt lat="44.62236" lon="6.06293">
        <ele>1501.716797</ele>
        <time>2011-11-15T12:24:39Z</time>
      </trkpt>
      <trkpt lat="44.62211" lon="6.06275">
        <ele>1502.677979</ele>
        <time>2011-11-15T12:24:36Z</time>
      </trkpt>
      <trkpt lat="44.62203" lon="6.06267">
        <ele>1504.120117</ele>
        <time>2011-11-15T12:24:35Z</time>
      </trkpt>
      <trkpt lat="44.62178" lon="6.0626">
        <ele>1507.484619</ele>
        <time>2011-11-15T12:24:32Z</time>
      </trkpt>
      <trkpt lat="44.62164" lon="6.06266">
        <ele>1508.926514</ele>
        <time>2011-11-15T12:24:30Z</time>
      </trkpt>
      <trkpt lat="44.62151" lon="6.06272">
        <ele>1510.368408</ele>
        <time>2011-11-15T12:24:28Z</time>
      </trkpt>
      <trkpt lat="44.62134" lon="6.06274">
        <ele>1512.291016</ele>
        <time>2011-11-15T12:24:25Z</time>
      </trkpt>
      <trkpt lat="44.62117" lon="6.06266">
        <ele>1513.252441</ele>
        <time>2011-11-15T12:24:22Z</time>
      </trkpt>
      <trkpt lat="44.62111" lon="6.06263">
        <ele>1514.213623</ele>
        <time>2011-11-15T12:24:21Z</time>
      </trkpt>
      <trkpt lat="44.62086" lon="6.06249">
        <ele>1518.059082</ele>
        <time>2011-11-15T12:24:16Z</time>
      </trkpt>
      <trkpt lat="44.62071" lon="6.06233">
        <ele>1519.981689</ele>
        <time>2011-11-15T12:24:13Z</time>
      </trkpt>
      <trkpt lat="44.62064" lon="6.06223">
        <ele>1521.423584</ele>
        <time>2011-11-15T12:24:11Z</time>
      </trkpt>
      <trkpt lat="44.62054" lon="6.06203">
        <ele>1523.346436</ele>
        <time>2011-11-15T12:24:08Z</time>
      </trkpt>
      <trkpt lat="44.62051" lon="6.06152">
        <ele>1527.19165</ele>
        <time>2011-11-15T12:24:03Z</time>
      </trkpt>
      <trkpt lat="44.62061" lon="6.06107">
        <ele>1530.075439</ele>
        <time>2011-11-15T12:23:59Z</time>
      </trkpt>
      <trkpt lat="44.62062" lon="6.06081">
        <ele>1534.401611</ele>
        <time>2011-11-15T12:23:57Z</time>
      </trkpt>
      <trkpt lat="44.62066" lon="6.06023">
        <ele>1536.804688</ele>
        <time>2011-11-15T12:23:52Z</time>
      </trkpt>
      <trkpt lat="44.62067" lon="6.06014">
        <ele>1538.246826</ele>
        <time>2011-11-15T12:23:51Z</time>
      </trkpt>
      <trkpt lat="44.62071" lon="6.05986">
        <ele>1540.649902</ele>
        <time>2011-11-15T12:23:48Z</time>
      </trkpt>
      <trkpt lat="44.62073" lon="6.05968">
        <ele>1543.053223</ele>
        <time>2011-11-15T12:23:46Z</time>
      </trkpt>
      <trkpt lat="44.62077" lon="6.0595">
        <ele>1544.014648</ele>
        <time>2011-11-15T12:23:44Z</time>
      </trkpt>
      <trkpt lat="44.62082" lon="6.05911">
        <ele>1546.898438</ele>
        <time>2011-11-15T12:23:39Z</time>
      </trkpt>
      <trkpt lat="44.62044" lon="6.05942">
        <ele>1546.898438</ele>
        <time>2011-11-15T12:23:38Z</time>
      </trkpt>
      <trkpt lat="44.62099" lon="6.05899">
        <ele>1550.743896</ele>
        <time>2011-11-15T12:23:32Z</time>
      </trkpt>
      <trkpt lat="44.6211" lon="6.05907">
        <ele>1552.666504</ele>
        <time>2011-11-15T12:23:30Z</time>
      </trkpt>
      <trkpt lat="44.62129" lon="6.05908">
        <ele>1555.069824</ele>
        <time>2011-11-15T12:23:27Z</time>
      </trkpt>
      <trkpt lat="44.62143" lon="6.05904">
        <ele>1556.992432</ele>
        <time>2011-11-15T12:23:25Z</time>
      </trkpt>
      <trkpt lat="44.62157" lon="6.059">
        <ele>1558.434326</ele>
        <time>2011-11-15T12:23:23Z</time>
      </trkpt>
      <trkpt lat="44.62164" lon="6.05898">
        <ele>1558.434326</ele>
        <time>2011-11-15T12:23:22Z</time>
      </trkpt>
      <trkpt lat="44.62208" lon="6.05884">
        <ele>1562.760254</ele>
        <time>2011-11-15T12:23:16Z</time>
      </trkpt>
      <trkpt lat="44.62226" lon="6.05881">
        <ele>1565.644531</ele>
        <time>2011-11-15T12:23:13Z</time>
      </trkpt>
      <trkpt lat="44.62232" lon="6.05869">
        <ele>1566.125</ele>
        <time>2011-11-15T12:23:09Z</time>
      </trkpt>
      <trkpt lat="44.62213" lon="6.05865">
        <ele>1569.489746</ele>
        <time>2011-11-15T12:23:04Z</time>
      </trkpt>
      <trkpt lat="44.62201" lon="6.0586">
        <ele>1569.970215</ele>
        <time>2011-11-15T12:23:02Z</time>
      </trkpt>
      <trkpt lat="44.62194" lon="6.05857">
        <ele>1569.970215</ele>
        <time>2011-11-15T12:23:01Z</time>
      </trkpt>
      <trkpt lat="44.62176" lon="6.05842">
        <ele>1572.373535</ele>
        <time>2011-11-15T12:22:58Z</time>
      </trkpt>
      <trkpt lat="44.62172" lon="6.05836">
        <ele>1573.334961</ele>
        <time>2011-11-15T12:22:57Z</time>
      </trkpt>
      <trkpt lat="44.62161" lon="6.05815">
        <ele>1575.257324</ele>
        <time>2011-11-15T12:22:54Z</time>
      </trkpt>
      <trkpt lat="44.62157" lon="6.05807">
        <ele>1576.699463</ele>
        <time>2011-11-15T12:22:53Z</time>
      </trkpt>
      <trkpt lat="44.6215" lon="6.05788">
        <ele>1578.141357</ele>
        <time>2011-11-15T12:22:51Z</time>
      </trkpt>
      <trkpt lat="44.62134" lon="6.0575">
        <ele>1581.025635</ele>
        <time>2011-11-15T12:22:47Z</time>
      </trkpt>
      <trkpt lat="44.62126" lon="6.05741">
        <ele>1580.064209</ele>
        <time>2011-11-15T12:22:45Z</time>
      </trkpt>
      <trkpt lat="44.62125" lon="6.05721">
        <ele>1584.87085</ele>
        <time>2011-11-15T12:22:39Z</time>
      </trkpt>
      <trkpt lat="44.6213" lon="6.05723">
        <ele>1584.87085</ele>
        <time>2011-11-15T12:22:38Z</time>
      </trkpt>
      <trkpt lat="44.62141" lon="6.05726">
        <ele>1587.754639</ele>
        <time>2011-11-15T12:22:36Z</time>
      </trkpt>
      <trkpt lat="44.62154" lon="6.05729">
        <ele>1590.157959</ele>
        <time>2011-11-15T12:22:34Z</time>
      </trkpt>
      <trkpt lat="44.6218" lon="6.05747">
        <ele>1592.561279</ele>
        <time>2011-11-15T12:22:30Z</time>
      </trkpt>
      <trkpt lat="44.62199" lon="6.05762">
        <ele>1593.522461</ele>
        <time>2011-11-15T12:22:26Z</time>
      </trkpt>
      <trkpt lat="44.62204" lon="6.05761">
        <ele>1595.445068</ele>
        <time>2011-11-15T12:22:23Z</time>
      </trkpt>
      <trkpt lat="44.62206" lon="6.05753">
        <ele>1597.848633</ele>
        <time>2011-11-15T12:22:20Z</time>
      </trkpt>
      <trkpt lat="44.62204" lon="6.05747">
        <ele>1597.848633</ele>
        <time>2011-11-15T12:22:18Z</time>
      </trkpt>
      <trkpt lat="44.62196" lon="6.05737">
        <ele>1600.251953</ele>
        <time>2011-11-15T12:22:16Z</time>
      </trkpt>
      <trkpt lat="44.62192" lon="6.05731">
        <ele>1600.251953</ele>
        <time>2011-11-15T12:22:15Z</time>
      </trkpt>
      <trkpt lat="44.62183" lon="6.05717">
        <ele>1602.174316</ele>
        <time>2011-11-15T12:22:13Z</time>
      </trkpt>
      <trkpt lat="44.62172" lon="6.05685">
        <ele>1603.616455</ele>
        <time>2011-11-15T12:22:09Z</time>
      </trkpt>
      <trkpt lat="44.62168" lon="6.05659">
        <ele>1604.577637</ele>
        <time>2011-11-15T12:22:05Z</time>
      </trkpt>
      <trkpt lat="44.62168" lon="6.05652">
        <ele>1606.019531</ele>
        <time>2011-11-15T12:22:04Z</time>
      </trkpt>
      <trkpt lat="44.62169" lon="6.05634">
        <ele>1607.46167</ele>
        <time>2011-11-15T12:22:02Z</time>
      </trkpt>
      <trkpt lat="44.62172" lon="6.05614">
        <ele>1609.384277</ele>
        <time>2011-11-15T12:22:00Z</time>
      </trkpt>
      <trkpt lat="44.62185" lon="6.05577">
        <ele>1611.787598</ele>
        <time>2011-11-15T12:21:55Z</time>
      </trkpt>
      <trkpt lat="44.62196" lon="6.05567">
        <ele>1613.710205</ele>
        <time>2011-11-15T12:21:52Z</time>
      </trkpt>
      <trkpt lat="44.62204" lon="6.05564">
        <ele>1615.633057</ele>
        <time>2011-11-15T12:21:50Z</time>
      </trkpt>
      <trkpt lat="44.62229" lon="6.05559">
        <ele>1618.516846</ele>
        <time>2011-11-15T12:21:46Z</time>
      </trkpt>
      <trkpt lat="44.62236" lon="6.05559">
        <ele>1618.516846</ele>
        <time>2011-11-15T12:21:45Z</time>
      </trkpt>
      <trkpt lat="44.62251" lon="6.05557">
        <ele>1621.400635</ele>
        <time>2011-11-15T12:21:43Z</time>
      </trkpt>
      <trkpt lat="44.62267" lon="6.05557">
        <ele>1623.323486</ele>
        <time>2011-11-15T12:21:41Z</time>
      </trkpt>
      <trkpt lat="44.6228" lon="6.05557">
        <ele>1624.284668</ele>
        <time>2011-11-15T12:21:39Z</time>
      </trkpt>
      <trkpt lat="44.62291" lon="6.05544">
        <ele>1628.130127</ele>
        <time>2011-11-15T12:21:36Z</time>
      </trkpt>
      <trkpt lat="44.62305" lon="6.05516">
        <ele>1629.091309</ele>
        <time>2011-11-15T12:21:33Z</time>
      </trkpt>
      <trkpt lat="44.6231" lon="6.05508">
        <ele>1630.533447</ele>
        <time>2011-11-15T12:21:32Z</time>
      </trkpt>
      <trkpt lat="44.62318" lon="6.05482">
        <ele>1632.456055</ele>
        <time>2011-11-15T12:21:29Z</time>
      </trkpt>
      <trkpt lat="44.62314" lon="6.05444">
        <ele>1635.339844</ele>
        <time>2011-11-15T12:21:25Z</time>
      </trkpt>
      <trkpt lat="44.62314" lon="6.05426">
        <ele>1636.30127</ele>
        <time>2011-11-15T12:21:23Z</time>
      </trkpt>
      <trkpt lat="44.623" lon="6.0538">
        <ele>1637.743164</ele>
        <time>2011-11-15T12:21:22Z</time>
      </trkpt>
      <trkpt lat="44.62312" lon="6.05369">
        <ele>1639.185059</ele>
        <time>2011-11-15T12:21:20Z</time>
      </trkpt>
      <trkpt lat="44.6232" lon="6.05362">
        <ele>1640.626953</ele>
        <time>2011-11-15T12:21:18Z</time>
      </trkpt>
      <trkpt lat="44.6235" lon="6.0534">
        <ele>1643.991699</ele>
        <time>2011-11-15T12:21:13Z</time>
      </trkpt>
      <trkpt lat="44.62355" lon="6.05327">
        <ele>1644.953125</ele>
        <time>2011-11-15T12:21:11Z</time>
      </trkpt>
      <trkpt lat="44.62359" lon="6.05313">
        <ele>1646.875732</ele>
        <time>2011-11-15T12:21:08Z</time>
      </trkpt>
      <trkpt lat="44.62357" lon="6.053">
        <ele>1648.317627</ele>
        <time>2011-11-15T12:21:06Z</time>
      </trkpt>
      <trkpt lat="44.62339" lon="6.05261">
        <ele>1650.720947</ele>
        <time>2011-11-15T12:21:01Z</time>
      </trkpt>
      <trkpt lat="44.62329" lon="6.05253">
        <ele>1652.162842</ele>
        <time>2011-11-15T12:20:59Z</time>
      </trkpt>
      <trkpt lat="44.62316" lon="6.05241">
        <ele>1653.60498</ele>
        <time>2011-11-15T12:20:55Z</time>
      </trkpt>
      <trkpt lat="44.6232" lon="6.05224">
        <ele>1656.008057</ele>
        <time>2011-11-15T12:20:51Z</time>
      </trkpt>
      <trkpt lat="44.62323" lon="6.05217">
        <ele>1657.930908</ele>
        <time>2011-11-15T12:20:50Z</time>
      </trkpt>
      <trkpt lat="44.62331" lon="6.05201">
        <ele>1659.372803</ele>
        <time>2011-11-15T12:20:48Z</time>
      </trkpt>
      <trkpt lat="44.62335" lon="6.05181">
        <ele>1660.334229</ele>
        <time>2011-11-15T12:20:46Z</time>
      </trkpt>
      <trkpt lat="44.62335" lon="6.05171">
        <ele>1661.776367</ele>
        <time>2011-11-15T12:20:45Z</time>
      </trkpt>
      <trkpt lat="44.62324" lon="6.05148">
        <ele>1663.218262</ele>
        <time>2011-11-15T12:20:42Z</time>
      </trkpt>
      <trkpt lat="44.62319" lon="6.05142">
        <ele>1663.69873</ele>
        <time>2011-11-15T12:20:41Z</time>
      </trkpt>
      <trkpt lat="44.62313" lon="6.05119">
        <ele>1666.102051</ele>
        <time>2011-11-15T12:20:38Z</time>
      </trkpt>
      <trkpt lat="44.62314" lon="6.051">
        <ele>1667.543945</ele>
        <time>2011-11-15T12:20:36Z</time>
      </trkpt>
      <trkpt lat="44.62316" lon="6.05083">
        <ele>1668.505371</ele>
        <time>2011-11-15T12:20:34Z</time>
      </trkpt>
      <trkpt lat="44.62316" lon="6.05059">
        <ele>1671.869873</ele>
        <time>2011-11-15T12:20:31Z</time>
      </trkpt>
      <trkpt lat="44.62311" lon="6.05039">
        <ele>1672.831299</ele>
        <time>2011-11-15T12:20:29Z</time>
      </trkpt>
      <trkpt lat="44.62308" lon="6.05025">
        <ele>1674.273193</ele>
        <time>2011-11-15T12:20:27Z</time>
      </trkpt>
      <trkpt lat="44.62319" lon="6.04992">
        <ele>1675.234375</ele>
        <time>2011-11-15T12:20:23Z</time>
      </trkpt>
      <trkpt lat="44.62328" lon="6.04954">
        <ele>1678.118652</ele>
        <time>2011-11-15T12:20:17Z</time>
      </trkpt>
      <trkpt lat="44.62328" lon="6.04921">
        <ele>1681.002686</ele>
        <time>2011-11-15T12:20:14Z</time>
      </trkpt>
      <trkpt lat="44.62334" lon="6.04873">
        <ele>1685.809082</ele>
        <time>2011-11-15T12:20:08Z</time>
      </trkpt>
      <trkpt lat="44.6232" lon="6.04763">
        <ele>1688.212402</ele>
        <time>2011-11-15T12:20:04Z</time>
      </trkpt>
      <trkpt lat="44.62297" lon="6.04811">
        <ele>1691.576904</ele>
        <time>2011-11-15T12:19:59Z</time>
      </trkpt>
      <trkpt lat="44.62285" lon="6.04815">
        <ele>1693.019043</ele>
        <time>2011-11-15T12:19:57Z</time>
      </trkpt>
      <trkpt lat="44.62271" lon="6.04819">
        <ele>1694.460938</ele>
        <time>2011-11-15T12:19:53Z</time>
      </trkpt>
      <trkpt lat="44.62268" lon="6.04816">
        <ele>1694.460938</ele>
        <time>2011-11-15T12:19:52Z</time>
      </trkpt>
      <trkpt lat="44.62255" lon="6.04796">
        <ele>1696.864258</ele>
        <time>2011-11-15T12:19:48Z</time>
      </trkpt>
      <trkpt lat="44.62255" lon="6.04796">
        <ele>1697.344971</ele>
        <time>2011-11-15T12:19:37Z</time>
      </trkpt>
      <trkpt lat="44.62255" lon="6.04796">
        <ele>1697.825684</ele>
        <time>2011-11-15T12:19:20Z</time>
      </trkpt>
      <trkpt lat="44.62262" lon="6.0481">
        <ele>1698.786865</ele>
        <time>2011-11-15T12:19:16Z</time>
      </trkpt>
      <trkpt lat="44.62262" lon="6.0481">
        <ele>1698.306152</ele>
        <time>2011-11-15T12:18:59Z</time>
      </trkpt>
      <trkpt lat="44.62262" lon="6.0481">
        <ele>1696.383789</ele>
        <time>2011-11-15T12:18:50Z</time>
      </trkpt>
      <trkpt lat="44.62262" lon="6.0481">
        <ele>1695.903076</ele>
        <time>2011-11-15T12:18:48Z</time>
      </trkpt>
      <trkpt lat="44.62262" lon="6.0481">
        <ele>1696.864258</ele>
        <time>2011-11-15T12:18:42Z</time>
      </trkpt>
      <trkpt lat="44.6226" lon="6.04795">
        <ele>1697.825684</ele>
        <time>2011-11-15T12:18:29Z</time>
      </trkpt>
      <trkpt lat="44.62292" lon="6.04729">
        <ele>1700.709473</ele>
        <time>2011-11-15T12:18:19Z</time>
      </trkpt>
      <trkpt lat="44.62297" lon="6.04715">
        <ele>1700.229004</ele>
        <time>2011-11-15T12:18:16Z</time>
      </trkpt>
      <trkpt lat="44.62304" lon="6.04703">
        <ele>1701.670898</ele>
        <time>2011-11-15T12:18:13Z</time>
      </trkpt>
      <trkpt lat="44.62307" lon="6.04694">
        <ele>1701.670898</ele>
        <time>2011-11-15T12:18:09Z</time>
      </trkpt>
      <trkpt lat="44.6231" lon="6.04691">
        <ele>1701.190186</ele>
        <time>2011-11-15T12:18:02Z</time>
      </trkpt>
      <trkpt lat="44.62309" lon="6.04687">
        <ele>1702.151367</ele>
        <time>2011-11-15T12:17:46Z</time>
      </trkpt>
      <trkpt lat="44.62298" lon="6.04699">
        <ele>1702.63208</ele>
        <time>2011-11-15T12:16:37Z</time>
      </trkpt>
      <trkpt lat="44.62304" lon="6.04691">
        <ele>1700.709473</ele>
        <time>2011-11-15T12:15:59Z</time>
      </trkpt>
      <trkpt lat="44.62303" lon="6.04709">
        <ele>1700.709473</ele>
        <time>2011-11-15T12:15:46Z</time>
      </trkpt>
      <trkpt lat="44.623" lon="6.04719">
        <ele>1700.229004</ele>
        <time>2011-11-15T12:15:39Z</time>
      </trkpt>
      <trkpt lat="44.62291" lon="6.04737">
        <ele>1699.267578</ele>
        <time>2011-11-15T12:15:28Z</time>
      </trkpt>
      <trkpt lat="44.62272" lon="6.04773">
        <ele>1698.306152</ele>
        <time>2011-11-15T12:15:11Z</time>
      </trkpt>
      <trkpt lat="44.62269" lon="6.04779">
        <ele>1698.306152</ele>
        <time>2011-11-15T12:15:07Z</time>
      </trkpt>
      <trkpt lat="44.62264" lon="6.04789">
        <ele>1698.306152</ele>
        <time>2011-11-15T12:15:02Z</time>
      </trkpt>
      <trkpt lat="44.62262" lon="6.04793">
        <ele>1698.306152</ele>
        <time>2011-11-15T12:15:00Z</time>
      </trkpt>
      <trkpt lat="44.62242" lon="6.04822">
        <ele>1697.344971</ele>
        <time>2011-11-15T12:14:45Z</time>
      </trkpt>
      <trkpt lat="44.62236" lon="6.04825">
        <ele>1697.825684</ele>
        <time>2011-11-15T12:14:41Z</time>
      </trkpt>
      <trkpt lat="44.62219" lon="6.04804">
        <ele>1698.786865</ele>
        <time>2011-11-15T12:14:28Z</time>
      </trkpt>
      <trkpt lat="44.62213" lon="6.04807">
        <ele>1697.825684</ele>
        <time>2011-11-15T12:14:24Z</time>
      </trkpt>
      <trkpt lat="44.6221" lon="6.04811">
        <ele>1697.825684</ele>
        <time>2011-11-15T12:14:21Z</time>
      </trkpt>
      <trkpt lat="44.62209" lon="6.04811">
        <ele>1697.825684</ele>
        <time>2011-11-15T12:14:20Z</time>
      </trkpt>
      <trkpt lat="44.62211" lon="6.04814">
        <ele>1697.825684</ele>
        <time>2011-11-15T12:14:05Z</time>
      </trkpt>
      <trkpt lat="44.62206" lon="6.04829">
        <ele>1698.786865</ele>
        <time>2011-11-15T12:13:58Z</time>
      </trkpt>
      <trkpt lat="44.62199" lon="6.0484">
        <ele>1699.748291</ele>
        <time>2011-11-15T12:13:53Z</time>
      </trkpt>
      <trkpt lat="44.62196" lon="6.04849">
        <ele>1700.229004</ele>
        <time>2011-11-15T12:13:49Z</time>
      </trkpt>
      <trkpt lat="44.62195" lon="6.0485">
        <ele>1700.709473</ele>
        <time>2011-11-15T12:13:45Z</time>
      </trkpt>
      <trkpt lat="44.6219" lon="6.04856">
        <ele>1700.229004</ele>
        <time>2011-11-15T12:13:31Z</time>
      </trkpt>
      <trkpt lat="44.62185" lon="6.04861">
        <ele>1699.267578</ele>
        <time>2011-11-15T12:13:27Z</time>
      </trkpt>
      <trkpt lat="44.62182" lon="6.04867">
        <ele>1698.786865</ele>
        <time>2011-11-15T12:13:24Z</time>
      </trkpt>
      <trkpt lat="44.62172" lon="6.04881">
        <ele>1698.786865</ele>
        <time>2011-11-15T12:13:17Z</time>
      </trkpt>
      <trkpt lat="44.62165" lon="6.04889">
        <ele>1697.344971</ele>
        <time>2011-11-15T12:13:11Z</time>
      </trkpt>
      <trkpt lat="44.62149" lon="6.04909">
        <ele>1696.383789</ele>
        <time>2011-11-15T12:13:00Z</time>
      </trkpt>
      <trkpt lat="44.62122" lon="6.04927">
        <ele>1695.903076</ele>
        <time>2011-11-15T12:12:46Z</time>
      </trkpt>
      <trkpt lat="44.62096" lon="6.04945">
        <ele>1694.460938</ele>
        <time>2011-11-15T12:12:32Z</time>
      </trkpt>
      <trkpt lat="44.62076" lon="6.04954">
        <ele>1693.980469</ele>
        <time>2011-11-15T12:12:20Z</time>
      </trkpt>
      <trkpt lat="44.62045" lon="6.04973">
        <ele>1692.057861</ele>
        <time>2011-11-15T12:12:04Z</time>
      </trkpt>
      <trkpt lat="44.62041" lon="6.04979">
        <ele>1692.057861</ele>
        <time>2011-11-15T12:12:00Z</time>
      </trkpt>
      <trkpt lat="44.62038" lon="6.04982">
        <ele>1691.096191</ele>
        <time>2011-11-15T12:11:57Z</time>
      </trkpt>
      <trkpt lat="44.62036" lon="6.04983">
        <ele>1691.096191</ele>
        <time>2011-11-15T12:11:55Z</time>
      </trkpt>
      <trkpt lat="44.62028" lon="6.04988">
        <ele>1690.13501</ele>
        <time>2011-11-15T12:11:50Z</time>
      </trkpt>
      <trkpt lat="44.6202" lon="6.04993">
        <ele>1690.13501</ele>
        <time>2011-11-15T12:11:46Z</time>
      </trkpt>
      <trkpt lat="44.62014" lon="6.04997">
        <ele>1690.13501</ele>
        <time>2011-11-15T12:11:42Z</time>
      </trkpt>
      <trkpt lat="44.62002" lon="6.05006">
        <ele>1689.173584</ele>
        <time>2011-11-15T12:11:35Z</time>
      </trkpt>
      <trkpt lat="44.61999" lon="6.05007">
        <ele>1688.693115</ele>
        <time>2011-11-15T12:11:33Z</time>
      </trkpt>
      <trkpt lat="44.61978" lon="6.05022">
        <ele>1688.212402</ele>
        <time>2011-11-15T12:11:22Z</time>
      </trkpt>
      <trkpt lat="44.61956" lon="6.05029">
        <ele>1687.731689</ele>
        <time>2011-11-15T12:11:10Z</time>
      </trkpt>
      <trkpt lat="44.61924" lon="6.0504">
        <ele>1686.289795</ele>
        <time>2011-11-15T12:10:55Z</time>
      </trkpt>
      <trkpt lat="44.61919" lon="6.05039">
        <ele>1685.809082</ele>
        <time>2011-11-15T12:10:52Z</time>
      </trkpt>
      <trkpt lat="44.61912" lon="6.05041">
        <ele>1685.809082</ele>
        <time>2011-11-15T12:10:48Z</time>
      </trkpt>
      <trkpt lat="44.61889" lon="6.05052">
        <ele>1684.8479</ele>
        <time>2011-11-15T12:10:34Z</time>
      </trkpt>
      <trkpt lat="44.61886" lon="6.05053">
        <ele>1684.8479</ele>
        <time>2011-11-15T12:10:32Z</time>
      </trkpt>
      <trkpt lat="44.61863" lon="6.05063">
        <ele>1683.405762</ele>
        <time>2011-11-15T12:10:19Z</time>
      </trkpt>
      <trkpt lat="44.61845" lon="6.05073">
        <ele>1681.963867</ele>
        <time>2011-11-15T12:10:07Z</time>
      </trkpt>
      <trkpt lat="44.61834" lon="6.05078">
        <ele>1681.483154</ele>
        <time>2011-11-15T12:10:01Z</time>
      </trkpt>
      <trkpt lat="44.61807" lon="6.05093">
        <ele>1679.560547</ele>
        <time>2011-11-15T12:09:45Z</time>
      </trkpt>
      <trkpt lat="44.61787" lon="6.05098">
        <ele>1678.599365</ele>
        <time>2011-11-15T12:09:34Z</time>
      </trkpt>
      <trkpt lat="44.6177" lon="6.05107">
        <ele>1678.118652</ele>
        <time>2011-11-15T12:09:24Z</time>
      </trkpt>
      <trkpt lat="44.61767" lon="6.05106">
        <ele>1677.637939</ele>
        <time>2011-11-15T12:09:21Z</time>
      </trkpt>
      <trkpt lat="44.61758" lon="6.05108">
        <ele>1677.157471</ele>
        <time>2011-11-15T12:09:15Z</time>
      </trkpt>
      <trkpt lat="44.61753" lon="6.05112">
        <ele>1676.676758</ele>
        <time>2011-11-15T12:09:11Z</time>
      </trkpt>
      <trkpt lat="44.61746" lon="6.05115">
        <ele>1676.676758</ele>
        <time>2011-11-15T12:09:07Z</time>
      </trkpt>
      <trkpt lat="44.61743" lon="6.05115">
        <ele>1675.715088</ele>
        <time>2011-11-15T12:09:05Z</time>
      </trkpt>
      <trkpt lat="44.61738" lon="6.05115">
        <ele>1675.715088</ele>
        <time>2011-11-15T12:09:01Z</time>
      </trkpt>
      <trkpt lat="44.61737" lon="6.05115">
        <ele>1675.715088</ele>
        <time>2011-11-15T12:09:00Z</time>
      </trkpt>
      <trkpt lat="44.61719" lon="6.05123">
        <ele>1674.273193</ele>
        <time>2011-11-15T12:08:47Z</time>
      </trkpt>
      <trkpt lat="44.61704" lon="6.05128">
        <ele>1673.312012</ele>
        <time>2011-11-15T12:08:34Z</time>
      </trkpt>
      <trkpt lat="44.61683" lon="6.05136">
        <ele>1671.869873</ele>
        <time>2011-11-15T12:08:23Z</time>
      </trkpt>
      <trkpt lat="44.61664" lon="6.05145">
        <ele>1670.427979</ele>
        <time>2011-11-15T12:08:10Z</time>
      </trkpt>
      <trkpt lat="44.61655" lon="6.05144">
        <ele>1669.947266</ele>
        <time>2011-11-15T12:08:01Z</time>
      </trkpt>
      <trkpt lat="44.6165" lon="6.0515">
        <ele>1669.466797</ele>
        <time>2011-11-15T12:07:57Z</time>
      </trkpt>
      <trkpt lat="44.61635" lon="6.05157">
        <ele>1667.543945</ele>
        <time>2011-11-15T12:07:43Z</time>
      </trkpt>
      <trkpt lat="44.61628" lon="6.05163">
        <ele>1667.063477</ele>
        <time>2011-11-15T12:07:38Z</time>
      </trkpt>
      <trkpt lat="44.61618" lon="6.05166">
        <ele>1667.063477</ele>
        <time>2011-11-15T12:07:31Z</time>
      </trkpt>
      <trkpt lat="44.61598" lon="6.05176">
        <ele>1665.621582</ele>
        <time>2011-11-15T12:07:16Z</time>
      </trkpt>
      <trkpt lat="44.61584" lon="6.05175">
        <ele>1663.69873</ele>
        <time>2011-11-15T12:07:04Z</time>
      </trkpt>
      <trkpt lat="44.61578" lon="6.05174">
        <ele>1664.179443</ele>
        <time>2011-11-15T12:06:59Z</time>
      </trkpt>
      <trkpt lat="44.61576" lon="6.05174">
        <ele>1664.179443</ele>
        <time>2011-11-15T12:06:49Z</time>
      </trkpt>
      <trkpt lat="44.61574" lon="6.05176">
        <ele>1663.218262</ele>
        <time>2011-11-15T12:06:32Z</time>
      </trkpt>
      <trkpt lat="44.61571" lon="6.05172">
        <ele>1662.737549</ele>
        <time>2011-11-15T12:06:15Z</time>
      </trkpt>
      <trkpt lat="44.61573" lon="6.05171">
        <ele>1663.69873</ele>
        <time>2011-11-15T12:06:04Z</time>
      </trkpt>
      <trkpt lat="44.61574" lon="6.05172">
        <ele>1662.737549</ele>
        <time>2011-11-15T12:05:54Z</time>
      </trkpt>
      <trkpt lat="44.61549" lon="6.05178">
        <ele>1660.814941</ele>
        <time>2011-11-15T12:05:38Z</time>
      </trkpt>
      <trkpt lat="44.61541" lon="6.0518">
        <ele>1660.814941</ele>
        <time>2011-11-15T12:05:34Z</time>
      </trkpt>
      <trkpt lat="44.61536" lon="6.05185">
        <ele>1660.334229</ele>
        <time>2011-11-15T12:05:30Z</time>
      </trkpt>
      <trkpt lat="44.61514" lon="6.05192">
        <ele>1659.372803</ele>
        <time>2011-11-15T12:05:16Z</time>
      </trkpt>
      <trkpt lat="44.61499" lon="6.05193">
        <ele>1658.89209</ele>
        <time>2011-11-15T12:05:07Z</time>
      </trkpt>
      <trkpt lat="44.61494" lon="6.05192">
        <ele>1658.411377</ele>
        <time>2011-11-15T12:05:04Z</time>
      </trkpt>
      <trkpt lat="44.61472" lon="6.05197">
        <ele>1656.48877</ele>
        <time>2011-11-15T12:04:50Z</time>
      </trkpt>
      <trkpt lat="44.61452" lon="6.052">
        <ele>1655.527588</ele>
        <time>2011-11-15T12:04:38Z</time>
      </trkpt>
      <trkpt lat="44.6145" lon="6.05201">
        <ele>1655.046875</ele>
        <time>2011-11-15T12:04:37Z</time>
      </trkpt>
      <trkpt lat="44.6143" lon="6.05211">
        <ele>1654.085693</ele>
        <time>2011-11-15T12:04:22Z</time>
      </trkpt>
      <trkpt lat="44.61415" lon="6.05224">
        <ele>1652.643555</ele>
        <time>2011-11-15T12:04:09Z</time>
      </trkpt>
      <trkpt lat="44.61406" lon="6.05232">
        <ele>1652.162842</ele>
        <time>2011-11-15T12:04:00Z</time>
      </trkpt>
      <trkpt lat="44.61389" lon="6.05249">
        <ele>1650.240479</ele>
        <time>2011-11-15T12:03:42Z</time>
      </trkpt>
      <trkpt lat="44.61379" lon="6.05255">
        <ele>1649.759766</ele>
        <time>2011-11-15T12:03:34Z</time>
      </trkpt>
      <trkpt lat="44.61379" lon="6.05256">
        <ele>1649.759766</ele>
        <time>2011-11-15T12:03:33Z</time>
      </trkpt>
      <trkpt lat="44.61364" lon="6.05266">
        <ele>1647.837158</ele>
        <time>2011-11-15T12:03:19Z</time>
      </trkpt>
      <trkpt lat="44.61351" lon="6.05271">
        <ele>1646.395264</ele>
        <time>2011-11-15T12:03:08Z</time>
      </trkpt>
      <trkpt lat="44.61332" lon="6.05276">
        <ele>1644.953125</ele>
        <time>2011-11-15T12:02:53Z</time>
      </trkpt>
      <trkpt lat="44.61314" lon="6.05277">
        <ele>1643.510986</ele>
        <time>2011-11-15T12:02:40Z</time>
      </trkpt>
      <trkpt lat="44.61307" lon="6.05277">
        <ele>1643.510986</ele>
        <time>2011-11-15T12:02:34Z</time>
      </trkpt>
      <trkpt lat="44.61292" lon="6.05278">
        <ele>1642.549805</ele>
        <time>2011-11-15T12:02:24Z</time>
      </trkpt>
      <trkpt lat="44.61281" lon="6.05279">
        <ele>1642.069092</ele>
        <time>2011-11-15T12:02:16Z</time>
      </trkpt>
      <trkpt lat="44.61263" lon="6.05298">
        <ele>1641.107666</ele>
        <time>2011-11-15T12:02:01Z</time>
      </trkpt>
      <trkpt lat="44.61244" lon="6.05317">
        <ele>1640.626953</ele>
        <time>2011-11-15T12:01:47Z</time>
      </trkpt>
      <trkpt lat="44.61231" lon="6.05319">
        <ele>1640.146484</ele>
        <time>2011-11-15T12:01:39Z</time>
      </trkpt>
      <trkpt lat="44.61225" lon="6.05321">
        <ele>1640.146484</ele>
        <time>2011-11-15T12:01:34Z</time>
      </trkpt>
      <trkpt lat="44.61211" lon="6.05334">
        <ele>1639.185059</ele>
        <time>2011-11-15T12:01:22Z</time>
      </trkpt>
      <trkpt lat="44.61209" lon="6.05339">
        <ele>1639.185059</ele>
        <time>2011-11-15T12:01:19Z</time>
      </trkpt>
      <trkpt lat="44.61202" lon="6.05344">
        <ele>1638.70459</ele>
        <time>2011-11-15T12:01:14Z</time>
      </trkpt>
      <trkpt lat="44.61198" lon="6.05344">
        <ele>1638.70459</ele>
        <time>2011-11-15T12:01:13Z</time>
      </trkpt>
      <trkpt lat="44.61187" lon="6.05363">
        <ele>1636.781738</ele>
        <time>2011-11-15T12:00:59Z</time>
      </trkpt>
      <trkpt lat="44.61181" lon="6.05365">
        <ele>1636.30127</ele>
        <time>2011-11-15T12:00:55Z</time>
      </trkpt>
      <trkpt lat="44.61176" lon="6.05373">
        <ele>1636.30127</ele>
        <time>2011-11-15T12:00:49Z</time>
      </trkpt>
      <trkpt lat="44.61171" lon="6.05378">
        <ele>1636.30127</ele>
        <time>2011-11-15T12:00:44Z</time>
      </trkpt>
      <trkpt lat="44.61165" lon="6.05385">
        <ele>1635.820557</ele>
        <time>2011-11-15T12:00:38Z</time>
      </trkpt>
      <trkpt lat="44.61164" lon="6.05386">
        <ele>1635.820557</ele>
        <time>2011-11-15T12:00:37Z</time>
      </trkpt>
      <trkpt lat="44.61153" lon="6.05392">
        <ele>1634.859375</ele>
        <time>2011-11-15T12:00:28Z</time>
      </trkpt>
      <trkpt lat="44.6115" lon="6.05393">
        <ele>1634.859375</ele>
        <time>2011-11-15T12:00:25Z</time>
      </trkpt>
      <trkpt lat="44.61148" lon="6.05394">
        <ele>1634.378662</ele>
        <time>2011-11-15T12:00:17Z</time>
      </trkpt>
      <trkpt lat="44.61147" lon="6.05396">
        <ele>1634.378662</ele>
        <time>2011-11-15T12:00:09Z</time>
      </trkpt>
      <trkpt lat="44.61148" lon="6.05397">
        <ele>1634.378662</ele>
        <time>2011-11-15T11:59:50Z</time>
      </trkpt>
      <trkpt lat="44.61147" lon="6.05395">
        <ele>1633.897949</ele>
        <time>2011-11-15T11:59:19Z</time>
      </trkpt>
      <trkpt lat="44.61137" lon="6.05401">
        <ele>1632.936523</ele>
        <time>2011-11-15T11:59:08Z</time>
      </trkpt>
      <trkpt lat="44.6114" lon="6.05414">
        <ele>1631.494629</ele>
        <time>2011-11-15T11:59:02Z</time>
      </trkpt>
      <trkpt lat="44.61147" lon="6.05419">
        <ele>1630.533447</ele>
        <time>2011-11-15T11:58:56Z</time>
      </trkpt>
      <trkpt lat="44.61153" lon="6.0542">
        <ele>1630.052734</ele>
        <time>2011-11-15T11:58:52Z</time>
      </trkpt>
      <trkpt lat="44.61168" lon="6.05419">
        <ele>1630.533447</ele>
        <time>2011-11-15T11:58:41Z</time>
      </trkpt>
      <trkpt lat="44.61179" lon="6.05421">
        <ele>1630.533447</ele>
        <time>2011-11-15T11:58:33Z</time>
      </trkpt>
      <trkpt lat="44.61187" lon="6.05421">
        <ele>1629.091309</ele>
        <time>2011-11-15T11:58:27Z</time>
      </trkpt>
      <trkpt lat="44.61198" lon="6.05414">
        <ele>1629.091309</ele>
        <time>2011-11-15T11:58:17Z</time>
      </trkpt>
      <trkpt lat="44.612" lon="6.05413">
        <ele>1627.168701</ele>
        <time>2011-11-15T11:58:15Z</time>
      </trkpt>
      <trkpt lat="44.61202" lon="6.0541">
        <ele>1628.61084</ele>
        <time>2011-11-15T11:58:13Z</time>
      </trkpt>
      <trkpt lat="44.61213" lon="6.05405">
        <ele>1628.61084</ele>
        <time>2011-11-15T11:58:05Z</time>
      </trkpt>
      <trkpt lat="44.61219" lon="6.05404">
        <ele>1627.64917</ele>
        <time>2011-11-15T11:58:01Z</time>
      </trkpt>
      <trkpt lat="44.61227" lon="6.054">
        <ele>1627.168701</ele>
        <time>2011-11-15T11:57:55Z</time>
      </trkpt>
      <trkpt lat="44.61232" lon="6.05394">
        <ele>1626.687988</ele>
        <time>2011-11-15T11:57:50Z</time>
      </trkpt>
      <trkpt lat="44.61239" lon="6.05393">
        <ele>1626.207275</ele>
        <time>2011-11-15T11:57:46Z</time>
      </trkpt>
      <trkpt lat="44.61243" lon="6.05387">
        <ele>1626.687988</ele>
        <time>2011-11-15T11:57:43Z</time>
      </trkpt>
      <trkpt lat="44.61249" lon="6.05384">
        <ele>1626.207275</ele>
        <time>2011-11-15T11:57:39Z</time>
      </trkpt>
      <trkpt lat="44.61256" lon="6.05379">
        <ele>1625.726563</ele>
        <time>2011-11-15T11:57:35Z</time>
      </trkpt>
      <trkpt lat="44.6126" lon="6.05379">
        <ele>1625.24585</ele>
        <time>2011-11-15T11:57:31Z</time>
      </trkpt>
      <trkpt lat="44.61267" lon="6.05386">
        <ele>1624.765381</ele>
        <time>2011-11-15T11:57:23Z</time>
      </trkpt>
      <trkpt lat="44.61262" lon="6.05398">
        <ele>1623.803955</ele>
        <time>2011-11-15T11:57:13Z</time>
      </trkpt>
      <trkpt lat="44.6125" lon="6.05408">
        <ele>1622.362061</ele>
        <time>2011-11-15T11:57:00Z</time>
      </trkpt>
      <trkpt lat="44.61242" lon="6.05417">
        <ele>1621.881348</ele>
        <time>2011-11-15T11:56:51Z</time>
      </trkpt>
      <trkpt lat="44.61238" lon="6.0542">
        <ele>1620.920166</ele>
        <time>2011-11-15T11:56:47Z</time>
      </trkpt>
      <trkpt lat="44.61227" lon="6.0544">
        <ele>1618.997559</ele>
        <time>2011-11-15T11:56:30Z</time>
      </trkpt>
      <trkpt lat="44.61211" lon="6.05458">
        <ele>1617.074951</ele>
        <time>2011-11-15T11:56:15Z</time>
      </trkpt>
      <trkpt lat="44.61209" lon="6.05459">
        <ele>1616.594238</ele>
        <time>2011-11-15T11:56:13Z</time>
      </trkpt>
      <trkpt lat="44.61208" lon="6.0546">
        <ele>1616.594238</ele>
        <time>2011-11-15T11:56:11Z</time>
      </trkpt>
      <trkpt lat="44.61201" lon="6.05465">
        <ele>1615.152344</ele>
        <time>2011-11-15T11:56:02Z</time>
      </trkpt>
      <trkpt lat="44.61187" lon="6.05469">
        <ele>1615.152344</ele>
        <time>2011-11-15T11:55:50Z</time>
      </trkpt>
      <trkpt lat="44.61182" lon="6.05469">
        <ele>1614.190918</ele>
        <time>2011-11-15T11:55:46Z</time>
      </trkpt>
      <trkpt lat="44.61178" lon="6.05471">
        <ele>1613.229736</ele>
        <time>2011-11-15T11:55:42Z</time>
      </trkpt>
      <trkpt lat="44.61163" lon="6.05477">
        <ele>1611.787598</ele>
        <time>2011-11-15T11:55:28Z</time>
      </trkpt>
      <trkpt lat="44.61159" lon="6.05478">
        <ele>1611.306885</ele>
        <time>2011-11-15T11:55:25Z</time>
      </trkpt>
      <trkpt lat="44.61156" lon="6.05478">
        <ele>1611.787598</ele>
        <time>2011-11-15T11:55:23Z</time>
      </trkpt>
      <trkpt lat="44.6115" lon="6.05479">
        <ele>1610.345459</ele>
        <time>2011-11-15T11:55:17Z</time>
      </trkpt>
      <trkpt lat="44.61145" lon="6.05484">
        <ele>1609.864746</ele>
        <time>2011-11-15T11:55:11Z</time>
      </trkpt>
      <trkpt lat="44.61129" lon="6.05489">
        <ele>1608.903564</ele>
        <time>2011-11-15T11:54:57Z</time>
      </trkpt>
      <trkpt lat="44.61114" lon="6.05492">
        <ele>1607.46167</ele>
        <time>2011-11-15T11:54:44Z</time>
      </trkpt>
      <trkpt lat="44.61109" lon="6.05495">
        <ele>1606.500244</ele>
        <time>2011-11-15T11:54:40Z</time>
      </trkpt>
      <trkpt lat="44.61103" lon="6.055">
        <ele>1606.019531</ele>
        <time>2011-11-15T11:54:34Z</time>
      </trkpt>
      <trkpt lat="44.611" lon="6.05501">
        <ele>1605.539063</ele>
        <time>2011-11-15T11:54:31Z</time>
      </trkpt>
      <trkpt lat="44.61093" lon="6.05509">
        <ele>1604.097168</ele>
        <time>2011-11-15T11:54:22Z</time>
      </trkpt>
      <trkpt lat="44.61078" lon="6.05518">
        <ele>1603.135742</ele>
        <time>2011-11-15T11:54:08Z</time>
      </trkpt>
      <trkpt lat="44.61075" lon="6.05521">
        <ele>1603.135742</ele>
        <time>2011-11-15T11:54:05Z</time>
      </trkpt>
      <trkpt lat="44.61069" lon="6.05525">
        <ele>1602.174316</ele>
        <time>2011-11-15T11:53:59Z</time>
      </trkpt>
      <trkpt lat="44.61055" lon="6.05537">
        <ele>1601.693848</ele>
        <time>2011-11-15T11:53:45Z</time>
      </trkpt>
      <trkpt lat="44.61053" lon="6.05539">
        <ele>1601.213135</ele>
        <time>2011-11-15T11:53:43Z</time>
      </trkpt>
      <trkpt lat="44.61048" lon="6.05542">
        <ele>1600.251953</ele>
        <time>2011-11-15T11:53:40Z</time>
      </trkpt>
      <trkpt lat="44.61038" lon="6.05551">
        <ele>1599.290527</ele>
        <time>2011-11-15T11:53:28Z</time>
      </trkpt>
      <trkpt lat="44.61023" lon="6.0556">
        <ele>1597.36792</ele>
        <time>2011-11-15T11:53:12Z</time>
      </trkpt>
      <trkpt lat="44.61013" lon="6.0557">
        <ele>1597.36792</ele>
        <time>2011-11-15T11:53:03Z</time>
      </trkpt>
      <trkpt lat="44.60999" lon="6.05582">
        <ele>1595.445068</ele>
        <time>2011-11-15T11:52:51Z</time>
      </trkpt>
      <trkpt lat="44.60995" lon="6.05583">
        <ele>1594.964355</ele>
        <time>2011-11-15T11:52:45Z</time>
      </trkpt>
      <trkpt lat="44.60991" lon="6.05586">
        <ele>1594.483643</ele>
        <time>2011-11-15T11:52:41Z</time>
      </trkpt>
      <trkpt lat="44.6099" lon="6.05586">
        <ele>1594.483643</ele>
        <time>2011-11-15T11:52:40Z</time>
      </trkpt>
      <trkpt lat="44.6098" lon="6.05591">
        <ele>1593.041748</ele>
        <time>2011-11-15T11:52:29Z</time>
      </trkpt>
      <trkpt lat="44.6096" lon="6.05597">
        <ele>1591.599854</ele>
        <time>2011-11-15T11:52:17Z</time>
      </trkpt>
      <trkpt lat="44.60943" lon="6.05609">
        <ele>1590.638428</ele>
        <time>2011-11-15T11:52:04Z</time>
      </trkpt>
      <trkpt lat="44.60933" lon="6.05614">
        <ele>1589.677246</ele>
        <time>2011-11-15T11:51:54Z</time>
      </trkpt>
      <trkpt lat="44.60931" lon="6.05615">
        <ele>1588.716064</ele>
        <time>2011-11-15T11:51:52Z</time>
      </trkpt>
      <trkpt lat="44.6093" lon="6.05619">
        <ele>1588.235352</ele>
        <time>2011-11-15T11:51:49Z</time>
      </trkpt>
      <trkpt lat="44.60928" lon="6.0562">
        <ele>1588.716064</ele>
        <time>2011-11-15T11:51:47Z</time>
      </trkpt>
      <trkpt lat="44.60924" lon="6.05624">
        <ele>1587.754639</ele>
        <time>2011-11-15T11:51:42Z</time>
      </trkpt>
      <trkpt lat="44.60916" lon="6.05629">
        <ele>1586.793213</ele>
        <time>2011-11-15T11:51:35Z</time>
      </trkpt>
      <trkpt lat="44.60915" lon="6.05631">
        <ele>1586.312744</ele>
        <time>2011-11-15T11:51:33Z</time>
      </trkpt>
      <trkpt lat="44.609" lon="6.05646">
        <ele>1585.351318</ele>
        <time>2011-11-15T11:51:19Z</time>
      </trkpt>
      <trkpt lat="44.60893" lon="6.05649">
        <ele>1584.390137</ele>
        <time>2011-11-15T11:51:14Z</time>
      </trkpt>
      <trkpt lat="44.60891" lon="6.05651">
        <ele>1584.390137</ele>
        <time>2011-11-15T11:51:12Z</time>
      </trkpt>
      <trkpt lat="44.60888" lon="6.05652">
        <ele>1584.390137</ele>
        <time>2011-11-15T11:51:10Z</time>
      </trkpt>
      <trkpt lat="44.6088" lon="6.05656">
        <ele>1583.909424</ele>
        <time>2011-11-15T11:51:04Z</time>
      </trkpt>
      <trkpt lat="44.60867" lon="6.05668">
        <ele>1581.986816</ele>
        <time>2011-11-15T11:50:51Z</time>
      </trkpt>
      <trkpt lat="44.60861" lon="6.05679">
        <ele>1581.025635</ele>
        <time>2011-11-15T11:50:43Z</time>
      </trkpt>
      <trkpt lat="44.60857" lon="6.05686">
        <ele>1581.025635</ele>
        <time>2011-11-15T11:50:38Z</time>
      </trkpt>
      <trkpt lat="44.60843" lon="6.05697">
        <ele>1580.064209</ele>
        <time>2011-11-15T11:50:26Z</time>
      </trkpt>
      <trkpt lat="44.6084" lon="6.05698">
        <ele>1580.064209</ele>
        <time>2011-11-15T11:50:24Z</time>
      </trkpt>
      <trkpt lat="44.60834" lon="6.05705">
        <ele>1579.583252</ele>
        <time>2011-11-15T11:50:17Z</time>
      </trkpt>
      <trkpt lat="44.60817" lon="6.05721">
        <ele>1578.141357</ele>
        <time>2011-11-15T11:50:02Z</time>
      </trkpt>
      <trkpt lat="44.60815" lon="6.05722">
        <ele>1578.62207</ele>
        <time>2011-11-15T11:50:00Z</time>
      </trkpt>
      <trkpt lat="44.60795" lon="6.05728">
        <ele>1577.180176</ele>
        <time>2011-11-15T11:49:45Z</time>
      </trkpt>
      <trkpt lat="44.60787" lon="6.05733">
        <ele>1577.660645</ele>
        <time>2011-11-15T11:49:40Z</time>
      </trkpt>
      <trkpt lat="44.6077" lon="6.05741">
        <ele>1576.21875</ele>
        <time>2011-11-15T11:49:27Z</time>
      </trkpt>
      <trkpt lat="44.60762" lon="6.05751">
        <ele>1574.776855</ele>
        <time>2011-11-15T11:49:17Z</time>
      </trkpt>
      <trkpt lat="44.60761" lon="6.05751">
        <ele>1574.776855</ele>
        <time>2011-11-15T11:49:16Z</time>
      </trkpt>
      <trkpt lat="44.60761" lon="6.05771">
        <ele>1573.334961</ele>
        <time>2011-11-15T11:49:01Z</time>
      </trkpt>
      <trkpt lat="44.60763" lon="6.05783">
        <ele>1572.373535</ele>
        <time>2011-11-15T11:48:53Z</time>
      </trkpt>
      <trkpt lat="44.60767" lon="6.05798">
        <ele>1570.931641</ele>
        <time>2011-11-15T11:48:45Z</time>
      </trkpt>
      <trkpt lat="44.60771" lon="6.05803">
        <ele>1569.970215</ele>
        <time>2011-11-15T11:48:39Z</time>
      </trkpt>
      <trkpt lat="44.60781" lon="6.05822">
        <ele>1568.047607</ele>
        <time>2011-11-15T11:48:28Z</time>
      </trkpt>
      <trkpt lat="44.60781" lon="6.05831">
        <ele>1567.086426</ele>
        <time>2011-11-15T11:48:21Z</time>
      </trkpt>
      <trkpt lat="44.6078" lon="6.0584">
        <ele>1566.605713</ele>
        <time>2011-11-15T11:48:15Z</time>
      </trkpt>
      <trkpt lat="44.6078" lon="6.05843">
        <ele>1565.644531</ele>
        <time>2011-11-15T11:48:13Z</time>
      </trkpt>
      <trkpt lat="44.60776" lon="6.05847">
        <ele>1565.644531</ele>
        <time>2011-11-15T11:48:08Z</time>
      </trkpt>
      <trkpt lat="44.6077" lon="6.05855">
        <ele>1565.163818</ele>
        <time>2011-11-15T11:48:02Z</time>
      </trkpt>
      <trkpt lat="44.60762" lon="6.05861">
        <ele>1564.202393</ele>
        <time>2011-11-15T11:47:55Z</time>
      </trkpt>
      <trkpt lat="44.60758" lon="6.05863">
        <ele>1563.240967</ele>
        <time>2011-11-15T11:47:50Z</time>
      </trkpt>
      <trkpt lat="44.60749" lon="6.05866">
        <ele>1562.760254</ele>
        <time>2011-11-15T11:47:42Z</time>
      </trkpt>
      <trkpt lat="44.60733" lon="6.05855">
        <ele>1561.799072</ele>
        <time>2011-11-15T11:47:29Z</time>
      </trkpt>
      <trkpt lat="44.60725" lon="6.05843">
        <ele>1560.356934</ele>
        <time>2011-11-15T11:47:18Z</time>
      </trkpt>
      <trkpt lat="44.60721" lon="6.05838">
        <ele>1560.356934</ele>
        <time>2011-11-15T11:47:14Z</time>
      </trkpt>
      <trkpt lat="44.60718" lon="6.05837">
        <ele>1560.356934</ele>
        <time>2011-11-15T11:47:12Z</time>
      </trkpt>
      <trkpt lat="44.60716" lon="6.05837">
        <ele>1559.876221</ele>
        <time>2011-11-15T11:47:10Z</time>
      </trkpt>
      <trkpt lat="44.60697" lon="6.05848">
        <ele>1558.434326</ele>
        <time>2011-11-15T11:46:56Z</time>
      </trkpt>
      <trkpt lat="44.60686" lon="6.0586">
        <ele>1556.992432</ele>
        <time>2011-11-15T11:46:44Z</time>
      </trkpt>
      <trkpt lat="44.60683" lon="6.05861">
        <ele>1557.473145</ele>
        <time>2011-11-15T11:46:42Z</time>
      </trkpt>
      <trkpt lat="44.60666" lon="6.05887">
        <ele>1554.589111</ele>
        <time>2011-11-15T11:46:21Z</time>
      </trkpt>
      <trkpt lat="44.60664" lon="6.05893">
        <ele>1554.589111</ele>
        <time>2011-11-15T11:46:17Z</time>
      </trkpt>
      <trkpt lat="44.60663" lon="6.05894">
        <ele>1554.589111</ele>
        <time>2011-11-15T11:46:16Z</time>
      </trkpt>
      <trkpt lat="44.60654" lon="6.05911">
        <ele>1553.147217</ele>
        <time>2011-11-15T11:46:03Z</time>
      </trkpt>
      <trkpt lat="44.60652" lon="6.05917">
        <ele>1552.666504</ele>
        <time>2011-11-15T11:45:59Z</time>
      </trkpt>
      <trkpt lat="44.60649" lon="6.05923">
        <ele>1552.185791</ele>
        <time>2011-11-15T11:45:55Z</time>
      </trkpt>
      <trkpt lat="44.60645" lon="6.05927">
        <ele>1551.224609</ele>
        <time>2011-11-15T11:45:52Z</time>
      </trkpt>
      <trkpt lat="44.60634" lon="6.05935">
        <ele>1550.263428</ele>
        <time>2011-11-15T11:45:43Z</time>
      </trkpt>
      <trkpt lat="44.60632" lon="6.05936">
        <ele>1550.263428</ele>
        <time>2011-11-15T11:45:41Z</time>
      </trkpt>
      <trkpt lat="44.6063" lon="6.05937">
        <ele>1549.782715</ele>
        <time>2011-11-15T11:45:39Z</time>
      </trkpt>
      <trkpt lat="44.6062" lon="6.05937">
        <ele>1549.302002</ele>
        <time>2011-11-15T11:45:29Z</time>
      </trkpt>
      <trkpt lat="44.60617" lon="6.05935">
        <ele>1548.340576</ele>
        <time>2011-11-15T11:45:26Z</time>
      </trkpt>
      <trkpt lat="44.60613" lon="6.0593">
        <ele>1547.859863</ele>
        <time>2011-11-15T11:45:22Z</time>
      </trkpt>
      <trkpt lat="44.60605" lon="6.05927">
        <ele>1547.37915</ele>
        <time>2011-11-15T11:45:14Z</time>
      </trkpt>
      <trkpt lat="44.60602" lon="6.05923">
        <ele>1547.37915</ele>
        <time>2011-11-15T11:45:12Z</time>
      </trkpt>
      <trkpt lat="44.60595" lon="6.05912">
        <ele>1546.417969</ele>
        <time>2011-11-15T11:45:03Z</time>
      </trkpt>
      <trkpt lat="44.6059" lon="6.0591">
        <ele>1545.456543</ele>
        <time>2011-11-15T11:44:59Z</time>
      </trkpt>
      <trkpt lat="44.60587" lon="6.05909">
        <ele>1544.014648</ele>
        <time>2011-11-15T11:44:56Z</time>
      </trkpt>
      <trkpt lat="44.60579" lon="6.05899">
        <ele>1544.495117</ele>
        <time>2011-11-15T11:44:48Z</time>
      </trkpt>
      <trkpt lat="44.60577" lon="6.05897">
        <ele>1543.533936</ele>
        <time>2011-11-15T11:44:46Z</time>
      </trkpt>
      <trkpt lat="44.60569" lon="6.05888">
        <ele>1543.533936</ele>
        <time>2011-11-15T11:44:39Z</time>
      </trkpt>
      <trkpt lat="44.60565" lon="6.05884">
        <ele>1542.572754</ele>
        <time>2011-11-15T11:44:36Z</time>
      </trkpt>
      <trkpt lat="44.60562" lon="6.05878">
        <ele>1542.092041</ele>
        <time>2011-11-15T11:44:32Z</time>
      </trkpt>
      <trkpt lat="44.60554" lon="6.05865">
        <ele>1541.130615</ele>
        <time>2011-11-15T11:44:25Z</time>
      </trkpt>
      <trkpt lat="44.60552" lon="6.0586">
        <ele>1540.649902</ele>
        <time>2011-11-15T11:44:22Z</time>
      </trkpt>
      <trkpt lat="44.60547" lon="6.05851">
        <ele>1540.649902</ele>
        <time>2011-11-15T11:44:17Z</time>
      </trkpt>
      <trkpt lat="44.60541" lon="6.05845">
        <ele>1540.649902</ele>
        <time>2011-11-15T11:44:12Z</time>
      </trkpt>
      <trkpt lat="44.6054" lon="6.05842">
        <ele>1541.130615</ele>
        <time>2011-11-15T11:44:10Z</time>
      </trkpt>
      <trkpt lat="44.60532" lon="6.05831">
        <ele>1539.688721</ele>
        <time>2011-11-15T11:44:02Z</time>
      </trkpt>
      <trkpt lat="44.6051" lon="6.05817">
        <ele>1539.688721</ele>
        <time>2011-11-15T11:43:49Z</time>
      </trkpt>
      <trkpt lat="44.60502" lon="6.05816">
        <ele>1539.208008</ele>
        <time>2011-11-15T11:43:44Z</time>
      </trkpt>
      <trkpt lat="44.60499" lon="6.0583">
        <ele>1538.727539</ele>
        <time>2011-11-15T11:43:38Z</time>
      </trkpt>
      <trkpt lat="44.60499" lon="6.0583">
        <ele>1538.246826</ele>
        <time>2011-11-15T11:43:36Z</time>
      </trkpt>
      <trkpt lat="44.60515" lon="6.05835">
        <ele>1536.324219</ele>
        <time>2011-11-15T11:43:22Z</time>
      </trkpt>
      <trkpt lat="44.60528" lon="6.05846">
        <ele>1535.843506</ele>
        <time>2011-11-15T11:43:14Z</time>
      </trkpt>
      <trkpt lat="44.60531" lon="6.05849">
        <ele>1537.766113</ele>
        <time>2011-11-15T11:43:12Z</time>
      </trkpt>
      <trkpt lat="44.60547" lon="6.05854">
        <ele>1535.362793</ele>
        <time>2011-11-15T11:43:08Z</time>
      </trkpt>
      <trkpt lat="44.60549" lon="6.05856">
        <ele>1535.362793</ele>
        <time>2011-11-15T11:43:07Z</time>
      </trkpt>
      <trkpt lat="44.60554" lon="6.05888">
        <ele>1535.843506</ele>
        <time>2011-11-15T11:42:54Z</time>
      </trkpt>
      <trkpt lat="44.6057" lon="6.05922">
        <ele>1535.362793</ele>
        <time>2011-11-15T11:42:39Z</time>
      </trkpt>
      <trkpt lat="44.60588" lon="6.05954">
        <ele>1535.843506</ele>
        <time>2011-11-15T11:42:25Z</time>
      </trkpt>
      <trkpt lat="44.60601" lon="6.0598">
        <ele>1535.843506</ele>
        <time>2011-11-15T11:42:11Z</time>
      </trkpt>
      <trkpt lat="44.60624" lon="6.06012">
        <ele>1535.362793</ele>
        <time>2011-11-15T11:41:51Z</time>
      </trkpt>
      <trkpt lat="44.60639" lon="6.06026">
        <ele>1534.882324</ele>
        <time>2011-11-15T11:41:39Z</time>
      </trkpt>
      <trkpt lat="44.60642" lon="6.06026">
        <ele>1534.401611</ele>
        <time>2011-11-15T11:41:36Z</time>
      </trkpt>
      <trkpt lat="44.60652" lon="6.06027">
        <ele>1534.401611</ele>
        <time>2011-11-15T11:41:27Z</time>
      </trkpt>
      <trkpt lat="44.60662" lon="6.06025">
        <ele>1533.440186</ele>
        <time>2011-11-15T11:41:20Z</time>
      </trkpt>
      <trkpt lat="44.60669" lon="6.06022">
        <ele>1532.959473</ele>
        <time>2011-11-15T11:41:17Z</time>
      </trkpt>
      <trkpt lat="44.60669" lon="6.06022">
        <ele>1532.959473</ele>
        <time>2011-11-15T11:41:14Z</time>
      </trkpt>
      <trkpt lat="44.60701" lon="6.06023">
        <ele>1531.998047</ele>
        <time>2011-11-15T11:40:54Z</time>
      </trkpt>
      <trkpt lat="44.60703" lon="6.06024">
        <ele>1531.036865</ele>
        <time>2011-11-15T11:40:46Z</time>
      </trkpt>
      <trkpt lat="44.60722" lon="6.06039">
        <ele>1529.114014</ele>
        <time>2011-11-15T11:40:30Z</time>
      </trkpt>
      <trkpt lat="44.60722" lon="6.06039">
        <ele>1529.114014</ele>
        <time>2011-11-15T11:40:28Z</time>
      </trkpt>
      <trkpt lat="44.60746" lon="6.06054">
        <ele>1527.19165</ele>
        <time>2011-11-15T11:40:12Z</time>
      </trkpt>
      <trkpt lat="44.60746" lon="6.06054">
        <ele>1526.710938</ele>
        <time>2011-11-15T11:40:06Z</time>
      </trkpt>
      <trkpt lat="44.60749" lon="6.06055">
        <ele>1526.230225</ele>
        <time>2011-11-15T11:40:03Z</time>
      </trkpt>
      <trkpt lat="44.60766" lon="6.06065">
        <ele>1525.749512</ele>
        <time>2011-11-15T11:39:58Z</time>
      </trkpt>
      <trkpt lat="44.60773" lon="6.06069">
        <ele>1524.78833</ele>
        <time>2011-11-15T11:39:45Z</time>
      </trkpt>
      <trkpt lat="44.60777" lon="6.06071">
        <ele>1524.307617</ele>
        <time>2011-11-15T11:39:39Z</time>
      </trkpt>
      <trkpt lat="44.60781" lon="6.06072">
        <ele>1523.826904</ele>
        <time>2011-11-15T11:39:33Z</time>
      </trkpt>
      <trkpt lat="44.6079" lon="6.06076">
        <ele>1523.346436</ele>
        <time>2011-11-15T11:39:30Z</time>
      </trkpt>
      <trkpt lat="44.60793" lon="6.06077">
        <ele>1522.38501</ele>
        <time>2011-11-15T11:39:21Z</time>
      </trkpt>
      <trkpt lat="44.60794" lon="6.06078">
        <ele>1521.904297</ele>
        <time>2011-11-15T11:39:19Z</time>
      </trkpt>
      <trkpt lat="44.60814" lon="6.06085">
        <ele>1519.981689</ele>
        <time>2011-11-15T11:39:03Z</time>
      </trkpt>
      <trkpt lat="44.60826" lon="6.0609">
        <ele>1518.059082</ele>
        <time>2011-11-15T11:38:49Z</time>
      </trkpt>
      <trkpt lat="44.60877" lon="6.06119">
        <ele>1517.578369</ele>
        <time>2011-11-15T11:38:42Z</time>
      </trkpt>
      <trkpt lat="44.60877" lon="6.06119">
        <ele>1516.617188</ele>
        <time>2011-11-15T11:38:31Z</time>
      </trkpt>
      <trkpt lat="44.60877" lon="6.06119">
        <ele>1515.175049</ele>
        <time>2011-11-15T11:38:20Z</time>
      </trkpt>
      <trkpt lat="44.60881" lon="6.06119">
        <ele>1513.73291</ele>
        <time>2011-11-15T11:38:06Z</time>
      </trkpt>
      <trkpt lat="44.60891" lon="6.06123">
        <ele>1513.73291</ele>
        <time>2011-11-15T11:38:03Z</time>
      </trkpt>
      <trkpt lat="44.60896" lon="6.06125">
        <ele>1512.771729</ele>
        <time>2011-11-15T11:37:56Z</time>
      </trkpt>
      <trkpt lat="44.60905" lon="6.06129">
        <ele>1513.252441</ele>
        <time>2011-11-15T11:37:47Z</time>
      </trkpt>
      <trkpt lat="44.6092" lon="6.06135">
        <ele>1512.771729</ele>
        <time>2011-11-15T11:37:39Z</time>
      </trkpt>
      <trkpt lat="44.60926" lon="6.06138">
        <ele>1512.771729</ele>
        <time>2011-11-15T11:37:32Z</time>
      </trkpt>
      <trkpt lat="44.60931" lon="6.06142">
        <ele>1511.810547</ele>
        <time>2011-11-15T11:37:27Z</time>
      </trkpt>
      <trkpt lat="44.60942" lon="6.06153">
        <ele>1511.810547</ele>
        <time>2011-11-15T11:37:19Z</time>
      </trkpt>
      <trkpt lat="44.60942" lon="6.06153">
        <ele>1510.849121</ele>
        <time>2011-11-15T11:37:11Z</time>
      </trkpt>
      <trkpt lat="44.60942" lon="6.06153">
        <ele>1511.329834</ele>
        <time>2011-11-15T11:37:04Z</time>
      </trkpt>
      <trkpt lat="44.60942" lon="6.06153">
        <ele>1511.329834</ele>
        <time>2011-11-15T11:36:52Z</time>
      </trkpt>
      <trkpt lat="44.60941" lon="6.06157">
        <ele>1510.849121</ele>
        <time>2011-11-15T11:36:48Z</time>
      </trkpt>
      <trkpt lat="44.60941" lon="6.06157">
        <ele>1510.849121</ele>
        <time>2011-11-15T11:36:46Z</time>
      </trkpt>
      <trkpt lat="44.60919" lon="6.06184">
        <ele>1509.407227</ele>
        <time>2011-11-15T11:36:37Z</time>
      </trkpt>
      <trkpt lat="44.60919" lon="6.06184">
        <ele>1508.926514</ele>
        <time>2011-11-15T11:36:29Z</time>
      </trkpt>
      <trkpt lat="44.60919" lon="6.06184">
        <ele>1507.003906</ele>
        <time>2011-11-15T11:36:16Z</time>
      </trkpt>
      <trkpt lat="44.60913" lon="6.06188">
        <ele>1505.562012</ele>
        <time>2011-11-15T11:36:09Z</time>
      </trkpt>
      <trkpt lat="44.60902" lon="6.06197">
        <ele>1503.639404</ele>
        <time>2011-11-15T11:35:58Z</time>
      </trkpt>
      <trkpt lat="44.6089" lon="6.06204">
        <ele>1501.236084</ele>
        <time>2011-11-15T11:35:43Z</time>
      </trkpt>
      <trkpt lat="44.60885" lon="6.06205">
        <ele>1500.755371</ele>
        <time>2011-11-15T11:35:39Z</time>
      </trkpt>
      <trkpt lat="44.6087" lon="6.06205">
        <ele>1498.351807</ele>
        <time>2011-11-15T11:35:25Z</time>
      </trkpt>
      <trkpt lat="44.60856" lon="6.06208">
        <ele>1495.94873</ele>
        <time>2011-11-15T11:35:13Z</time>
      </trkpt>
      <trkpt lat="44.60836" lon="6.06211">
        <ele>1494.506592</ele>
        <time>2011-11-15T11:34:57Z</time>
      </trkpt>
      <trkpt lat="44.60821" lon="6.06211">
        <ele>1493.064697</ele>
        <time>2011-11-15T11:34:44Z</time>
      </trkpt>
      <trkpt lat="44.60819" lon="6.06211">
        <ele>1492.584229</ele>
        <time>2011-11-15T11:34:41Z</time>
      </trkpt>
      <trkpt lat="44.60811" lon="6.06211">
        <ele>1491.622803</ele>
        <time>2011-11-15T11:34:32Z</time>
      </trkpt>
      <trkpt lat="44.60796" lon="6.06216">
        <ele>1489.700195</ele>
        <time>2011-11-15T11:34:17Z</time>
      </trkpt>
      <trkpt lat="44.60782" lon="6.06218">
        <ele>1488.739014</ele>
        <time>2011-11-15T11:34:04Z</time>
      </trkpt>
      <trkpt lat="44.60777" lon="6.06218">
        <ele>1488.258301</ele>
        <time>2011-11-15T11:34:01Z</time>
      </trkpt>
      <trkpt lat="44.60761" lon="6.06218">
        <ele>1487.296875</ele>
        <time>2011-11-15T11:33:48Z</time>
      </trkpt>
      <trkpt lat="44.60738" lon="6.06222">
        <ele>1485.374268</ele>
        <time>2011-11-15T11:33:33Z</time>
      </trkpt>
      <trkpt lat="44.60715" lon="6.06221">
        <ele>1484.413086</ele>
        <time>2011-11-15T11:33:20Z</time>
      </trkpt>
      <trkpt lat="44.60696" lon="6.06231">
        <ele>1482.009521</ele>
        <time>2011-11-15T11:33:06Z</time>
      </trkpt>
      <trkpt lat="44.60694" lon="6.06232">
        <ele>1480.567627</ele>
        <time>2011-11-15T11:32:59Z</time>
      </trkpt>
      <trkpt lat="44.6069" lon="6.06236">
        <ele>1480.086914</ele>
        <time>2011-11-15T11:32:56Z</time>
      </trkpt>
      <trkpt lat="44.60685" lon="6.06238">
        <ele>1479.125488</ele>
        <time>2011-11-15T11:32:52Z</time>
      </trkpt>
      <trkpt lat="44.60685" lon="6.06238">
        <ele>1479.125488</ele>
        <time>2011-11-15T11:32:50Z</time>
      </trkpt>
      <trkpt lat="44.60682" lon="6.06239">
        <ele>1477.683594</ele>
        <time>2011-11-15T11:32:45Z</time>
      </trkpt>
      <trkpt lat="44.60682" lon="6.06239">
        <ele>1477.683594</ele>
        <time>2011-11-15T11:32:44Z</time>
      </trkpt>
      <trkpt lat="44.60668" lon="6.06239">
        <ele>1475.280273</ele>
        <time>2011-11-15T11:32:31Z</time>
      </trkpt>
      <trkpt lat="44.60657" lon="6.06241">
        <ele>1474.799805</ele>
        <time>2011-11-15T11:32:25Z</time>
      </trkpt>
      <trkpt lat="44.60651" lon="6.06241">
        <ele>1472.877197</ele>
        <time>2011-11-15T11:32:17Z</time>
      </trkpt>
      <trkpt lat="44.60637" lon="6.06243">
        <ele>1472.396484</ele>
        <time>2011-11-15T11:32:04Z</time>
      </trkpt>
      <trkpt lat="44.60633" lon="6.06244">
        <ele>1471.915771</ele>
        <time>2011-11-15T11:32:00Z</time>
      </trkpt>
      <trkpt lat="44.60615" lon="6.06248">
        <ele>1470.473877</ele>
        <time>2011-11-15T11:31:44Z</time>
      </trkpt>
      <trkpt lat="44.60599" lon="6.06252">
        <ele>1469.031982</ele>
        <time>2011-11-15T11:31:29Z</time>
      </trkpt>
      <trkpt lat="44.60571" lon="6.06221">
        <ele>1468.55127</ele>
        <time>2011-11-15T11:31:25Z</time>
      </trkpt>
      <trkpt lat="44.60571" lon="6.06221">
        <ele>1468.55127</ele>
        <time>2011-11-15T11:31:21Z</time>
      </trkpt>
      <trkpt lat="44.60571" lon="6.06221">
        <ele>1468.070557</ele>
        <time>2011-11-15T11:31:07Z</time>
      </trkpt>
      <trkpt lat="44.60571" lon="6.06221">
        <ele>1466.628418</ele>
        <time>2011-11-15T11:30:57Z</time>
      </trkpt>
      <trkpt lat="44.60571" lon="6.06221">
        <ele>1464.225098</ele>
        <time>2011-11-15T11:30:46Z</time>
      </trkpt>
      <trkpt lat="44.60566" lon="6.0621">
        <ele>1462.30249</ele>
        <time>2011-11-15T11:30:31Z</time>
      </trkpt>
      <trkpt lat="44.60566" lon="6.0621">
        <ele>1462.30249</ele>
        <time>2011-11-15T11:30:28Z</time>
      </trkpt>
      <trkpt lat="44.60564" lon="6.06206">
        <ele>1460.379883</ele>
        <time>2011-11-15T11:30:15Z</time>
      </trkpt>
      <trkpt lat="44.60551" lon="6.06191">
        <ele>1459.89917</ele>
        <time>2011-11-15T11:30:11Z</time>
      </trkpt>
      <trkpt lat="44.60551" lon="6.06191">
        <ele>1458.937988</ele>
        <time>2011-11-15T11:30:03Z</time>
      </trkpt>
      <trkpt lat="44.60551" lon="6.06191">
        <ele>1457.976807</ele>
        <time>2011-11-15T11:29:57Z</time>
      </trkpt>
      <trkpt lat="44.60539" lon="6.06179">
        <ele>1457.496094</ele>
        <time>2011-11-15T11:29:52Z</time>
      </trkpt>
      <trkpt lat="44.60537" lon="6.06177">
        <ele>1455.092773</ele>
        <time>2011-11-15T11:29:40Z</time>
      </trkpt>
      <trkpt lat="44.60533" lon="6.06172">
        <ele>1454.612061</ele>
        <time>2011-11-15T11:29:35Z</time>
      </trkpt>
      <trkpt lat="44.6053" lon="6.06169">
        <ele>1454.131592</ele>
        <time>2011-11-15T11:29:32Z</time>
      </trkpt>
      <trkpt lat="44.60525" lon="6.06164">
        <ele>1453.650879</ele>
        <time>2011-11-15T11:29:26Z</time>
      </trkpt>
      <trkpt lat="44.60509" lon="6.06153">
        <ele>1452.20874</ele>
        <time>2011-11-15T11:29:15Z</time>
      </trkpt>
      <trkpt lat="44.60464" lon="6.06184">
        <ele>1450.766602</ele>
        <time>2011-11-15T11:29:05Z</time>
      </trkpt>
      <trkpt lat="44.60464" lon="6.06184">
        <ele>1450.766602</ele>
        <time>2011-11-15T11:29:03Z</time>
      </trkpt>
      <trkpt lat="44.60464" lon="6.06184">
        <ele>1447.882813</ele>
        <time>2011-11-15T11:28:50Z</time>
      </trkpt>
      <trkpt lat="44.60464" lon="6.06184">
        <ele>1447.882813</ele>
        <time>2011-11-15T11:28:40Z</time>
      </trkpt>
      <trkpt lat="44.60464" lon="6.06184">
        <ele>1447.882813</ele>
        <time>2011-11-15T11:28:33Z</time>
      </trkpt>
      <trkpt lat="44.60464" lon="6.06184">
        <ele>1448.363281</ele>
        <time>2011-11-15T11:28:19Z</time>
      </trkpt>
      <trkpt lat="44.60464" lon="6.06184">
        <ele>1446.921387</ele>
        <time>2011-11-15T11:28:02Z</time>
      </trkpt>
      <trkpt lat="44.60464" lon="6.06184">
        <ele>1445.479492</ele>
        <time>2011-11-15T11:27:48Z</time>
      </trkpt>
      <trkpt lat="44.60464" lon="6.06184">
        <ele>1444.998779</ele>
        <time>2011-11-15T11:27:18Z</time>
      </trkpt>
      <trkpt lat="44.60464" lon="6.06184">
        <ele>1444.037598</ele>
        <time>2011-11-15T11:26:59Z</time>
      </trkpt>
      <trkpt lat="44.60464" lon="6.06184">
        <ele>1442.11499</ele>
        <time>2011-11-15T11:25:25Z</time>
      </trkpt>
      <trkpt lat="44.60464" lon="6.06184">
        <ele>1441.634277</ele>
        <time>2011-11-15T11:24:36Z</time>
      </trkpt>
      <trkpt lat="44.60464" lon="6.06184">
        <ele>1440.672852</ele>
        <time>2011-11-15T11:24:04Z</time>
      </trkpt>
      <trkpt lat="44.60464" lon="6.06184">
        <ele>1440.672852</ele>
        <time>2011-11-15T11:23:10Z</time>
      </trkpt>
      <trkpt lat="44.60464" lon="6.06184">
        <ele>1441.153564</ele>
        <time>2011-11-15T11:22:36Z</time>
      </trkpt>
      <trkpt lat="44.60464" lon="6.06184">
        <ele>1440.672852</ele>
        <time>2011-11-15T11:20:22Z</time>
      </trkpt>
      <trkpt lat="44.60464" lon="6.06184">
        <ele>1439.230957</ele>
        <time>2011-11-15T11:20:03Z</time>
      </trkpt>
      <trkpt lat="44.60464" lon="6.06184">
        <ele>1439.230957</ele>
        <time>2011-11-15T11:19:49Z</time>
      </trkpt>
      <trkpt lat="44.60464" lon="6.06184">
        <ele>1440.672852</ele>
        <time>2011-11-15T11:18:56Z</time>
      </trkpt>
      <trkpt lat="44.60464" lon="6.06184">
        <ele>1439.71167</ele>
        <time>2011-11-15T11:17:55Z</time>
      </trkpt>
      <trkpt lat="44.60464" lon="6.06184">
        <ele>1441.153564</ele>
        <time>2011-11-15T11:17:54Z</time>
      </trkpt>
      <trkpt lat="44.60464" lon="6.06184">
        <ele>1436.827637</ele>
        <time>2011-11-15T11:17:53Z</time>
      </trkpt>
      <trkpt lat="44.60464" lon="6.06184">
        <ele>1439.230957</ele>
        <time>2011-11-15T11:17:26Z</time>
      </trkpt>
      <trkpt lat="44.60464" lon="6.06184">
        <ele>1438.269775</ele>
        <time>2011-11-15T11:16:54Z</time>
      </trkpt>
      <trkpt lat="44.60464" lon="6.06184">
        <ele>1438.269775</ele>
        <time>2011-11-15T11:16:27Z</time>
      </trkpt>
      <trkpt lat="44.60464" lon="6.06184">
        <ele>1437.789063</ele>
        <time>2011-11-15T11:15:42Z</time>
      </trkpt>
      <trkpt lat="44.60464" lon="6.06184">
        <ele>1438.269775</ele>
        <time>2011-11-15T11:15:17Z</time>
      </trkpt>
      <trkpt lat="44.60464" lon="6.06184">
        <ele>1436.347168</ele>
        <time>2011-11-15T11:14:11Z</time>
      </trkpt>
      <trkpt lat="44.60464" lon="6.06184">
        <ele>1436.827637</ele>
        <time>2011-11-15T11:13:55Z</time>
      </trkpt>
      <trkpt lat="44.60464" lon="6.06184">
        <ele>1437.30835</ele>
        <time>2011-11-15T11:13:46Z</time>
      </trkpt>
      <trkpt lat="44.60464" lon="6.06184">
        <ele>1436.827637</ele>
        <time>2011-11-15T11:13:32Z</time>
      </trkpt>
      <trkpt lat="44.60464" lon="6.06184">
        <ele>1437.789063</ele>
        <time>2011-11-15T11:13:16Z</time>
      </trkpt>
      <trkpt lat="44.60463" lon="6.06184">
        <ele>1436.827637</ele>
        <time>2011-11-15T11:13:06Z</time>
      </trkpt>
      <trkpt lat="44.60463" lon="6.06184">
        <ele>1435.866211</ele>
        <time>2011-11-15T11:12:56Z</time>
      </trkpt>
      <trkpt lat="44.60463" lon="6.06184">
        <ele>1435.866211</ele>
        <time>2011-11-15T11:12:33Z</time>
      </trkpt>
      <trkpt lat="44.60463" lon="6.06184">
        <ele>1435.866211</ele>
        <time>2011-11-15T11:12:13Z</time>
      </trkpt>
      <trkpt lat="44.60456" lon="6.06186">
        <ele>1436.827637</ele>
        <time>2011-11-15T11:12:01Z</time>
      </trkpt>
      <trkpt lat="44.60456" lon="6.06186">
        <ele>1436.347168</ele>
        <time>2011-11-15T11:11:49Z</time>
      </trkpt>
      <trkpt lat="44.60456" lon="6.06186">
        <ele>1435.866211</ele>
        <time>2011-11-15T11:11:37Z</time>
      </trkpt>
      <trkpt lat="44.60456" lon="6.06186">
        <ele>1434.424316</ele>
        <time>2011-11-15T11:11:26Z</time>
      </trkpt>
      <trkpt lat="44.60448" lon="6.06186">
        <ele>1432.982178</ele>
        <time>2011-11-15T11:11:15Z</time>
      </trkpt>
      <trkpt lat="44.60418" lon="6.06181">
        <ele>1432.020996</ele>
        <time>2011-11-15T11:11:03Z</time>
      </trkpt>
      <trkpt lat="44.60418" lon="6.06181">
        <ele>1430.579102</ele>
        <time>2011-11-15T11:10:56Z</time>
      </trkpt>
      <trkpt lat="44.60418" lon="6.06181">
        <ele>1429.617676</ele>
        <time>2011-11-15T11:10:51Z</time>
      </trkpt>
      <trkpt lat="44.6034" lon="6.06181">
        <ele>1429.136963</ele>
        <time>2011-11-15T11:10:41Z</time>
      </trkpt>
      <trkpt lat="44.6034" lon="6.06181">
        <ele>1427.2146</ele>
        <time>2011-11-15T11:10:27Z</time>
      </trkpt>
      <trkpt lat="44.6034" lon="6.06181">
        <ele>1424.811279</ele>
        <time>2011-11-15T11:10:12Z</time>
      </trkpt>
      <trkpt lat="44.6034" lon="6.06181">
        <ele>1423.849854</ele>
        <time>2011-11-15T11:10:03Z</time>
      </trkpt>
      <trkpt lat="44.6034" lon="6.06181">
        <ele>1423.369385</ele>
        <time>2011-11-15T11:09:59Z</time>
      </trkpt>
      <trkpt lat="44.6034" lon="6.06181">
        <ele>1420.966064</ele>
        <time>2011-11-15T11:09:49Z</time>
      </trkpt>
      <trkpt lat="44.6034" lon="6.06181">
        <ele>1421.446533</ele>
        <time>2011-11-15T11:09:35Z</time>
      </trkpt>
      <trkpt lat="44.6034" lon="6.06181">
        <ele>1420.004639</ele>
        <time>2011-11-15T11:09:31Z</time>
      </trkpt>
      <trkpt lat="44.6034" lon="6.06181">
        <ele>1419.043213</ele>
        <time>2011-11-15T11:09:20Z</time>
      </trkpt>
      <trkpt lat="44.6034" lon="6.06181">
        <ele>1415.678711</ele>
        <time>2011-11-15T11:09:06Z</time>
      </trkpt>
      <trkpt lat="44.6034" lon="6.06181">
        <ele>1415.197998</ele>
        <time>2011-11-15T11:08:52Z</time>
      </trkpt>
      <trkpt lat="44.6034" lon="6.06181">
        <ele>1415.678711</ele>
        <time>2011-11-15T11:08:36Z</time>
      </trkpt>
      <trkpt lat="44.60329" lon="6.06173">
        <ele>1414.236572</ele>
        <time>2011-11-15T11:08:23Z</time>
      </trkpt>
      <trkpt lat="44.60318" lon="6.06165">
        <ele>1412.313965</ele>
        <time>2011-11-15T11:08:11Z</time>
      </trkpt>
      <trkpt lat="44.60305" lon="6.06159">
        <ele>1409.910645</ele>
        <time>2011-11-15T11:07:59Z</time>
      </trkpt>
      <trkpt lat="44.60293" lon="6.06156">
        <ele>1407.507568</ele>
        <time>2011-11-15T11:07:45Z</time>
      </trkpt>
      <trkpt lat="44.60285" lon="6.06154">
        <ele>1404.623535</ele>
        <time>2011-11-15T11:07:34Z</time>
      </trkpt>
      <trkpt lat="44.6024" lon="6.06155">
        <ele>1403.181396</ele>
        <time>2011-11-15T11:07:19Z</time>
      </trkpt>
      <trkpt lat="44.6024" lon="6.06155">
        <ele>1401.258789</ele>
        <time>2011-11-15T11:07:02Z</time>
      </trkpt>
      <trkpt lat="44.60232" lon="6.06156">
        <ele>1399.816895</ele>
        <time>2011-11-15T11:06:53Z</time>
      </trkpt>
      <trkpt lat="44.60209" lon="6.06175">
        <ele>1398.855469</ele>
        <time>2011-11-15T11:06:40Z</time>
      </trkpt>
      <trkpt lat="44.60207" lon="6.06174">
        <ele>1398.855469</ele>
        <time>2011-11-15T11:06:34Z</time>
      </trkpt>
      <trkpt lat="44.60202" lon="6.06171">
        <ele>1397.413574</ele>
        <time>2011-11-15T11:06:25Z</time>
      </trkpt>
      <trkpt lat="44.60187" lon="6.06166">
        <ele>1395.97168</ele>
        <time>2011-11-15T11:06:12Z</time>
      </trkpt>
      <trkpt lat="44.60168" lon="6.06156">
        <ele>1395.010254</ele>
        <time>2011-11-15T11:06:00Z</time>
      </trkpt>
      <trkpt lat="44.60174" lon="6.06162">
        <ele>1394.049072</ele>
        <time>2011-11-15T11:05:57Z</time>
      </trkpt>
      <trkpt lat="44.60176" lon="6.06163">
        <ele>1393.568359</ele>
        <time>2011-11-15T11:05:49Z</time>
      </trkpt>
      <trkpt lat="44.60183" lon="6.06165">
        <ele>1392.126465</ele>
        <time>2011-11-15T11:05:43Z</time>
      </trkpt>
      <trkpt lat="44.60224" lon="6.06214">
        <ele>1391.645752</ele>
        <time>2011-11-15T11:05:27Z</time>
      </trkpt>
      <trkpt lat="44.60224" lon="6.06214">
        <ele>1390.684326</ele>
        <time>2011-11-15T11:05:22Z</time>
      </trkpt>
      <trkpt lat="44.60224" lon="6.06214">
        <ele>1388.761963</ele>
        <time>2011-11-15T11:05:09Z</time>
      </trkpt>
      <trkpt lat="44.60236" lon="6.06216">
        <ele>1389.723145</ele>
        <time>2011-11-15T11:05:05Z</time>
      </trkpt>
      <trkpt lat="44.60261" lon="6.06216">
        <ele>1390.203857</ele>
        <time>2011-11-15T11:04:58Z</time>
      </trkpt>
      <trkpt lat="44.60298" lon="6.06221">
        <ele>1392.607178</ele>
        <time>2011-11-15T11:04:50Z</time>
      </trkpt>
      <trkpt lat="44.60298" lon="6.06221">
        <ele>1393.568359</ele>
        <time>2011-11-15T11:02:50Z</time>
      </trkpt>
      <trkpt lat="44.60293" lon="6.06218">
        <ele>1393.568359</ele>
        <time>2011-11-15T11:02:36Z</time>
      </trkpt>
      <trkpt lat="44.60282" lon="6.06216">
        <ele>1392.126465</ele>
        <time>2011-11-15T11:02:30Z</time>
      </trkpt>
      <trkpt lat="44.60278" lon="6.06216">
        <ele>1391.165039</ele>
        <time>2011-11-15T11:02:28Z</time>
      </trkpt>
      <trkpt lat="44.60257" lon="6.06216">
        <ele>1390.203857</ele>
        <time>2011-11-15T11:02:16Z</time>
      </trkpt>
      <trkpt lat="44.60234" lon="6.06216">
        <ele>1387.800293</ele>
        <time>2011-11-15T11:02:04Z</time>
      </trkpt>
      <trkpt lat="44.60234" lon="6.06216">
        <ele>1387.800293</ele>
        <time>2011-11-15T11:01:06Z</time>
      </trkpt>
      <trkpt lat="44.60221" lon="6.06157">
        <ele>1388.761963</ele>
        <time>2011-11-15T11:00:56Z</time>
      </trkpt>
      <trkpt lat="44.6022" lon="6.06189">
        <ele>1389.242432</ele>
        <time>2011-11-15T11:00:54Z</time>
      </trkpt>
      <trkpt lat="44.60196" lon="6.06155">
        <ele>1391.165039</ele>
        <time>2011-11-15T11:00:47Z</time>
      </trkpt>
      <trkpt lat="44.60188" lon="6.06154">
        <ele>1392.126465</ele>
        <time>2011-11-15T11:00:45Z</time>
      </trkpt>
      <trkpt lat="44.6016" lon="6.06151">
        <ele>1394.049072</ele>
        <time>2011-11-15T11:00:34Z</time>
      </trkpt>
      <trkpt lat="44.60122" lon="6.06128">
        <ele>1395.010254</ele>
        <time>2011-11-15T11:00:21Z</time>
      </trkpt>
      <trkpt lat="44.60101" lon="6.06114">
        <ele>1395.97168</ele>
        <time>2011-11-15T11:00:16Z</time>
      </trkpt>
      <trkpt lat="44.60064" lon="6.06106">
        <ele>1395.490967</ele>
        <time>2011-11-15T11:00:04Z</time>
      </trkpt>
      <trkpt lat="44.60032" lon="6.0611">
        <ele>1396.932861</ele>
        <time>2011-11-15T10:59:57Z</time>
      </trkpt>
      <trkpt lat="44.60015" lon="6.06109">
        <ele>1397.894287</ele>
        <time>2011-11-15T10:59:52Z</time>
      </trkpt>
      <trkpt lat="44.59988" lon="6.06091">
        <ele>1397.894287</ele>
        <time>2011-11-15T10:59:35Z</time>
      </trkpt>
      <trkpt lat="44.59967" lon="6.06072">
        <ele>1397.413574</ele>
        <time>2011-11-15T10:59:18Z</time>
      </trkpt>
      <trkpt lat="44.59942" lon="6.06038">
        <ele>1395.490967</ele>
        <time>2011-11-15T10:58:51Z</time>
      </trkpt>
      <trkpt lat="44.59926" lon="6.06011">
        <ele>1393.087646</ele>
        <time>2011-11-15T10:58:33Z</time>
      </trkpt>
      <trkpt lat="44.59918" lon="6.05996">
        <ele>1392.126465</ele>
        <time>2011-11-15T10:58:25Z</time>
      </trkpt>
      <trkpt lat="44.599" lon="6.05964">
        <ele>1389.242432</ele>
        <time>2011-11-15T10:57:57Z</time>
      </trkpt>
      <trkpt lat="44.59888" lon="6.05943">
        <ele>1387.31958</ele>
        <time>2011-11-15T10:57:39Z</time>
      </trkpt>
      <trkpt lat="44.5987" lon="6.05916">
        <ele>1385.877686</ele>
        <time>2011-11-15T10:57:20Z</time>
      </trkpt>
      <trkpt lat="44.59866" lon="6.05912">
        <ele>1385.396973</ele>
        <time>2011-11-15T10:57:18Z</time>
      </trkpt>
      <trkpt lat="44.59848" lon="6.05894">
        <ele>1382.993652</ele>
        <time>2011-11-15T10:57:01Z</time>
      </trkpt>
      <trkpt lat="44.59822" lon="6.05876">
        <ele>1382.513184</ele>
        <time>2011-11-15T10:56:54Z</time>
      </trkpt>
      <trkpt lat="44.59813" lon="6.05872">
        <ele>1382.993652</ele>
        <time>2011-11-15T10:56:52Z</time>
      </trkpt>
      <trkpt lat="44.59799" lon="6.05862">
        <ele>1384.435791</ele>
        <time>2011-11-15T10:56:48Z</time>
      </trkpt>
      <trkpt lat="44.59771" lon="6.05836">
        <ele>1384.916504</ele>
        <time>2011-11-15T10:56:35Z</time>
      </trkpt>
      <trkpt lat="44.59759" lon="6.05826">
        <ele>1384.916504</ele>
        <time>2011-11-15T10:56:28Z</time>
      </trkpt>
      <trkpt lat="44.5974" lon="6.05816">
        <ele>1384.916504</ele>
        <time>2011-11-15T10:56:16Z</time>
      </trkpt>
      <trkpt lat="44.59723" lon="6.05815">
        <ele>1383.474365</ele>
        <time>2011-11-15T10:56:04Z</time>
      </trkpt>
      <trkpt lat="44.59706" lon="6.0581">
        <ele>1383.474365</ele>
        <time>2011-11-15T10:55:50Z</time>
      </trkpt>
      <trkpt lat="44.59692" lon="6.05804">
        <ele>1382.032471</ele>
        <time>2011-11-15T10:55:39Z</time>
      </trkpt>
      <trkpt lat="44.59673" lon="6.05798">
        <ele>1380.590576</ele>
        <time>2011-11-15T10:55:22Z</time>
      </trkpt>
      <trkpt lat="44.59655" lon="6.05776">
        <ele>1378.187256</ele>
        <time>2011-11-15T10:55:01Z</time>
      </trkpt>
      <trkpt lat="44.59641" lon="6.05751">
        <ele>1376.264648</ele>
        <time>2011-11-15T10:54:42Z</time>
      </trkpt>
      <trkpt lat="44.59629" lon="6.05742">
        <ele>1374.822754</ele>
        <time>2011-11-15T10:54:32Z</time>
      </trkpt>
      <trkpt lat="44.59626" lon="6.05744">
        <ele>1373.861328</ele>
        <time>2011-11-15T10:54:29Z</time>
      </trkpt>
      <trkpt lat="44.59623" lon="6.05751">
        <ele>1373.861328</ele>
        <time>2011-11-15T10:54:23Z</time>
      </trkpt>
      <trkpt lat="44.59625" lon="6.05758">
        <ele>1372.900146</ele>
        <time>2011-11-15T10:54:18Z</time>
      </trkpt>
      <trkpt lat="44.59632" lon="6.05778">
        <ele>1369.5354</ele>
        <time>2011-11-15T10:54:02Z</time>
      </trkpt>
      <trkpt lat="44.59636" lon="6.0579">
        <ele>1367.612549</ele>
        <time>2011-11-15T10:53:53Z</time>
      </trkpt>
      <trkpt lat="44.59641" lon="6.05807">
        <ele>1365.690186</ele>
        <time>2011-11-15T10:53:42Z</time>
      </trkpt>
      <trkpt lat="44.59641" lon="6.0581">
        <ele>1365.690186</ele>
        <time>2011-11-15T10:53:40Z</time>
      </trkpt>
      <trkpt lat="44.59642" lon="6.05815">
        <ele>1365.209473</ele>
        <time>2011-11-15T10:53:37Z</time>
      </trkpt>
      <trkpt lat="44.5965" lon="6.05831">
        <ele>1363.767334</ele>
        <time>2011-11-15T10:53:27Z</time>
      </trkpt>
      <trkpt lat="44.5965" lon="6.05833">
        <ele>1363.286865</ele>
        <time>2011-11-15T10:53:26Z</time>
      </trkpt>
      <trkpt lat="44.59661" lon="6.05857">
        <ele>1361.364258</ele>
        <time>2011-11-15T10:53:12Z</time>
      </trkpt>
      <trkpt lat="44.59664" lon="6.05869">
        <ele>1360.883545</ele>
        <time>2011-11-15T10:52:30Z</time>
      </trkpt>
      <trkpt lat="44.59664" lon="6.0587">
        <ele>1360.883545</ele>
        <time>2011-11-15T10:50:39Z</time>
      </trkpt>
      <trkpt lat="44.59664" lon="6.05868">
        <ele>1360.402832</ele>
        <time>2011-11-15T10:50:15Z</time>
      </trkpt>
      <trkpt lat="44.59664" lon="6.0587">
        <ele>1360.883545</ele>
        <time>2011-11-15T10:49:56Z</time>
      </trkpt>
      <trkpt lat="44.59674" lon="6.05904">
        <ele>1357.999756</ele>
        <time>2011-11-15T10:49:35Z</time>
      </trkpt>
      <trkpt lat="44.59679" lon="6.0591">
        <ele>1357.999756</ele>
        <time>2011-11-15T10:49:30Z</time>
      </trkpt>
      <trkpt lat="44.59691" lon="6.05937">
        <ele>1355.596191</ele>
        <time>2011-11-15T10:49:11Z</time>
      </trkpt>
      <trkpt lat="44.59692" lon="6.0594">
        <ele>1353.673584</ele>
        <time>2011-11-15T10:49:09Z</time>
      </trkpt>
      <trkpt lat="44.59692" lon="6.05944">
        <ele>1354.154297</ele>
        <time>2011-11-15T10:49:07Z</time>
      </trkpt>
      <trkpt lat="44.59706" lon="6.05964">
        <ele>1351.750977</ele>
        <time>2011-11-15T10:48:50Z</time>
      </trkpt>
      <trkpt lat="44.59713" lon="6.05973">
        <ele>1350.309082</ele>
        <time>2011-11-15T10:48:43Z</time>
      </trkpt>
      <trkpt lat="44.5972" lon="6.05983">
        <ele>1347.905762</ele>
        <time>2011-11-15T10:48:36Z</time>
      </trkpt>
      <trkpt lat="44.59727" lon="6.05989">
        <ele>1349.828369</ele>
        <time>2011-11-15T10:48:30Z</time>
      </trkpt>
      <trkpt lat="44.59731" lon="6.05995">
        <ele>1346.944336</ele>
        <time>2011-11-15T10:48:26Z</time>
      </trkpt>
      <trkpt lat="44.5975" lon="6.06018">
        <ele>1346.463867</ele>
        <time>2011-11-15T10:48:08Z</time>
      </trkpt>
      <trkpt lat="44.59752" lon="6.06021">
        <ele>1344.541016</ele>
        <time>2011-11-15T10:48:06Z</time>
      </trkpt>
      <trkpt lat="44.59763" lon="6.06042">
        <ele>1345.021729</ele>
        <time>2011-11-15T10:47:53Z</time>
      </trkpt>
      <trkpt lat="44.59767" lon="6.06056">
        <ele>1342.618652</ele>
        <time>2011-11-15T10:47:47Z</time>
      </trkpt>
      <trkpt lat="44.5977" lon="6.0607">
        <ele>1344.060547</ele>
        <time>2011-11-15T10:47:40Z</time>
      </trkpt>
      <trkpt lat="44.59771" lon="6.06077">
        <ele>1342.618652</ele>
        <time>2011-11-15T10:47:37Z</time>
      </trkpt>
      <trkpt lat="44.59772" lon="6.06086">
        <ele>1343.099121</ele>
        <time>2011-11-15T10:47:31Z</time>
      </trkpt>
      <trkpt lat="44.59772" lon="6.06088">
        <ele>1341.657227</ele>
        <time>2011-11-15T10:47:29Z</time>
      </trkpt>
      <trkpt lat="44.59774" lon="6.06091">
        <ele>1343.579834</ele>
        <time>2011-11-15T10:47:27Z</time>
      </trkpt>
      <trkpt lat="44.59778" lon="6.06101">
        <ele>1341.176514</ele>
        <time>2011-11-15T10:47:22Z</time>
      </trkpt>
      <trkpt lat="44.59784" lon="6.06118">
        <ele>1339.734375</ele>
        <time>2011-11-15T10:47:14Z</time>
      </trkpt>
      <trkpt lat="44.5979" lon="6.06129">
        <ele>1339.734375</ele>
        <time>2011-11-15T10:47:07Z</time>
      </trkpt>
      <trkpt lat="44.59789" lon="6.06138">
        <ele>1338.29248</ele>
        <time>2011-11-15T10:47:02Z</time>
      </trkpt>
      <trkpt lat="44.59787" lon="6.06138">
        <ele>1338.29248</ele>
        <time>2011-11-15T10:47:00Z</time>
      </trkpt>
      <trkpt lat="44.59781" lon="6.06131">
        <ele>1337.811768</ele>
        <time>2011-11-15T10:46:54Z</time>
      </trkpt>
      <trkpt lat="44.5977" lon="6.06107">
        <ele>1337.331055</ele>
        <time>2011-11-15T10:46:42Z</time>
      </trkpt>
      <trkpt lat="44.59759" lon="6.06078">
        <ele>1338.29248</ele>
        <time>2011-11-15T10:46:26Z</time>
      </trkpt>
      <trkpt lat="44.59739" lon="6.0604">
        <ele>1336.369873</ele>
        <time>2011-11-15T10:46:02Z</time>
      </trkpt>
      <trkpt lat="44.59717" lon="6.06021">
        <ele>1334.447266</ele>
        <time>2011-11-15T10:45:43Z</time>
      </trkpt>
      <trkpt lat="44.59685" lon="6.06008">
        <ele>1332.043945</ele>
        <time>2011-11-15T10:45:17Z</time>
      </trkpt>
      <trkpt lat="44.59673" lon="6.06007">
        <ele>1331.082764</ele>
        <time>2011-11-15T10:45:08Z</time>
      </trkpt>
      <trkpt lat="44.59643" lon="6.06002">
        <ele>1328.679443</ele>
        <time>2011-11-15T10:44:44Z</time>
      </trkpt>
      <trkpt lat="44.59627" lon="6.06005">
        <ele>1327.718018</ele>
        <time>2011-11-15T10:44:31Z</time>
      </trkpt>
      <trkpt lat="44.59597" lon="6.06014">
        <ele>1325.314697</ele>
        <time>2011-11-15T10:44:08Z</time>
      </trkpt>
      <trkpt lat="44.5959" lon="6.06013">
        <ele>1324.834229</ele>
        <time>2011-11-15T10:44:03Z</time>
      </trkpt>
      <trkpt lat="44.59588" lon="6.06012">
        <ele>1324.353516</ele>
        <time>2011-11-15T10:44:01Z</time>
      </trkpt>
      <trkpt lat="44.59572" lon="6.06007">
        <ele>1323.39209</ele>
        <time>2011-11-15T10:43:48Z</time>
      </trkpt>
      <trkpt lat="44.59562" lon="6.06003">
        <ele>1322.430664</ele>
        <time>2011-11-15T10:43:39Z</time>
      </trkpt>
      <trkpt lat="44.59538" lon="6.05986">
        <ele>1320.508057</ele>
        <time>2011-11-15T10:43:18Z</time>
      </trkpt>
      <trkpt lat="44.59512" lon="6.05972">
        <ele>1318.104736</ele>
        <time>2011-11-15T10:42:56Z</time>
      </trkpt>
      <trkpt lat="44.59507" lon="6.05969">
        <ele>1317.143555</ele>
        <time>2011-11-15T10:42:51Z</time>
      </trkpt>
      <trkpt lat="44.59498" lon="6.05963">
        <ele>1316.662842</ele>
        <time>2011-11-15T10:42:43Z</time>
      </trkpt>
      <trkpt lat="44.59475" lon="6.05946">
        <ele>1313.778809</ele>
        <time>2011-11-15T10:42:22Z</time>
      </trkpt>
      <trkpt lat="44.59446" lon="6.05925">
        <ele>1310.89502</ele>
        <time>2011-11-15T10:41:56Z</time>
      </trkpt>
      <trkpt lat="44.59422" lon="6.05912">
        <ele>1308.491699</ele>
        <time>2011-11-15T10:41:35Z</time>
      </trkpt>
      <trkpt lat="44.59392" lon="6.05901">
        <ele>1306.568848</ele>
        <time>2011-11-15T10:41:11Z</time>
      </trkpt>
      <trkpt lat="44.59359" lon="6.05884">
        <ele>1303.685059</ele>
        <time>2011-11-15T10:40:42Z</time>
      </trkpt>
      <trkpt lat="44.59333" lon="6.05879">
        <ele>1302.24292</ele>
        <time>2011-11-15T10:40:22Z</time>
      </trkpt>
      <trkpt lat="44.59309" lon="6.05877">
        <ele>1299.839844</ele>
        <time>2011-11-15T10:40:03Z</time>
      </trkpt>
      <trkpt lat="44.59284" lon="6.05878">
        <ele>1297.436523</ele>
        <time>2011-11-15T10:39:45Z</time>
      </trkpt>
      <trkpt lat="44.59279" lon="6.05877">
        <ele>1296.955811</ele>
        <time>2011-11-15T10:39:41Z</time>
      </trkpt>
      <trkpt lat="44.59275" lon="6.05878">
        <ele>1296.955811</ele>
        <time>2011-11-15T10:39:38Z</time>
      </trkpt>
      <trkpt lat="44.59249" lon="6.05882">
        <ele>1295.033203</ele>
        <time>2011-11-15T10:39:20Z</time>
      </trkpt>
      <trkpt lat="44.59246" lon="6.05886">
        <ele>1294.55249</ele>
        <time>2011-11-15T10:39:16Z</time>
      </trkpt>
      <trkpt lat="44.59246" lon="6.05892">
        <ele>1294.072021</ele>
        <time>2011-11-15T10:39:12Z</time>
      </trkpt>
      <trkpt lat="44.5925" lon="6.05897">
        <ele>1294.072021</ele>
        <time>2011-11-15T10:39:08Z</time>
      </trkpt>
      <trkpt lat="44.59272" lon="6.05906">
        <ele>1292.149414</ele>
        <time>2011-11-15T10:38:49Z</time>
      </trkpt>
      <trkpt lat="44.59293" lon="6.0592">
        <ele>1290.226563</ele>
        <time>2011-11-15T10:38:30Z</time>
      </trkpt>
      <trkpt lat="44.59321" lon="6.05935">
        <ele>1286.861816</ele>
        <time>2011-11-15T10:38:06Z</time>
      </trkpt>
      <trkpt lat="44.59354" lon="6.05945">
        <ele>1284.45874</ele>
        <time>2011-11-15T10:37:41Z</time>
      </trkpt>
      <trkpt lat="44.59365" lon="6.05948">
        <ele>1283.497314</ele>
        <time>2011-11-15T10:37:32Z</time>
      </trkpt>
      <trkpt lat="44.59374" lon="6.05952">
        <ele>1282.536133</ele>
        <time>2011-11-15T10:37:25Z</time>
      </trkpt>
      <trkpt lat="44.59378" lon="6.05952">
        <ele>1282.536133</ele>
        <time>2011-11-15T10:37:22Z</time>
      </trkpt>
      <trkpt lat="44.59383" lon="6.05957">
        <ele>1282.05542</ele>
        <time>2011-11-15T10:37:18Z</time>
      </trkpt>
      <trkpt lat="44.59379" lon="6.05976">
        <ele>1280.613525</ele>
        <time>2011-11-15T10:37:02Z</time>
      </trkpt>
      <trkpt lat="44.59363" lon="6.05972">
        <ele>1279.171387</ele>
        <time>2011-11-15T10:36:49Z</time>
      </trkpt>
      <trkpt lat="44.59341" lon="6.05972">
        <ele>1277.249023</ele>
        <time>2011-11-15T10:36:30Z</time>
      </trkpt>
      <trkpt lat="44.59314" lon="6.05977">
        <ele>1274.845459</ele>
        <time>2011-11-15T10:36:08Z</time>
      </trkpt>
      <trkpt lat="44.59281" lon="6.05988">
        <ele>1271.961426</ele>
        <time>2011-11-15T10:35:40Z</time>
      </trkpt>
      <trkpt lat="44.59275" lon="6.05988">
        <ele>1271.480713</ele>
        <time>2011-11-15T10:35:35Z</time>
      </trkpt>
      <trkpt lat="44.5925" lon="6.05983">
        <ele>1269.55835</ele>
        <time>2011-11-15T10:35:15Z</time>
      </trkpt>
      <trkpt lat="44.5922" lon="6.05969">
        <ele>1266.674316</ele>
        <time>2011-11-15T10:34:50Z</time>
      </trkpt>
      <trkpt lat="44.59192" lon="6.05952">
        <ele>1263.790283</ele>
        <time>2011-11-15T10:34:25Z</time>
      </trkpt>
      <trkpt lat="44.59169" lon="6.05939">
        <ele>1261.86792</ele>
        <time>2011-11-15T10:34:06Z</time>
      </trkpt>
      <trkpt lat="44.59138" lon="6.05922">
        <ele>1258.50293</ele>
        <time>2011-11-15T10:33:41Z</time>
      </trkpt>
      <trkpt lat="44.59109" lon="6.05901">
        <ele>1255.619141</ele>
        <time>2011-11-15T10:33:16Z</time>
      </trkpt>
      <trkpt lat="44.59096" lon="6.05907">
        <ele>1254.177246</ele>
        <time>2011-11-15T10:33:04Z</time>
      </trkpt>
      <trkpt lat="44.59103" lon="6.05919">
        <ele>1253.696533</ele>
        <time>2011-11-15T10:32:55Z</time>
      </trkpt>
      <trkpt lat="44.59106" lon="6.05921">
        <ele>1253.696533</ele>
        <time>2011-11-15T10:32:52Z</time>
      </trkpt>
      <trkpt lat="44.59112" lon="6.0593">
        <ele>1252.735107</ele>
        <time>2011-11-15T10:32:45Z</time>
      </trkpt>
      <trkpt lat="44.59129" lon="6.05951">
        <ele>1250.8125</ele>
        <time>2011-11-15T10:32:25Z</time>
      </trkpt>
      <trkpt lat="44.59136" lon="6.05964">
        <ele>1249.370605</ele>
        <time>2011-11-15T10:32:15Z</time>
      </trkpt>
      <trkpt lat="44.59156" lon="6.05987">
        <ele>1246.967285</ele>
        <time>2011-11-15T10:31:53Z</time>
      </trkpt>
      <trkpt lat="44.59163" lon="6.05995">
        <ele>1246.006104</ele>
        <time>2011-11-15T10:31:46Z</time>
      </trkpt>
      <trkpt lat="44.59183" lon="6.06024">
        <ele>1243.121826</ele>
        <time>2011-11-15T10:31:22Z</time>
      </trkpt>
      <trkpt lat="44.59184" lon="6.06029">
        <ele>1243.121826</ele>
        <time>2011-11-15T10:31:19Z</time>
      </trkpt>
      <trkpt lat="44.59192" lon="6.0604">
        <ele>1241.679932</ele>
        <time>2011-11-15T10:31:09Z</time>
      </trkpt>
      <trkpt lat="44.59211" lon="6.06065">
        <ele>1239.757324</ele>
        <time>2011-11-15T10:30:47Z</time>
      </trkpt>
      <trkpt lat="44.59213" lon="6.06067">
        <ele>1239.276611</ele>
        <time>2011-11-15T10:30:45Z</time>
      </trkpt>
      <trkpt lat="44.59237" lon="6.06089">
        <ele>1236.392822</ele>
        <time>2011-11-15T10:30:21Z</time>
      </trkpt>
      <trkpt lat="44.59241" lon="6.06091">
        <ele>1235.912109</ele>
        <time>2011-11-15T10:30:18Z</time>
      </trkpt>
      <trkpt lat="44.59244" lon="6.06094">
        <ele>1235.912109</ele>
        <time>2011-11-15T10:30:15Z</time>
      </trkpt>
      <trkpt lat="44.59258" lon="6.06097">
        <ele>1235.912109</ele>
        <time>2011-11-15T10:28:54Z</time>
      </trkpt>
      <trkpt lat="44.59257" lon="6.06097">
        <ele>1234.470215</ele>
        <time>2011-11-15T10:28:15Z</time>
      </trkpt>
      <trkpt lat="44.59264" lon="6.06102">
        <ele>1233.028076</ele>
        <time>2011-11-15T10:28:02Z</time>
      </trkpt>
      <trkpt lat="44.59264" lon="6.06109">
        <ele>1233.028076</ele>
        <time>2011-11-15T10:27:58Z</time>
      </trkpt>
      <trkpt lat="44.59271" lon="6.06117">
        <ele>1232.547607</ele>
        <time>2011-11-15T10:27:52Z</time>
      </trkpt>
      <trkpt lat="44.59276" lon="6.06129">
        <ele>1231.105713</ele>
        <time>2011-11-15T10:27:44Z</time>
      </trkpt>
      <trkpt lat="44.59287" lon="6.06158">
        <ele>1229.182861</ele>
        <time>2011-11-15T10:27:26Z</time>
      </trkpt>
      <trkpt lat="44.59295" lon="6.06182">
        <ele>1227.260254</ele>
        <time>2011-11-15T10:27:11Z</time>
      </trkpt>
      <trkpt lat="44.593" lon="6.06193">
        <ele>1227.260254</ele>
        <time>2011-11-15T10:27:03Z</time>
      </trkpt>
      <trkpt lat="44.59304" lon="6.06206">
        <ele>1227.260254</ele>
        <time>2011-11-15T10:26:55Z</time>
      </trkpt>
      <trkpt lat="44.59313" lon="6.06236">
        <ele>1224.376221</ele>
        <time>2011-11-15T10:26:37Z</time>
      </trkpt>
      <trkpt lat="44.59321" lon="6.06261">
        <ele>1222.453613</ele>
        <time>2011-11-15T10:26:21Z</time>
      </trkpt>
      <trkpt lat="44.59329" lon="6.06288">
        <ele>1221.011719</ele>
        <time>2011-11-15T10:26:04Z</time>
      </trkpt>
      <trkpt lat="44.59329" lon="6.06292">
        <ele>1220.531006</ele>
        <time>2011-11-15T10:26:02Z</time>
      </trkpt>
      <trkpt lat="44.59328" lon="6.06307">
        <ele>1220.050293</ele>
        <time>2011-11-15T10:25:55Z</time>
      </trkpt>
      <trkpt lat="44.59327" lon="6.06308">
        <ele>1219.569824</ele>
        <time>2011-11-15T10:25:54Z</time>
      </trkpt>
      <trkpt lat="44.593" lon="6.06286">
        <ele>1218.608398</ele>
        <time>2011-11-15T10:25:33Z</time>
      </trkpt>
      <trkpt lat="44.59265" lon="6.06279">
        <ele>1216.205078</ele>
        <time>2011-11-15T10:25:11Z</time>
      </trkpt>
      <trkpt lat="44.59229" lon="6.06267">
        <ele>1216.685791</ele>
        <time>2011-11-15T10:24:54Z</time>
      </trkpt>
      <trkpt lat="44.59189" lon="6.0624">
        <ele>1216.685791</ele>
        <time>2011-11-15T10:24:34Z</time>
      </trkpt>
      <trkpt lat="44.59158" lon="6.06213">
        <ele>1215.243896</ele>
        <time>2011-11-15T10:24:17Z</time>
      </trkpt>
      <trkpt lat="44.59117" lon="6.06171">
        <ele>1215.724609</ele>
        <time>2011-11-15T10:24:01Z</time>
      </trkpt>
      <trkpt lat="44.5909" lon="6.06151">
        <ele>1215.724609</ele>
        <time>2011-11-15T10:23:45Z</time>
      </trkpt>
      <trkpt lat="44.59063" lon="6.06134">
        <ele>1214.763184</ele>
        <time>2011-11-15T10:23:23Z</time>
      </trkpt>
      <trkpt lat="44.59053" lon="6.06127">
        <ele>1213.321289</ele>
        <time>2011-11-15T10:23:13Z</time>
      </trkpt>
      <trkpt lat="44.59045" lon="6.06119">
        <ele>1213.321289</ele>
        <time>2011-11-15T10:23:05Z</time>
      </trkpt>
      <trkpt lat="44.59039" lon="6.06117">
        <ele>1212.359863</ele>
        <time>2011-11-15T10:23:00Z</time>
      </trkpt>
      <trkpt lat="44.5903" lon="6.0611">
        <ele>1211.398438</ele>
        <time>2011-11-15T10:22:51Z</time>
      </trkpt>
      <trkpt lat="44.59006" lon="6.06097">
        <ele>1207.553223</ele>
        <time>2011-11-15T10:22:28Z</time>
      </trkpt>
      <trkpt lat="44.59003" lon="6.06097">
        <ele>1207.553223</ele>
        <time>2011-11-15T10:22:26Z</time>
      </trkpt>
      <trkpt lat="44.58998" lon="6.06093">
        <ele>1206.591797</ele>
        <time>2011-11-15T10:22:21Z</time>
      </trkpt>
      <trkpt lat="44.58968" lon="6.06074">
        <ele>1204.669189</ele>
        <time>2011-11-15T10:21:54Z</time>
      </trkpt>
      <trkpt lat="44.58967" lon="6.06073">
        <ele>1204.669189</ele>
        <time>2011-11-15T10:21:53Z</time>
      </trkpt>
      <trkpt lat="44.58948" lon="6.06057">
        <ele>1202.746582</ele>
        <time>2011-11-15T10:21:36Z</time>
      </trkpt>
      <trkpt lat="44.58944" lon="6.06053">
        <ele>1201.7854</ele>
        <time>2011-11-15T10:21:32Z</time>
      </trkpt>
      <trkpt lat="44.58925" lon="6.06031">
        <ele>1200.823975</ele>
        <time>2011-11-15T10:21:14Z</time>
      </trkpt>
      <trkpt lat="44.58907" lon="6.0602">
        <ele>1199.38208</ele>
        <time>2011-11-15T10:20:58Z</time>
      </trkpt>
      <trkpt lat="44.58887" lon="6.06004">
        <ele>1197.459473</ele>
        <time>2011-11-15T10:20:39Z</time>
      </trkpt>
      <trkpt lat="44.58882" lon="6.06">
        <ele>1196.97876</ele>
        <time>2011-11-15T10:20:34Z</time>
      </trkpt>
      <trkpt lat="44.58868" lon="6.05975">
        <ele>1193.614014</ele>
        <time>2011-11-15T10:20:13Z</time>
      </trkpt>
      <trkpt lat="44.58867" lon="6.05968">
        <ele>1192.172119</ele>
        <time>2011-11-15T10:20:08Z</time>
      </trkpt>
      <trkpt lat="44.58865" lon="6.05963">
        <ele>1192.172119</ele>
        <time>2011-11-15T10:20:04Z</time>
      </trkpt>
      <trkpt lat="44.58858" lon="6.05946">
        <ele>1189.768799</ele>
        <time>2011-11-15T10:19:50Z</time>
      </trkpt>
      <trkpt lat="44.58851" lon="6.05931">
        <ele>1188.326904</ele>
        <time>2011-11-15T10:19:38Z</time>
      </trkpt>
      <trkpt lat="44.5884" lon="6.05919">
        <ele>1185.923584</ele>
        <time>2011-11-15T10:19:23Z</time>
      </trkpt>
      <trkpt lat="44.58835" lon="6.05916">
        <ele>1185.442871</ele>
        <time>2011-11-15T10:19:19Z</time>
      </trkpt>
      <trkpt lat="44.58829" lon="6.05915">
        <ele>1184.481689</ele>
        <time>2011-11-15T10:19:13Z</time>
      </trkpt>
      <trkpt lat="44.58801" lon="6.05916">
        <ele>1182.559082</ele>
        <time>2011-11-15T10:18:50Z</time>
      </trkpt>
      <trkpt lat="44.588" lon="6.05915">
        <ele>1182.078369</ele>
        <time>2011-11-15T10:18:49Z</time>
      </trkpt>
      <trkpt lat="44.58767" lon="6.05907">
        <ele>1180.155762</ele>
        <time>2011-11-15T10:18:24Z</time>
      </trkpt>
      <trkpt lat="44.58765" lon="6.05908">
        <ele>1179.674805</ele>
        <time>2011-11-15T10:18:23Z</time>
      </trkpt>
      <trkpt lat="44.5873" lon="6.05912">
        <ele>1179.674805</ele>
        <time>2011-11-15T10:18:00Z</time>
      </trkpt>
      <trkpt lat="44.58713" lon="6.05892">
        <ele>1177.271729</ele>
        <time>2011-11-15T10:17:42Z</time>
      </trkpt>
      <trkpt lat="44.5871" lon="6.05863">
        <ele>1175.348877</ele>
        <time>2011-11-15T10:17:24Z</time>
      </trkpt>
      <trkpt lat="44.58711" lon="6.05856">
        <ele>1174.387695</ele>
        <time>2011-11-15T10:17:19Z</time>
      </trkpt>
      <trkpt lat="44.58707" lon="6.05834">
        <ele>1172.945801</ele>
        <time>2011-11-15T10:17:04Z</time>
      </trkpt>
      <trkpt lat="44.587" lon="6.05811">
        <ele>1170.54248</ele>
        <time>2011-11-15T10:16:46Z</time>
      </trkpt>
      <trkpt lat="44.58699" lon="6.0581">
        <ele>1170.54248</ele>
        <time>2011-11-15T10:16:45Z</time>
      </trkpt>
      <trkpt lat="44.58686" lon="6.05787">
        <ele>1167.177979</ele>
        <time>2011-11-15T10:16:26Z</time>
      </trkpt>
      <trkpt lat="44.58672" lon="6.05777">
        <ele>1165.736084</ele>
        <time>2011-11-15T10:16:10Z</time>
      </trkpt>
      <trkpt lat="44.58657" lon="6.05778">
        <ele>1163.33252</ele>
        <time>2011-11-15T10:15:56Z</time>
      </trkpt>
      <trkpt lat="44.58649" lon="6.05797">
        <ele>1161.409912</ele>
        <time>2011-11-15T10:15:40Z</time>
      </trkpt>
      <trkpt lat="44.58649" lon="6.05806">
        <ele>1159.487305</ele>
        <time>2011-11-15T10:15:34Z</time>
      </trkpt>
      <trkpt lat="44.58649" lon="6.05822">
        <ele>1158.525879</ele>
        <time>2011-11-15T10:15:25Z</time>
      </trkpt>
      <trkpt lat="44.5865" lon="6.05836">
        <ele>1156.122559</ele>
        <time>2011-11-15T10:15:18Z</time>
      </trkpt>
      <trkpt lat="44.58651" lon="6.05838">
        <ele>1156.122559</ele>
        <time>2011-11-15T10:15:17Z</time>
      </trkpt>
      <trkpt lat="44.58665" lon="6.05851">
        <ele>1155.161377</ele>
        <time>2011-11-15T10:15:07Z</time>
      </trkpt>
      <trkpt lat="44.58663" lon="6.05851">
        <ele>1155.161377</ele>
        <time>2011-11-15T10:14:54Z</time>
      </trkpt>
      <trkpt lat="44.58655" lon="6.05854">
        <ele>1155.64209</ele>
        <time>2011-11-15T10:14:50Z</time>
      </trkpt>
      <trkpt lat="44.58655" lon="6.05854">
        <ele>1157.083984</ele>
        <time>2011-11-15T10:14:48Z</time>
      </trkpt>
      <trkpt lat="44.58655" lon="6.05854">
        <ele>1154.200195</ele>
        <time>2011-11-15T10:14:34Z</time>
      </trkpt>
      <trkpt lat="44.58655" lon="6.05854">
        <ele>1156.122559</ele>
        <time>2011-11-15T10:14:24Z</time>
      </trkpt>
      <trkpt lat="44.58656" lon="6.05856">
        <ele>1154.680664</ele>
        <time>2011-11-15T10:14:20Z</time>
      </trkpt>
      <trkpt lat="44.58657" lon="6.05861">
        <ele>1155.161377</ele>
        <time>2011-11-15T10:14:17Z</time>
      </trkpt>
      <trkpt lat="44.5867" lon="6.05911">
        <ele>1152.758057</ele>
        <time>2011-11-15T10:14:07Z</time>
      </trkpt>
      <trkpt lat="44.58681" lon="6.05948">
        <ele>1153.719482</ele>
        <time>2011-11-15T10:14:02Z</time>
      </trkpt>
      <trkpt lat="44.58683" lon="6.05953">
        <ele>1154.680664</ele>
        <time>2011-11-15T10:14:01Z</time>
      </trkpt>
      <trkpt lat="44.58715" lon="6.05993">
        <ele>1153.719482</ele>
        <time>2011-11-15T10:13:46Z</time>
      </trkpt>
      <trkpt lat="44.5873" lon="6.06">
        <ele>1154.200195</ele>
        <time>2011-11-15T10:13:42Z</time>
      </trkpt>
      <trkpt lat="44.58739" lon="6.06009">
        <ele>1154.200195</ele>
        <time>2011-11-15T10:13:39Z</time>
      </trkpt>
      <trkpt lat="44.58784" lon="6.0606">
        <ele>1155.161377</ele>
        <time>2011-11-15T10:13:23Z</time>
      </trkpt>
      <trkpt lat="44.58815" lon="6.06091">
        <ele>1155.64209</ele>
        <time>2011-11-15T10:13:10Z</time>
      </trkpt>
      <trkpt lat="44.58825" lon="6.06136">
        <ele>1153.719482</ele>
        <time>2011-11-15T10:12:47Z</time>
      </trkpt>
      <trkpt lat="44.58827" lon="6.06149">
        <ele>1153.23877</ele>
        <time>2011-11-15T10:12:40Z</time>
      </trkpt>
      <trkpt lat="44.5883" lon="6.06173">
        <ele>1151.316162</ele>
        <time>2011-11-15T10:12:24Z</time>
      </trkpt>
      <trkpt lat="44.58833" lon="6.06182">
        <ele>1150.835449</ele>
        <time>2011-11-15T10:12:18Z</time>
      </trkpt>
      <trkpt lat="44.58838" lon="6.06211">
        <ele>1147.470703</ele>
        <time>2011-11-15T10:12:00Z</time>
      </trkpt>
      <trkpt lat="44.58843" lon="6.06243">
        <ele>1146.028809</ele>
        <time>2011-11-15T10:11:42Z</time>
      </trkpt>
      <trkpt lat="44.58844" lon="6.06255">
        <ele>1146.028809</ele>
        <time>2011-11-15T10:11:36Z</time>
      </trkpt>
      <trkpt lat="44.58842" lon="6.0626">
        <ele>1144.58667</ele>
        <time>2011-11-15T10:11:33Z</time>
      </trkpt>
      <trkpt lat="44.58841" lon="6.06278">
        <ele>1144.106201</ele>
        <time>2011-11-15T10:11:26Z</time>
      </trkpt>
      <trkpt lat="44.58841" lon="6.06278">
        <ele>1143.625488</ele>
        <time>2011-11-15T10:11:18Z</time>
      </trkpt>
      <trkpt lat="44.58841" lon="6.06279">
        <ele>1143.144775</ele>
        <time>2011-11-15T10:10:21Z</time>
      </trkpt>
      <trkpt lat="44.58841" lon="6.06278">
        <ele>1142.664307</ele>
        <time>2011-11-15T10:10:12Z</time>
      </trkpt>
      <trkpt lat="44.58841" lon="6.06278">
        <ele>1144.58667</ele>
        <time>2011-11-15T10:10:10Z</time>
      </trkpt>
      <trkpt lat="44.58841" lon="6.06278">
        <ele>1144.106201</ele>
        <time>2011-11-15T10:09:36Z</time>
      </trkpt>
      <trkpt lat="44.58842" lon="6.06278">
        <ele>1143.625488</ele>
        <time>2011-11-15T10:09:00Z</time>
      </trkpt>
      <trkpt lat="44.58837" lon="6.0631">
        <ele>1142.183594</ele>
        <time>2011-11-15T10:08:42Z</time>
      </trkpt>
      <trkpt lat="44.58853" lon="6.06351">
        <ele>1140.260986</ele>
        <time>2011-11-15T10:08:22Z</time>
      </trkpt>
      <trkpt lat="44.58857" lon="6.06358">
        <ele>1140.260986</ele>
        <time>2011-11-15T10:08:18Z</time>
      </trkpt>
      <trkpt lat="44.58883" lon="6.06405">
        <ele>1139.299561</ele>
        <time>2011-11-15T10:07:54Z</time>
      </trkpt>
      <trkpt lat="44.58902" lon="6.06445">
        <ele>1137.376953</ele>
        <time>2011-11-15T10:07:33Z</time>
      </trkpt>
      <trkpt lat="44.58897" lon="6.0646">
        <ele>1136.415771</ele>
        <time>2011-11-15T10:07:22Z</time>
      </trkpt>
      <trkpt lat="44.58888" lon="6.0645">
        <ele>1134.493164</ele>
        <time>2011-11-15T10:07:11Z</time>
      </trkpt>
      <trkpt lat="44.58883" lon="6.06444">
        <ele>1134.493164</ele>
        <time>2011-11-15T10:07:06Z</time>
      </trkpt>
      <trkpt lat="44.5887" lon="6.06425">
        <ele>1132.089844</ele>
        <time>2011-11-15T10:06:49Z</time>
      </trkpt>
      <trkpt lat="44.58858" lon="6.06411">
        <ele>1129.686279</ele>
        <time>2011-11-15T10:06:35Z</time>
      </trkpt>
      <trkpt lat="44.58855" lon="6.06407">
        <ele>1128.725098</ele>
        <time>2011-11-15T10:06:31Z</time>
      </trkpt>
      <trkpt lat="44.58851" lon="6.06406">
        <ele>1128.244385</ele>
        <time>2011-11-15T10:06:27Z</time>
      </trkpt>
      <trkpt lat="44.58844" lon="6.06399">
        <ele>1127.283203</ele>
        <time>2011-11-15T10:06:20Z</time>
      </trkpt>
      <trkpt lat="44.58822" lon="6.06388">
        <ele>1124.39917</ele>
        <time>2011-11-15T10:05:59Z</time>
      </trkpt>
      <trkpt lat="44.58821" lon="6.06389">
        <ele>1124.39917</ele>
        <time>2011-11-15T10:05:58Z</time>
      </trkpt>
      <trkpt lat="44.58801" lon="6.06383">
        <ele>1121.034668</ele>
        <time>2011-11-15T10:05:42Z</time>
      </trkpt>
      <trkpt lat="44.58787" lon="6.06378">
        <ele>1119.112061</ele>
        <time>2011-11-15T10:05:30Z</time>
      </trkpt>
      <trkpt lat="44.58781" lon="6.06377">
        <ele>1118.631348</ele>
        <time>2011-11-15T10:05:26Z</time>
      </trkpt>
      <trkpt lat="44.58762" lon="6.06362">
        <ele>1116.228027</ele>
        <time>2011-11-15T10:05:09Z</time>
      </trkpt>
      <trkpt lat="44.58733" lon="6.06342">
        <ele>1113.824463</ele>
        <time>2011-11-15T10:04:49Z</time>
      </trkpt>
      <trkpt lat="44.58721" lon="6.06333">
        <ele>1112.382568</ele>
        <time>2011-11-15T10:04:40Z</time>
      </trkpt>
      <trkpt lat="44.58699" lon="6.06298">
        <ele>1109.979248</ele>
        <time>2011-11-15T10:04:19Z</time>
      </trkpt>
      <trkpt lat="44.58706" lon="6.06262">
        <ele>1108.537354</ele>
        <time>2011-11-15T10:04:02Z</time>
      </trkpt>
      <trkpt lat="44.58686" lon="6.06238">
        <ele>1105.653564</ele>
        <time>2011-11-15T10:03:43Z</time>
      </trkpt>
      <trkpt lat="44.58659" lon="6.06228">
        <ele>1103.730957</ele>
        <time>2011-11-15T10:03:25Z</time>
      </trkpt>
      <trkpt lat="44.58628" lon="6.06222">
        <ele>1101.80835</ele>
        <time>2011-11-15T10:03:05Z</time>
      </trkpt>
      <trkpt lat="44.58594" lon="6.06207">
        <ele>1100.366455</ele>
        <time>2011-11-15T10:02:45Z</time>
      </trkpt>
      <trkpt lat="44.58572" lon="6.06178">
        <ele>1099.404785</ele>
        <time>2011-11-15T10:02:27Z</time>
      </trkpt>
      <trkpt lat="44.58546" lon="6.06141">
        <ele>1097.962891</ele>
        <time>2011-11-15T10:02:04Z</time>
      </trkpt>
      <trkpt lat="44.58519" lon="6.06107">
        <ele>1097.001465</ele>
        <time>2011-11-15T10:01:42Z</time>
      </trkpt>
      <trkpt lat="44.58506" lon="6.06073">
        <ele>1095.078857</ele>
        <time>2011-11-15T10:01:22Z</time>
      </trkpt>
      <trkpt lat="44.58504" lon="6.06072">
        <ele>1094.598145</ele>
        <time>2011-11-15T10:01:20Z</time>
      </trkpt>
      <trkpt lat="44.585" lon="6.0606">
        <ele>1094.117676</ele>
        <time>2011-11-15T10:01:12Z</time>
      </trkpt>
      <trkpt lat="44.58485" lon="6.06038">
        <ele>1090.75293</ele>
        <time>2011-11-15T10:00:52Z</time>
      </trkpt>
      <trkpt lat="44.58475" lon="6.06024">
        <ele>1088.830566</ele>
        <time>2011-11-15T10:00:39Z</time>
      </trkpt>
      <trkpt lat="44.58469" lon="6.06016">
        <ele>1087.869141</ele>
        <time>2011-11-15T10:00:32Z</time>
      </trkpt>
      <trkpt lat="44.58456" lon="6.06001">
        <ele>1084.985352</ele>
        <time>2011-11-15T10:00:17Z</time>
      </trkpt>
      <trkpt lat="44.58433" lon="6.05987">
        <ele>1082.101074</ele>
        <time>2011-11-15T09:59:54Z</time>
      </trkpt>
      <trkpt lat="44.58424" lon="6.05985">
        <ele>1080.65918</ele>
        <time>2011-11-15T09:59:45Z</time>
      </trkpt>
      <trkpt lat="44.5842" lon="6.05986">
        <ele>1079.697754</ele>
        <time>2011-11-15T09:59:42Z</time>
      </trkpt>
      <trkpt lat="44.58401" lon="6.05983">
        <ele>1077.294678</ele>
        <time>2011-11-15T09:59:24Z</time>
      </trkpt>
      <trkpt lat="44.58387" lon="6.05978">
        <ele>1074.891357</ele>
        <time>2011-11-15T09:59:12Z</time>
      </trkpt>
      <trkpt lat="44.58386" lon="6.0598">
        <ele>1074.410645</ele>
        <time>2011-11-15T09:59:10Z</time>
      </trkpt>
      <trkpt lat="44.58381" lon="6.0598">
        <ele>1074.410645</ele>
        <time>2011-11-15T09:59:06Z</time>
      </trkpt>
      <trkpt lat="44.58357" lon="6.05981">
        <ele>1071.046143</ele>
        <time>2011-11-15T09:58:45Z</time>
      </trkpt>
      <trkpt lat="44.58354" lon="6.05981">
        <ele>1070.56543</ele>
        <time>2011-11-15T09:58:43Z</time>
      </trkpt>
      <trkpt lat="44.58352" lon="6.05981">
        <ele>1070.084717</ele>
        <time>2011-11-15T09:58:41Z</time>
      </trkpt>
      <trkpt lat="44.58349" lon="6.0598">
        <ele>1069.604248</ele>
        <time>2011-11-15T09:58:38Z</time>
      </trkpt>
      <trkpt lat="44.58324" lon="6.05979">
        <ele>1066.719971</ele>
        <time>2011-11-15T09:58:18Z</time>
      </trkpt>
      <trkpt lat="44.583" lon="6.05974">
        <ele>1063.835938</ele>
        <time>2011-11-15T09:57:59Z</time>
      </trkpt>
      <trkpt lat="44.58281" lon="6.05973">
        <ele>1061.913574</ele>
        <time>2011-11-15T09:57:46Z</time>
      </trkpt>
      <trkpt lat="44.58249" lon="6.05966">
        <ele>1059.029541</ele>
        <time>2011-11-15T09:57:26Z</time>
      </trkpt>
      <trkpt lat="44.58245" lon="6.05958">
        <ele>1059.029541</ele>
        <time>2011-11-15T09:57:22Z</time>
      </trkpt>
      <trkpt lat="44.58245" lon="6.05958">
        <ele>1059.510254</ele>
        <time>2011-11-15T09:56:00Z</time>
      </trkpt>
      <trkpt lat="44.58245" lon="6.05958">
        <ele>1058.548828</ele>
        <time>2011-11-15T09:55:25Z</time>
      </trkpt>
      <trkpt lat="44.58244" lon="6.05955">
        <ele>1060.952148</ele>
        <time>2011-11-15T09:55:07Z</time>
      </trkpt>
      <trkpt lat="44.58244" lon="6.05956">
        <ele>1059.510254</ele>
        <time>2011-11-15T09:55:04Z</time>
      </trkpt>
      <trkpt lat="44.58244" lon="6.05956">
        <ele>1059.510254</ele>
        <time>2011-11-15T09:54:17Z</time>
      </trkpt>
      <trkpt lat="44.58243" lon="6.05958">
        <ele>1059.029541</ele>
        <time>2011-11-15T09:53:58Z</time>
      </trkpt>
      <trkpt lat="44.58242" lon="6.05958">
        <ele>1060.952148</ele>
        <time>2011-11-15T09:53:13Z</time>
      </trkpt>
      <trkpt lat="44.58242" lon="6.05958">
        <ele>1059.510254</ele>
        <time>2011-11-15T09:53:06Z</time>
      </trkpt>
      <trkpt lat="44.58224" lon="6.05959">
        <ele>1058.548828</ele>
        <time>2011-11-15T09:52:53Z</time>
      </trkpt>
      <trkpt lat="44.58196" lon="6.05958">
        <ele>1057.587646</ele>
        <time>2011-11-15T09:52:37Z</time>
      </trkpt>
      <trkpt lat="44.58186" lon="6.05952">
        <ele>1056.626221</ele>
        <time>2011-11-15T09:52:31Z</time>
      </trkpt>
      <trkpt lat="44.58164" lon="6.05943">
        <ele>1055.665039</ele>
        <time>2011-11-15T09:52:18Z</time>
      </trkpt>
      <trkpt lat="44.58132" lon="6.05929">
        <ele>1054.223145</ele>
        <time>2011-11-15T09:51:59Z</time>
      </trkpt>
      <trkpt lat="44.58101" lon="6.059">
        <ele>1051.338867</ele>
        <time>2011-11-15T09:51:38Z</time>
      </trkpt>
      <trkpt lat="44.58079" lon="6.05866">
        <ele>1049.41626</ele>
        <time>2011-11-15T09:51:18Z</time>
      </trkpt>
      <trkpt lat="44.58069" lon="6.05853">
        <ele>1048.935547</ele>
        <time>2011-11-15T09:51:10Z</time>
      </trkpt>
      <trkpt lat="44.5806" lon="6.0584">
        <ele>1047.974365</ele>
        <time>2011-11-15T09:51:01Z</time>
      </trkpt>
      <trkpt lat="44.58058" lon="6.05835">
        <ele>1047.974365</ele>
        <time>2011-11-15T09:50:58Z</time>
      </trkpt>
      <trkpt lat="44.58051" lon="6.05827">
        <ele>1047.012939</ele>
        <time>2011-11-15T09:50:52Z</time>
      </trkpt>
      <trkpt lat="44.58045" lon="6.05803">
        <ele>1044.609619</ele>
        <time>2011-11-15T09:50:38Z</time>
      </trkpt>
      <trkpt lat="44.58037" lon="6.05781">
        <ele>1042.206543</ele>
        <time>2011-11-15T09:50:24Z</time>
      </trkpt>
      <trkpt lat="44.58019" lon="6.05778">
        <ele>1040.283936</ele>
        <time>2011-11-15T09:50:09Z</time>
      </trkpt>
      <trkpt lat="44.58013" lon="6.05781">
        <ele>1039.803223</ele>
        <time>2011-11-15T09:50:04Z</time>
      </trkpt>
      <trkpt lat="44.58005" lon="6.05784">
        <ele>1038.842041</ele>
        <time>2011-11-15T09:49:57Z</time>
      </trkpt>
      <trkpt lat="44.57993" lon="6.05784">
        <ele>1037.399902</ele>
        <time>2011-11-15T09:49:46Z</time>
      </trkpt>
      <trkpt lat="44.5798" lon="6.05782">
        <ele>1035.957764</ele>
        <time>2011-11-15T09:49:34Z</time>
      </trkpt>
      <trkpt lat="44.57959" lon="6.05778">
        <ele>1033.07373</ele>
        <time>2011-11-15T09:49:14Z</time>
      </trkpt>
      <trkpt lat="44.57942" lon="6.05774">
        <ele>1029.709229</ele>
        <time>2011-11-15T09:48:57Z</time>
      </trkpt>
      <trkpt lat="44.57927" lon="6.05769">
        <ele>1027.786621</ele>
        <time>2011-11-15T09:48:41Z</time>
      </trkpt>
      <trkpt lat="44.5791" lon="6.05769">
        <ele>1025.383301</ele>
        <time>2011-11-15T09:48:25Z</time>
      </trkpt>
      <trkpt lat="44.57907" lon="6.05769">
        <ele>1024.902832</ele>
        <time>2011-11-15T09:48:23Z</time>
      </trkpt>
      <trkpt lat="44.57902" lon="6.05768">
        <ele>1023.941406</ele>
        <time>2011-11-15T09:48:18Z</time>
      </trkpt>
      <trkpt lat="44.57898" lon="6.0577">
        <ele>1023.460938</ele>
        <time>2011-11-15T09:48:14Z</time>
      </trkpt>
      <trkpt lat="44.57877" lon="6.05768">
        <ele>1020.096191</ele>
        <time>2011-11-15T09:47:54Z</time>
      </trkpt>
      <trkpt lat="44.57872" lon="6.05769">
        <ele>1019.134766</ele>
        <time>2011-11-15T09:47:48Z</time>
      </trkpt>
      <trkpt lat="44.57868" lon="6.05769">
        <ele>1017.692627</ele>
        <time>2011-11-15T09:47:44Z</time>
      </trkpt>
      <trkpt lat="44.57862" lon="6.05769">
        <ele>1017.212158</ele>
        <time>2011-11-15T09:47:39Z</time>
      </trkpt>
      <trkpt lat="44.57847" lon="6.05767">
        <ele>1014.328125</ele>
        <time>2011-11-15T09:47:23Z</time>
      </trkpt>
      <trkpt lat="44.57842" lon="6.05766">
        <ele>1014.328125</ele>
        <time>2011-11-15T09:47:18Z</time>
      </trkpt>
      <trkpt lat="44.57837" lon="6.05765">
        <ele>1012.405518</ele>
        <time>2011-11-15T09:47:14Z</time>
      </trkpt>
      <trkpt lat="44.57835" lon="6.05764">
        <ele>1012.405518</ele>
        <time>2011-11-15T09:47:12Z</time>
      </trkpt>
      <trkpt lat="44.57828" lon="6.05762">
        <ele>1010.963623</ele>
        <time>2011-11-15T09:47:06Z</time>
      </trkpt>
      <trkpt lat="44.57824" lon="6.0576">
        <ele>1010.963623</ele>
        <time>2011-11-15T09:47:02Z</time>
      </trkpt>
      <trkpt lat="44.57816" lon="6.05756">
        <ele>1010.002197</ele>
        <time>2011-11-15T09:46:54Z</time>
      </trkpt>
      <trkpt lat="44.57811" lon="6.05755">
        <ele>1009.041016</ele>
        <time>2011-11-15T09:46:50Z</time>
      </trkpt>
      <trkpt lat="44.57794" lon="6.0575">
        <ele>1005.676514</ele>
        <time>2011-11-15T09:46:34Z</time>
      </trkpt>
      <trkpt lat="44.57791" lon="6.05746">
        <ele>1007.118408</ele>
        <time>2011-11-15T09:46:30Z</time>
      </trkpt>
      <trkpt lat="44.5779" lon="6.05745">
        <ele>1005.676514</ele>
        <time>2011-11-15T09:46:10Z</time>
      </trkpt>
      <trkpt lat="44.5779" lon="6.05745">
        <ele>1006.156982</ele>
        <time>2011-11-15T09:45:40Z</time>
      </trkpt>
      <trkpt lat="44.5779" lon="6.05743">
        <ele>1002.792236</ele>
        <time>2011-11-15T09:45:07Z</time>
      </trkpt>
      <trkpt lat="44.57791" lon="6.05743">
        <ele>1002.311523</ele>
        <time>2011-11-15T09:45:06Z</time>
      </trkpt>
      <trkpt lat="44.57789" lon="6.05741">
        <ele>998.947021</ele>
        <time>2011-11-15T09:44:49Z</time>
      </trkpt>
    </trkseg>
  </trk>
</gpx>